[[{"header":{"parameterUnit":"m.s-1","parameterCategory":1,"la1":31.0,"la2":29.5877,"lo1":-88.7671,"lo2":-86.6584,"dy":0.0162,"dx":0.0185,"nx":115,"ny":88,"refTime":"2024-09-14T12:00:00:Z","depth":0,"parameterNumber":2,"parameterNumberName":"U-component_of_WINDS"},"data":[0.0,0.0,0.0,0.0,0.0,0.0,0.0,0.0,0.0,0.0,0.0,0.0,0.0,0.0,0.0,0.0,0.0,0.0,0.0,0.0,0.0,0.0,0.0,0.0,0.0,0.0,0.0,0.0,0.0,0.0,0.0,0.0,0.0,0.0,0.0,0.0,0.0,0.0,0.0,0.0,0.0,0.0,0.0,0.0,0.0,0.0,0.0,0.0,0.0,0.0,0.0,0.0,0.0,0.0,0.0,0.0,0.0,0.0,0.0,0.0,0.0,0.0,0.0,0.0,0.0,0.0,0.0,0.0,0.0,0.0,0.0,0.0,0.0,0.0,0.0,0.0,0.0,0.0,0.0,0.0,0.0,0.0,0.0,0.0,0.0,0.0,0.0,0.0,0.0,0.0,0.0,0.0,0.0,0.0,0.0,0.0,0.0,0.0,0.0,0.0,0.0,0.0,0.0,0.0,0.0,0.0,0.0,0.0,0.0,0.0,0.0,0.0,0.0,0.0,0.0,0.0,0.0,0.0,0.0,0.0,0.0,0.0,0.0,0.0,0.0,0.0,0.0,0.0,0.0,0.0,0.0,0.0,0.0,0.0,0.0,0.0,0.0,0.0,0.0,0.0,0.0,0.0,0.0,0.0,0.0,0.0,0.0,0.0,0.0,0.0,0.0,0.0,0.0,0.0,0.0,0.0,0.0,0.0,0.0,0.0,0.0,0.0,0.0,0.0,0.0,0.0,0.0,0.0,0.0,0.0,0.0,0.0,0.0,0.0,0.0,0.0,0.0,0.0,0.0,0.0,0.0,0.0,0.0,0.0,0.0,0.0,0.0,0.0,0.0,0.0,0.0,0.0,0.0,0.0,0.0,0.0,0.0,0.0,0.0,0.0,0.0,0.0,0.0,0.0,0.0,0.0,0.0,0.0,0.0,0.0,0.0,0.0,0.0,0.0,0.0,0.0,0.0,0.0,0.0,0.0,0.0,0.0,0.0,0.0,0.0,0.0,0.0,0.0,0.0,0.0,0.0,0.0,0.0,0.0,0.0,0.0,0.0,0.0,0.0,0.0,0.0,0.0,0.0,0.0,0.0,0.0,0.0,0.0,0.0,0.0,0.0,0.0,0.0,0.0,0.0,0.0,0.0,0.0,0.0,0.0,0.0,0.0,0.0,0.0,0.0,0.0,0.0,0.0,0.0,0.0,0.0,0.0,0.0,0.0,0.0,0.0,0.0,0.0,0.0,0.0,0.0,0.0,0.0,0.0,0.0,0.0,0.0,0.0,0.0,0.0,0.0,0.0,0.0,0.0,0.0,0.0,0.0,0.0,0.0,0.0,0.0,0.0,0.0,0.0,0.0,0.0,0.0,0.0,0.0,0.0,0.0,0.0,0.0,0.0,0.0,0.0,0.0,0.0,0.0,0.0,0.0,0.0,0.0,0.0,0.0,0.0,0.0,0.0,0.0,0.0,0.0,0.0,0.0,0.0,0.0,0.0,0.0,0.0,0.0,0.0,0.0,0.0,0.0,0.0,0.0,0.0,0.0,0.0,0.0,0.0,0.0,0.0,0.0,0.0,0.0,0.0,0.0,0.0,0.0,0.0,0.0,0.0,0.0,0.0,0.0,0.0,0.0,0.0,0.0,0.0,0.0,0.0,0.0,0.0,0.0,0.0,0.0,0.0,0.0,0.0,0.0,0.0,0.0,0.0,0.0,0.0,0.0,0.0,0.0,0.0,0.0,0.0,0.0,0.0,0.0,0.0,0.0,0.0,0.0,0.0,0.0,0.0,0.0,0.0,0.0,0.0,0.0,0.0,0.0,0.0,0.0,0.0,0.0,0.0,0.0,0.0,0.0,0.0,0.0,0.0,0.0,0.0,0.0,0.0,0.0,0.0,0.0,0.0,0.0,0.0,0.0,0.0,0.0,0.0,0.0,0.0,0.0,0.0,0.0,0.0,0.0,0.0,0.0,0.0,0.0,0.0,0.0,0.0,0.0,0.0,0.0,0.0,0.0,0.0,0.0,0.0,0.0,0.0,0.0,0.0,0.0,0.0,0.0,0.0,0.0,0.0,0.0,0.0,0.0,0.0,0.0,0.0,0.0,0.0,0.0,0.0,0.0,0.0,0.0,0.0,0.0,0.0,0.0,0.0,0.0,0.0,0.0,0.0,0.0,0.0,0.0,0.0,0.0,0.0,0.0,0.0,0.0,0.0,0.0,0.0,0.0,0.0,0.0,0.0,0.0,0.0,0.0,0.0,0.0,0.0,0.0,0.0,0.0,0.0,0.0,0.0,0.0,0.0,0.0,0.0,0.0,0.0,0.0,0.0,0.0,0.0,0.0,0.0,0.0,0.0,0.0,0.0,0.0,0.0,0.0,0.0,0.0,0.0,0.0,0.0,0.0,0.0,0.0,0.0,0.0,0.0,0.0,0.0,0.0,0.0,0.0,0.0,0.0,0.0,0.0,0.0,0.0,0.0,0.0,0.0,0.0,0.0,0.0,0.0,0.0,0.0,0.0,0.0,0.0,0.0,0.0,0.0,0.0,0.0,0.0,0.0,0.0,0.0,0.0,0.0,0.0,0.0,0.0,0.0,0.0,0.0,0.0,0.0,0.0,0.0,0.0,0.0,0.0,0.0,0.0,0.0,0.0,0.0,0.0,0.0,0.0,0.0,0.0,0.0,0.0,0.0,0.0,0.0,0.0,0.0,0.0,0.0,0.0,0.0,0.0,0.0,0.0,0.0,0.0,0.0,0.0,0.0,0.0,0.0,0.0,0.0,0.0,0.0,0.0,0.0,0.0,0.0,0.0,0.0,0.0,0.0,0.0,0.0,0.0,0.0,0.0,0.0,0.0,0.0,0.0,0.0,0.0,0.0,0.0,0.0,0.0,0.0,0.0,0.0,0.0,0.0,0.0,0.0,0.0,0.0,0.0,0.0,0.0,0.0,0.0,0.0,0.0,0.0,0.0,0.0,0.0,0.0,0.0,0.0,0.0,0.0,0.0,0.0,0.0,0.0,0.0,0.0,0.0,0.0,0.0,0.0,0.0,0.0,0.0,0.0,0.0,0.0,0.0,0.0,0.0,0.0,0.0,0.0,0.0,0.0,0.0,0.0,0.0,0.0,0.0,0.0,0.0,0.0,0.0,0.0,0.0,0.0,0.0,0.0,0.0,0.0,0.0,0.0,0.0,0.0,0.0,0.0,0.0,0.0,0.0,0.0,0.0,0.0,0.0,0.0,0.0,0.0,0.0,0.0,0.0,0.0,0.0,0.0,0.0,0.0,0.0,0.0,0.0,0.0,0.0,0.0,0.0,0.0,0.0,0.0,0.0,0.0,0.0,0.0,0.0,0.0,0.0,0.0,0.0,0.0,0.0,0.0,0.0,0.0,0.0,0.0,0.0,0.0,0.0,0.0,0.0,0.0,0.0,0.0,0.0,0.0,0.0,0.0,0.0,0.0,0.0,0.0,0.0,0.0,0.0,0.0,0.0,0.0,0.0,0.0,0.0,0.0,0.0,0.0,0.0,0.0,0.0,0.0,0.0,0.0,0.0,0.0,0.0,0.0,0.0,0.0,0.0,0.0,0.0,0.0,0.0,0.0,0.0,0.0,0.0,0.0,0.0,0.0,0.0,0.0,0.0,0.0,0.0,0.0,0.0,0.0,0.0,0.0,0.0,0.0,0.0,0.0,0.0,0.0,0.0,0.0,0.0,0.0,0.0,0.0,0.0,0.0,0.0,0.0,0.0,0.0,0.0,0.0,0.0,0.0,0.0,0.0,0.0,0.0,0.0,0.0,0.0,0.0,0.0,0.0,0.0,0.0,0.0,0.0,0.0,0.0,0.0,0.0,0.0,0.0,0.0,0.0,0.0,0.0,0.0,0.0,0.0,0.0,0.0,0.0,0.0,0.0,0.0,0.0,0.0,0.0,0.0,0.0,0.0,0.0,0.0,0.0,0.0,0.0,0.0,0.0,0.0,0.0,0.0,0.0,0.0,0.0,0.0,0.0,0.0,0.0,0.0,0.0,0.0,0.0,0.0,0.0,0.0,0.0,0.0,0.0,0.0,0.0,0.0,0.0,0.0,0.0,0.0,0.0,0.0,0.0,0.0,0.0,0.0,0.0,0.0,0.0,0.0,0.0,0.0,0.0,0.0,0.0,0.0,0.0,0.0,0.0,0.0,0.0,0.0,0.0,0.0,0.0,0.0,0.0,0.0,0.0,0.0,0.0,0.0,0.0,0.0,0.0,0.0,0.0,0.0,0.0,0.0,0.0,0.0,0.0,-1.1507,0.0,0.0,0.0,0.0,0.0,0.0,0.0,0.0,0.0,0.0,0.0,0.0,0.0,0.0,0.0,0.0,0.0,0.0,0.0,0.0,0.0,0.0,0.0,0.0,0.0,0.0,0.0,0.0,0.0,0.0,0.0,0.0,0.0,0.0,0.0,0.0,0.0,0.0,0.0,0.0,0.0,0.0,0.0,0.0,0.0,0.0,0.0,0.0,0.0,0.0,0.0,0.0,0.0,0.0,0.0,0.0,0.0,0.0,0.0,0.0,0.0,0.0,0.0,0.0,0.0,0.0,0.0,0.0,0.0,0.0,0.0,0.0,0.0,0.0,0.0,0.0,0.0,0.0,0.0,0.0,0.0,0.0,0.0,0.0,0.0,0.0,0.0,0.0,0.0,0.0,0.0,0.0,0.0,0.0,0.0,0.0,0.0,0.0,0.0,0.0,0.0,0.0,0.0,0.0,0.0,0.0,0.0,0.0,0.0,0.0,-1.3248,-1.292,-1.2559,-1.2187,-1.1765,0.0,0.0,0.0,0.0,0.0,0.0,0.0,0.0,0.0,0.0,0.0,0.0,0.0,0.0,0.0,0.0,0.0,0.0,0.0,0.0,0.0,0.0,0.0,0.0,0.0,0.0,0.0,0.0,0.0,0.0,0.0,0.0,0.0,0.0,0.0,0.0,0.0,0.0,0.0,0.0,0.0,0.0,0.0,0.0,0.0,0.0,0.0,0.0,0.0,0.0,0.0,0.0,0.0,0.0,0.0,0.0,0.0,0.0,0.0,0.0,0.0,0.0,0.0,0.0,0.0,0.0,0.0,0.0,0.0,0.0,0.0,0.0,0.0,0.0,0.0,0.0,0.0,0.0,0.0,0.0,0.0,0.0,0.0,0.0,0.0,0.0,0.0,0.0,0.0,0.0,0.0,0.0,0.0,0.0,0.0,0.0,0.0,0.0,0.0,0.0,0.0,0.0,0.0,0.0,0.0,0.0,0.0,0.0,0.0,0.0,0.0,0.0,-1.2968,-1.2608,-1.203,0.0,0.0,0.0,0.0,0.0,0.0,0.0,0.0,0.0,0.0,0.0,0.0,0.0,0.0,0.0,0.0,0.0,0.0,0.0,0.0,0.0,0.0,0.0,0.0,0.0,0.0,0.0,0.0,0.0,0.0,0.0,0.0,0.0,0.0,0.0,0.0,0.0,0.0,0.0,0.0,0.0,0.0,0.0,0.0,0.0,0.0,0.0,0.0,0.0,0.0,0.0,0.0,0.0,0.0,0.0,0.0,0.0,0.0,0.0,0.0,0.0,0.0,0.0,0.0,0.0,0.0,0.0,0.0,0.0,0.0,0.0,0.0,0.0,0.0,0.0,0.0,0.0,0.0,0.0,0.0,0.0,0.0,0.0,0.0,0.0,0.0,0.0,0.0,0.0,0.0,0.0,0.0,0.0,0.0,0.0,0.0,0.0,0.0,0.0,0.0,0.0,0.0,0.0,0.0,0.0,0.0,0.0,0.0,0.0,0.0,-1.3779,-1.3732,-1.32,0.0,-1.2774,0.0,0.0,0.0,0.0,0.0,0.0,0.0,0.0,0.0,0.0,0.0,0.0,0.0,0.0,0.0,0.0,0.0,0.0,0.0,0.0,0.0,0.0,0.0,0.0,0.0,0.0,0.0,0.0,0.0,0.0,0.0,0.0,0.0,0.0,0.0,0.0,0.0,0.0,0.0,0.0,0.0,0.0,0.0,0.0,0.0,0.0,0.0,0.0,0.0,0.0,0.0,0.0,0.0,0.0,0.0,0.0,0.0,0.0,0.0,0.0,0.0,0.0,0.0,0.0,0.0,0.0,0.0,0.0,0.0,0.0,0.0,0.0,0.0,0.0,0.0,0.0,0.0,0.0,0.0,0.0,0.0,0.0,0.0,0.0,0.0,0.0,0.0,0.0,0.0,0.0,0.0,0.0,0.0,0.0,0.0,0.0,0.0,0.0,0.0,0.0,0.0,0.0,0.0,0.0,0.0,0.0,0.0,0.0,0.0,0.0,-1.5184,-1.4812,-1.3899,-1.3238,0.0,0.0,0.0,0.0,0.0,0.0,0.0,0.0,0.0,0.0,0.0,0.0,0.0,0.0,0.0,0.0,0.0,0.0,0.0,0.0,0.0,0.0,0.0,0.0,0.0,0.0,0.0,0.0,0.0,0.0,0.0,0.0,0.0,0.0,0.0,0.0,0.0,0.0,0.0,0.0,0.0,0.0,0.0,0.0,0.0,0.0,0.0,0.0,0.0,0.0,0.0,0.0,0.0,0.0,0.0,0.0,0.0,0.0,0.0,0.0,0.0,0.0,0.0,0.0,0.0,0.0,0.0,0.0,0.0,0.0,0.0,0.0,0.0,0.0,0.0,0.0,0.0,0.0,0.0,0.0,0.0,0.0,0.0,0.0,0.0,0.0,0.0,0.0,0.0,0.0,0.0,0.0,0.0,0.0,0.0,0.0,0.0,0.0,0.0,0.0,0.0,0.0,0.0,0.0,0.0,0.0,0.0,0.0,0.0,0.0,-1.6985,-1.6268,-1.5504,-1.4378,-1.3538,-1.2962,0.0,0.0,0.0,0.0,0.0,0.0,0.0,0.0,0.0,0.0,0.0,0.0,0.0,0.0,0.0,0.0,0.0,0.0,0.0,0.0,0.0,0.0,0.0,0.0,0.0,0.0,0.0,0.0,0.0,0.0,0.0,0.0,0.0,0.0,0.0,0.0,0.0,0.0,0.0,0.0,0.0,0.0,0.0,0.0,0.0,0.0,0.0,0.0,0.0,0.0,0.0,0.0,0.0,0.0,0.0,0.0,0.0,0.0,0.0,0.0,0.0,0.0,0.0,0.0,0.0,0.0,0.0,0.0,0.0,0.0,0.0,0.0,0.0,0.0,0.0,0.0,0.0,0.0,0.0,0.0,0.0,0.0,0.0,0.0,0.0,0.0,0.0,0.0,0.0,0.0,0.0,0.0,0.0,0.0,0.0,0.0,0.0,0.0,0.0,0.0,0.0,0.0,0.0,0.0,0.0,0.0,0.0,0.0,-1.875,-1.7719,-1.6612,-1.5548,-1.4378,-1.3558,0.0,0.0,0.0,0.0,0.0,0.0,0.0,0.0,0.0,0.0,0.0,0.0,0.0,0.0,0.0,0.0,0.0,0.0,0.0,0.0,0.0,0.0,0.0,0.0,0.0,0.0,0.0,0.0,0.0,0.0,0.0,0.0,0.0,0.0,0.0,0.0,0.0,0.0,0.0,0.0,0.0,0.0,0.0,0.0,0.0,0.0,0.0,0.0,0.0,0.0,0.0,0.0,0.0,0.0,0.0,0.0,0.0,0.0,0.0,0.0,0.0,0.0,0.0,0.0,0.0,0.0,0.0,0.0,0.0,0.0,0.0,0.0,0.0,0.0,0.0,0.0,0.0,0.0,0.0,0.0,0.0,0.0,0.0,0.0,0.0,0.0,0.0,0.0,0.0,0.0,0.0,0.0,0.0,0.0,0.0,0.0,0.0,0.0,0.0,0.0,0.0,0.0,0.0,0.0,0.0,0.0,0.0,0.0,0.0,-1.8893,-1.8157,-1.7246,-1.6108,-1.4982,-1.3814,0.0,0.0,0.0,0.0,0.0,0.0,0.0,0.0,0.0,0.0,0.0,0.0,0.0,0.0,0.0,0.0,0.0,0.0,0.0,0.0,0.0,0.0,0.0,0.0,0.0,0.0,0.0,0.0,0.0,0.0,0.0,0.0,0.0,0.0,0.0,0.0,0.0,0.0,0.0,0.0,0.0,0.0,0.0,0.0,0.0,0.0,0.0,0.0,0.0,0.0,0.0,0.0,0.0,0.0,0.0,0.0,0.0,0.0,0.0,0.0,0.0,0.0,0.0,0.0,0.0,0.0,0.0,0.0,0.0,0.0,0.0,0.0,0.0,0.0,0.0,0.0,0.0,0.0,0.0,0.0,0.0,0.0,0.0,0.0,0.0,0.0,0.0,0.0,0.0,0.0,0.0,0.0,0.0,0.0,0.0,0.0,0.0,0.0,0.0,0.0,0.0,0.0,0.0,0.0,0.0,0.0,0.0,0.0,0.0,-1.893,0.0,-1.792,-1.697,-1.5872,-1.4407,0.0,0.0,0.0,0.0,0.0,0.0,0.0,0.0,0.0,0.0,0.0,0.0,0.0,0.0,0.0,0.0,0.0,0.0,0.0,0.0,0.0,0.0,0.0,0.0,0.0,0.0,0.0,0.0,0.0,0.0,0.0,0.0,0.0,0.0,0.0,0.0,0.0,0.0,0.0,0.0,0.0,0.0,0.0,0.0,0.0,0.0,0.0,0.0,0.0,0.0,0.0,0.0,0.0,0.0,0.0,0.0,0.0,0.0,0.0,0.0,0.0,0.0,0.0,0.0,0.0,0.0,0.0,0.0,0.0,0.0,0.0,0.0,0.0,0.0,0.0,0.0,0.0,0.0,0.0,0.0,0.0,0.0,0.0,0.0,0.0,0.0,0.0,0.0,0.0,0.0,0.0,0.0,0.0,0.0,0.0,0.0,0.0,0.0,0.0,0.0,0.0,0.0,0.0,0.0,0.0,0.0,0.0,0.0,-1.8893,-1.8893,-1.8893,-1.865,-1.8106,-1.6998,-1.5329,0.0,0.0,0.0,0.0,0.0,0.0,0.0,0.0,0.0,0.0,0.0,0.0,0.0,0.0,0.0,0.0,0.0,0.0,0.0,0.0,0.0,0.0,0.0,0.0,0.0,0.0,0.0,0.0,0.0,0.0,0.0,0.0,0.0,0.0,0.0,0.0,0.0,0.0,0.0,0.0,0.0,0.0,0.0,0.0,0.0,0.0,0.0,0.0,0.0,0.0,0.0,0.0,0.0,0.0,0.0,0.0,0.0,0.0,0.0,0.0,0.0,0.0,0.0,0.0,0.0,0.0,0.0,0.0,0.0,0.0,0.0,0.0,0.0,0.0,0.0,0.0,0.0,0.0,0.0,0.0,0.0,0.0,0.0,0.0,0.0,0.0,0.0,0.0,0.0,0.0,0.0,0.0,0.0,0.0,0.0,0.0,0.0,0.0,0.0,0.0,0.0,0.0,0.0,0.0,0.0,0.0,0.0,0.0,0.0,-1.8893,-1.92,-1.9148,-1.865,-1.7822,-1.6204,0.0,0.0,0.0,0.0,0.0,0.0,0.0,0.0,0.0,0.0,0.0,0.0,0.0,0.0,0.0,0.0,0.0,0.0,0.0,0.0,0.0,0.0,0.0,0.0,0.0,0.0,0.0,0.0,0.0,0.0,0.0,0.0,0.0,0.0,0.0,0.0,0.0,0.0,0.0,0.0,0.0,0.0,0.0,0.0,0.0,0.0,0.0,0.0,0.0,0.0,0.0,0.0,0.0,0.0,0.0,0.0,0.0,0.0,0.0,0.0,0.0,0.0,0.0,0.0,0.0,0.0,0.0,0.0,0.0,0.0,0.0,0.0,0.0,0.0,0.0,0.0,0.0,0.0,0.0,0.0,0.0,0.0,0.0,0.0,0.0,0.0,0.0,0.0,0.0,0.0,0.0,0.0,0.0,0.0,0.0,0.0,0.0,0.0,0.0,0.0,0.0,0.0,0.0,0.0,0.0,0.0,0.0,0.0,0.0,-1.8288,-1.9133,-1.9477,-1.9177,-1.872,-1.7312,-1.4869,0.0,0.0,0.0,0.0,0.0,0.0,0.0,0.0,0.0,0.0,0.0,0.0,0.0,0.0,0.0,0.0,0.0,0.0,0.0,0.0,0.0,0.0,0.0,0.0,0.0,0.0,0.0,0.0,0.0,0.0,0.0,0.0,0.0,0.0,0.0,0.0,0.0,0.0,0.0,0.0,0.0,0.0,0.0,0.0,0.0,0.0,0.0,0.0,0.0,0.0,0.0,0.0,0.0,0.0,0.0,0.0,0.0,0.0,0.0,0.0,0.0,0.0,0.0,0.0,0.0,0.0,0.0,0.0,0.0,0.0,0.0,0.0,0.0,0.0,0.0,0.0,0.0,0.0,0.0,0.0,0.0,0.0,0.0,0.0,0.0,0.0,0.0,0.0,0.0,0.0,0.0,0.0,0.0,0.0,0.0,0.0,0.0,0.0,0.0,0.0,0.0,0.0,0.0,0.0,0.0,0.0,0.0,0.0,-1.7271,-1.8731,-1.9498,-1.9534,-1.9621,-1.8521,0.0,0.0,0.0,0.0,0.0,0.0,0.0,0.0,0.0,0.0,0.0,0.0,0.0,0.0,0.0,0.0,0.0,0.0,0.0,0.0,0.0,0.0,0.0,0.0,0.0,0.0,0.0,0.0,0.0,0.0,0.0,0.0,0.0,0.0,0.0,0.0,0.0,0.0,0.0,0.0,0.0,0.0,0.0,0.0,0.0,0.0,0.0,0.0,0.0,0.0,0.0,0.0,0.0,0.0,0.0,0.0,0.0,0.0,0.0,0.0,0.0,0.0,0.0,0.0,0.0,0.0,0.0,0.0,0.0,0.0,0.0,0.0,0.0,0.0,0.0,0.0,0.0,0.0,0.0,0.0,0.0,0.0,0.0,0.0,0.0,0.0,0.0,0.0,0.0,0.0,0.0,0.0,0.0,0.0,0.0,0.0,0.0,0.0,0.0,0.0,0.0,0.0,0.0,0.0,0.0,0.0,0.0,0.0,0.0,-1.6646,-1.7716,-1.8503,-1.9051,-1.9778,-1.9316,0.0,0.0,0.0,0.0,0.0,0.0,0.0,0.0,0.0,0.0,0.0,0.0,0.0,0.0,0.0,0.0,0.0,0.0,0.0,0.0,0.0,0.0,0.0,0.0,0.0,0.0,0.0,0.0,0.0,0.0,0.0,0.0,0.0,0.0,0.0,0.0,0.0,0.0,0.0,0.0,0.0,0.0,0.0,0.0,0.0,0.0,0.0,0.0,0.0,0.0,0.0,0.0,0.0,0.0,0.0,0.0,0.0,0.0,0.0,0.0,0.0,0.0,0.0,0.0,0.0,0.0,0.0,0.0,0.0,0.0,0.0,0.0,0.0,0.0,0.0,0.0,0.0,0.0,0.0,0.0,0.0,0.0,0.0,0.0,0.0,0.0,0.0,0.0,0.0,0.0,0.0,0.0,0.0,0.0,0.0,0.0,0.0,0.0,0.0,0.0,0.0,0.0,0.0,0.0,0.0,0.0,0.0,0.0,-1.5005,-1.5652,-1.6687,-1.7504,-1.8182,-1.9555,-1.9783,0.0,0.0,0.0,0.0,0.0,0.0,0.0,0.0,0.0,0.0,0.0,0.0,0.0,0.0,0.0,0.0,0.0,0.0,0.0,0.0,0.0,0.0,0.0,0.0,0.0,0.0,0.0,0.0,0.0,0.0,0.0,0.0,0.0,0.0,0.0,0.0,0.0,0.0,0.0,0.0,0.0,0.0,0.0,0.0,0.0,0.0,0.0,0.0,0.0,0.0,0.0,0.0,0.0,0.0,0.0,0.0,0.0,0.0,0.0,0.0,0.0,0.0,0.0,0.0,0.0,0.0,0.0,0.0,0.0,0.0,0.0,0.0,0.0,0.0,0.0,0.0,0.0,0.0,0.0,0.0,0.0,0.0,0.0,0.0,0.0,0.0,0.0,0.0,0.0,0.0,0.0,0.0,0.0,0.0,0.0,0.0,0.0,0.0,0.0,0.0,0.0,0.0,0.0,0.0,0.0,0.0,0.0,0.0,-1.456,-1.4617,-1.5728,-1.6579,-1.7206,-1.9112,-1.9989,0.0,0.0,0.0,0.0,0.0,0.0,0.0,0.0,0.0,0.0,0.0,0.0,0.0,0.0,0.0,0.0,0.0,0.0,0.0,0.0,0.0,0.0,0.0,0.0,0.0,0.0,0.0,0.0,0.0,0.0,0.0,0.0,0.0,0.0,0.0,0.0,0.0,0.0,0.0,0.0,0.0,0.0,0.0,0.0,0.0,0.0,0.0,0.0,0.0,0.0,0.0,0.0,0.0,0.0,0.0,0.0,0.0,0.0,0.0,0.0,0.0,0.0,0.0,0.0,0.0,0.0,0.0,0.0,0.0,0.0,0.0,0.0,0.0,0.0,0.0,0.0,0.0,0.0,0.0,0.0,0.0,0.0,0.0,0.0,0.0,0.0,0.0,0.0,0.0,0.0,0.0,0.0,0.0,0.0,0.0,0.0,0.0,0.0,0.0,0.0,0.0,0.0,0.0,0.0,0.0,0.0,0.0,0.0,-1.3515,-1.3993,-1.5083,-1.62,-1.7179,-1.8517,-1.9339,0.0,0.0,0.0,0.0,0.0,0.0,0.0,0.0,0.0,0.0,0.0,0.0,0.0,0.0,0.0,0.0,0.0,0.0,0.0,0.0,0.0,0.0,0.0,0.0,0.0,0.0,0.0,0.0,0.0,0.0,0.0,0.0,0.0,0.0,0.0,0.0,0.0,0.0,0.0,0.0,0.0,0.0,0.0,0.0,0.0,0.0,0.0,0.0,-0.5693,0.0,0.0,0.0,0.0,0.0,0.0,0.0,0.0,0.0,0.0,0.0,0.0,0.0,0.0,0.0,0.0,0.0,0.0,0.0,0.0,0.0,0.0,0.0,0.0,0.0,0.0,0.0,0.0,0.0,0.0,0.0,0.0,0.0,0.0,0.0,0.0,0.0,0.0,0.0,0.0,0.0,0.0,0.0,0.0,0.0,0.0,0.0,0.0,0.0,0.0,0.0,0.0,0.0,0.0,0.0,0.0,0.0,0.0,0.0,-1.253,-1.289,-1.431,-1.5528,-1.6401,-1.7759,-1.8893,0.0,0.0,0.0,0.0,0.0,0.0,0.0,0.0,0.0,0.0,0.0,0.0,0.0,0.0,0.0,0.0,0.0,0.0,0.0,0.0,0.0,0.0,0.0,0.0,0.0,0.0,0.0,0.0,0.0,0.0,0.0,0.0,0.0,0.0,0.0,0.0,0.0,0.0,0.0,0.0,0.0,0.0,0.0,0.0,0.0,0.0,0.0,0.0,0.0,0.0,0.0,0.0,0.0,0.0,0.0,0.0,0.0,0.0,0.0,0.0,0.0,0.0,0.0,0.0,0.0,0.0,0.0,0.0,0.0,0.0,0.0,0.0,0.0,0.0,0.0,0.0,0.0,0.0,0.0,0.0,0.0,0.0,0.0,0.0,0.0,0.0,0.0,0.0,0.0,0.0,0.0,0.0,0.0,0.0,0.0,0.0,0.0,0.0,0.0,0.0,0.0,0.0,0.0,0.0,0.0,0.0,0.0,-1.1458,-1.1814,-1.1864,-1.369,-1.4949,-1.5504,-1.7109,-1.8458,-1.9406,0.0,0.0,0.0,0.0,0.0,0.0,0.0,0.0,0.0,0.0,0.0,0.0,0.0,0.0,0.0,0.0,0.0,0.0,0.0,0.0,0.0,0.0,0.0,0.0,0.0,0.0,0.0,0.0,0.0,0.0,0.0,0.0,0.0,0.0,0.0,0.0,0.0,0.0,-0.3764,-0.4797,0.0,0.0,0.0,0.0,0.0,0.0,0.0,0.0,-0.6074,0.0,0.0,0.0,0.0,0.0,0.0,0.0,0.0,0.0,0.0,0.0,0.0,0.0,0.0,0.0,0.0,0.0,0.0,0.0,0.0,0.0,0.0,0.0,0.0,0.0,0.0,0.0,0.0,0.0,0.0,0.0,0.0,0.0,0.0,0.0,0.0,0.0,0.0,0.0,0.0,0.0,0.0,0.0,0.0,0.0,0.0,0.0,0.0,0.0,0.0,0.0,0.0,0.0,0.0,0.0,0.0,-1.0864,-1.1458,-1.1814,-1.1814,-1.369,-1.4937,-1.5504,-1.676,-1.7706,-1.8341,0.0,0.0,0.0,0.0,0.0,0.0,0.0,0.0,0.0,0.0,0.0,0.0,0.0,0.0,0.0,0.0,0.0,0.0,0.0,0.0,0.0,0.0,0.0,0.0,0.0,0.0,0.0,0.0,0.0,0.0,0.0,0.0,0.0,0.0,0.0,0.0,0.0,0.0,0.0,-0.5072,-0.5728,0.0,0.0,0.0,0.0,0.0,0.0,0.0,0.0,-0.6044,0.0,0.0,0.0,0.0,0.0,0.0,0.0,0.0,0.0,0.0,0.0,0.0,0.0,0.0,0.0,0.0,0.0,0.0,0.0,0.0,0.0,0.0,0.0,0.0,0.0,0.0,0.0,0.0,0.0,0.0,0.0,0.0,0.0,0.0,0.0,0.0,0.0,0.0,0.0,0.0,0.0,0.0,0.0,0.0,0.0,0.0,0.0,0.0,0.0,0.0,0.0,0.0,0.0,0.0,0.0,-1.0415,-1.0618,-1.0762,-1.0813,-1.2706,-1.3986,-1.4552,-1.6053,-1.712,0.0,0.0,0.0,0.0,0.0,0.0,0.0,0.0,0.0,0.0,0.0,0.0,0.0,0.0,0.0,0.0,0.0,0.0,0.0,0.0,0.0,0.0,0.0,0.0,0.0,0.0,0.0,0.0,0.0,0.0,0.0,0.0,0.0,0.0,0.0,0.0,0.0,0.0,0.0,0.0,-0.5081,-0.5718,-0.5789,0.0,0.0,0.0,0.0,0.0,0.0,-0.5922,-0.6051,0.0,0.0,0.0,0.0,0.0,0.0,0.0,0.0,0.0,0.0,0.0,0.0,0.0,0.0,0.0,0.0,0.0,0.0,0.0,0.0,0.0,0.0,0.0,0.0,0.0,0.0,0.0,0.0,0.0,0.0,0.0,0.0,0.0,0.0,0.0,0.0,0.0,0.0,0.0,0.0,0.0,0.0,0.0,0.0,0.0,0.0,0.0,0.0,0.0,0.0,0.0,0.0,0.0,0.0,0.0,-0.9666,-0.971,-0.9821,-0.9865,-1.1787,-1.309,-1.3695,-1.5472,-1.6689,0.0,0.0,0.0,0.0,0.0,0.0,0.0,0.0,0.0,0.0,0.0,0.0,0.0,0.0,0.0,0.0,0.0,0.0,0.0,0.0,0.0,0.0,0.0,0.0,0.0,0.0,0.0,0.0,0.0,0.0,0.0,0.0,0.0,0.0,0.0,0.0,0.0,0.0,0.0,0.0,0.0,-0.5755,-0.5833,-0.5725,0.0,0.0,0.0,0.0,-0.5805,-0.5956,0.0,0.0,0.0,0.0,0.0,0.0,0.0,0.0,0.0,0.0,0.0,0.0,0.0,0.0,0.0,0.0,0.0,0.0,0.0,0.0,0.0,0.0,0.0,0.0,0.0,0.0,0.0,0.0,0.0,0.0,0.0,0.0,0.0,0.0,0.0,0.0,0.0,0.0,0.0,0.0,0.0,0.0,0.0,0.0,0.0,0.0,0.0,0.0,0.0,0.0,0.0,0.0,0.0,0.0,0.0,0.0,-0.9054,-0.951,-0.9821,-0.9865,-1.1729,-1.31,-1.3705,-1.5472,-1.6701,0.0,0.0,0.0,0.0,0.0,0.0,0.0,0.0,0.0,0.0,0.0,0.0,0.0,0.0,0.0,0.0,0.0,0.0,0.0,0.0,0.0,0.0,0.0,0.0,0.0,0.0,0.0,0.0,0.0,0.0,0.0,0.0,0.0,0.0,0.0,0.0,0.0,0.0,0.0,0.0,0.0,-0.6139,-0.602,-0.5871,-0.5823,0.0,0.0,-0.5854,-0.5922,-0.6139,0.0,0.0,0.0,0.0,0.0,0.0,0.0,0.0,0.0,0.0,0.0,0.0,0.0,0.0,0.0,0.0,0.0,0.0,0.0,0.0,0.0,0.0,0.0,0.0,0.0,0.0,0.0,0.0,0.0,0.0,0.0,0.0,0.0,0.0,0.0,0.0,0.0,0.0,0.0,0.0,0.0,0.0,0.0,0.0,0.0,0.0,0.0,0.0,0.0,0.0,0.0,0.0,0.0,0.0,0.0,-1.1197,-0.9413,-0.8876,-0.8778,-0.9263,-1.0018,-1.1329,-1.3067,-1.4541,-1.5783,0.0,0.0,0.0,0.0,0.0,0.0,0.0,0.0,0.0,0.0,0.0,0.0,0.0,0.0,0.0,0.0,0.0,0.0,0.0,0.0,0.0,0.0,0.0,0.0,0.0,0.0,0.0,0.0,0.0,0.0,0.0,0.0,0.0,0.0,0.0,0.0,0.0,0.0,0.0,0.0,0.0,0.0,-0.6146,-0.603,0.0,0.0,0.0,-0.5956,-0.602,0.0,0.0,0.0,0.0,0.0,0.0,0.0,0.0,0.0,0.0,0.0,0.0,0.0,0.0,0.0,0.0,0.0,0.0,0.0,0.0,0.0,0.0,0.0,0.0,0.0,0.0,0.0,0.0,0.0,0.0,0.0,0.0,0.0,0.0,0.0,0.0,0.0,0.0,0.0,0.0,0.0,0.0,0.0,0.0,0.0,0.0,0.0,0.0,0.0,0.0,0.0,0.0,0.0,0.0,0.0,0.0,0.0,-0.9562,-0.8355,-0.7996,-0.848,-0.8646,-0.9819,-1.2156,-1.3825,0.0,0.0,0.0,0.0,0.0,0.0,0.0,0.0,0.0,0.0,0.0,0.0,0.0,0.0,0.0,0.0,0.0,0.0,0.0,0.0,0.0,0.0,0.0,0.0,0.0,0.0,0.0,-0.2936,0.0,0.0,0.0,0.0,0.0,0.0,0.0,0.0,0.0,0.0,0.0,0.0,0.0,0.0,-0.5942,-0.6173,-0.6105,-0.604,0.0,0.0,-0.5986,-0.5952,-0.5974,-0.5978,0.0,0.0,0.0,0.0,0.0,0.0,0.0,0.0,0.0,0.0,0.0,0.0,0.0,0.0,0.0,0.0,0.0,0.0,0.0,0.0,0.0,0.0,0.0,0.0,0.0,0.0,0.0,0.0,0.0,0.0,0.0,0.0,0.0,0.0,0.0,0.0,0.0,0.0,0.0,0.0,0.0,0.0,0.0,0.0,0.0,0.0,0.0,0.0,0.0,0.0,0.0,0.0,0.0,0.0,-1.1282,-0.8935,-0.8103,-0.7723,-0.783,-0.8376,-0.9364,-1.0822,-1.3683,-1.5568,0.0,0.0,0.0,0.0,0.0,0.0,0.0,0.0,0.0,0.0,0.0,0.0,0.0,0.0,0.0,0.0,0.0,0.0,0.0,0.0,0.0,0.0,0.0,0.0,0.0,0.0,0.0,0.0,0.0,0.0,0.0,0.0,0.0,0.0,0.0,0.0,0.0,0.0,0.0,0.0,0.0,-0.6023,-0.6044,-0.6037,-0.6081,0.0,-0.6,-0.5864,-0.6006,-0.5901,-0.5762,-0.564,0.0,0.0,0.0,0.0,0.0,0.0,0.0,0.0,0.0,0.0,0.0,0.0,0.0,0.0,0.0,0.0,0.0,0.0,0.0,0.0,0.0,0.0,0.0,0.0,0.0,0.0,0.0,0.0,0.0,0.0,0.0,0.0,0.0,0.0,0.0,0.0,0.0,0.0,0.0,0.0,0.0,0.0,0.0,0.0,0.0,0.0,0.0,0.0,0.0,0.0,0.0,0.0,0.0,-1.2937,-1.0026,-0.8894,-0.8343,-0.8368,-0.8593,-0.9717,-1.1874,-1.3804,-1.5248,0.0,0.0,0.0,0.0,0.0,0.0,0.0,0.0,0.0,0.0,0.0,0.0,0.0,0.0,0.0,0.0,0.0,0.0,0.0,0.0,0.0,0.0,0.0,0.0,0.0,0.0,0.0,0.0,-0.3374,-0.2732,-0.223,0.0,0.0,0.0,0.0,0.0,0.0,0.0,0.0,0.0,0.0,-0.6064,-0.6159,-0.6173,0.0,0.0,-0.6235,-0.6067,-0.6037,-0.5825,-0.5708,-0.5728,-0.5647,0.0,0.0,0.0,0.0,0.0,0.0,0.0,0.0,0.0,0.0,0.0,0.0,0.0,0.0,0.0,0.0,0.0,0.0,0.0,0.0,0.0,0.0,0.0,0.0,0.0,0.0,0.0,0.0,0.0,0.0,0.0,0.0,0.0,0.0,0.0,0.0,0.0,0.0,0.0,0.0,0.0,0.0,0.0,0.0,0.0,0.0,0.0,0.0,0.0,0.0,0.0,0.0,-1.4642,-1.1631,-1.0232,-0.9416,-0.9093,-0.9245,-1.0338,-1.255,-1.4169,-1.5463,0.0,0.0,0.0,0.0,0.0,0.0,0.0,0.0,0.0,0.0,0.0,0.0,0.0,0.0,0.0,0.0,0.0,0.0,0.0,0.0,0.0,0.0,0.0,0.0,0.0,0.0,0.0,0.0,-0.4177,-0.34,-0.2621,0.0,0.0,0.0,0.0,0.0,0.0,0.0,0.0,0.0,0.0,-0.6084,-0.6237,-0.6261,-0.6261,-0.6261,-0.6224,-0.6152,-0.6047,-0.5865,-0.5795,-0.5867,0.0,0.0,0.0,0.0,0.0,0.0,0.0,0.0,0.0,0.0,0.0,0.0,0.0,0.0,0.0,0.0,0.0,0.0,0.0,0.0,0.0,0.0,0.0,0.0,0.0,0.0,0.0,-1.7294,0.0,0.0,-1.0217,0.0,0.0,0.0,0.0,0.0,0.0,0.0,0.0,0.0,0.0,0.0,0.0,0.0,0.0,0.0,0.0,0.0,0.0,0.0,0.0,0.0,0.0,-1.6154,-1.3684,-1.2221,-1.0887,-0.9775,-1.0354,-1.1274,-1.2565,-1.4903,-1.641,-1.6991,0.0,0.0,0.0,0.0,0.0,0.0,0.0,0.0,0.0,0.0,0.0,0.0,0.0,0.0,0.0,0.0,0.0,0.0,0.0,0.0,0.0,0.0,0.0,0.0,0.0,0.0,-0.5542,-0.4893,-0.4184,0.0,0.0,0.0,0.0,0.0,0.0,0.0,0.0,0.0,-0.7143,-0.6537,-0.6088,-0.6314,-0.6261,-0.6268,-0.6264,-0.6146,-0.6044,-0.6044,-0.5956,-0.6027,0.0,0.0,0.0,0.0,0.0,0.0,0.0,0.0,0.0,0.0,0.0,0.0,0.0,0.0,0.0,0.0,0.0,0.0,0.0,0.0,0.0,0.0,0.0,0.0,0.0,0.0,0.0,-1.8615,-1.7635,0.0,0.0,0.0,0.0,0.0,0.0,0.0,0.0,0.0,0.0,0.0,-0.881,-1.6003,0.0,0.0,0.0,0.0,0.0,0.0,0.0,0.0,0.0,0.0,0.0,0.0,-1.8787,-1.5828,-1.4363,-1.3001,-1.1768,-1.2282,-1.3447,-1.5145,-1.6731,-1.7955,-1.8675,0.0,0.0,0.0,0.0,0.0,0.0,0.0,0.0,0.0,0.0,0.0,0.0,0.0,0.0,0.0,0.0,0.0,0.0,0.0,0.0,0.0,0.0,0.0,0.0,0.0,-0.7507,0.0,0.0,0.0,0.0,0.0,0.0,0.0,0.0,0.0,0.0,0.0,-0.6316,-0.7501,-0.6783,-0.643,-0.7165,-0.6805,-0.64,0.0,0.0,0.0,0.0,0.0,0.0,0.0,0.0,0.0,0.0,0.0,0.0,0.0,0.0,-0.0185,0.0585,0.1296,0.2157,0.3644,0.0,0.0,0.0,0.0,0.0,0.0,0.0,0.0,0.0,0.0,0.0,0.0,0.0,0.0,-1.9428,-1.8103,-1.8531,0.0,0.0,0.0,0.0,0.0,0.0,0.0,0.0,-1.3042,-1.5001,-1.6126,-2.0811,-2.2409,0.0,-2.1126,-2.0671,0.0,0.0,0.0,0.0,0.0,0.0,0.0,0.0,-2.1027,-1.8184,-1.6528,-1.4952,-1.3486,-1.3772,-1.484,-1.6599,-1.849,-1.9641,-1.9788,-1.9375,-1.8993,0.0,0.0,0.0,0.0,0.0,0.0,0.0,0.0,0.0,0.0,0.0,0.0,0.0,0.0,0.0,0.0,0.0,0.0,0.0,0.0,0.0,0.0,0.0,-0.8187,0.0,0.0,0.0,0.0,0.0,0.0,0.0,0.0,0.0,-0.5949,-0.6047,-0.6561,-0.7861,-0.7013,-0.6662,-0.7794,0.0,0.0,0.0,0.0,0.0,0.0,0.0,-0.6525,-0.6614,-0.6619,-0.6541,-0.63,-0.4829,-0.3126,-0.1885,0.0,0.0,0.1607,0.2169,0.2996,0.4845,0.5698,0.6285,0.6857,0.7041,0.7112,0.0,0.0,0.0,0.0,0.0,0.0,0.0,0.0,-2.195,-2.07,0.0,-1.8369,0.0,0.0,0.0,0.0,-1.8846,-2.2264,0.0,0.0,-2.3457,-2.3725,-2.316,-2.3028,-2.279,-2.2426,-2.1809,-2.1814,-2.2361,-2.1173,0.0,0.0,0.0,0.0,0.0,0.0,-2.2783,-2.0471,-1.8624,-1.6649,-1.4665,-1.4539,-1.531,-1.693,-1.9957,-2.1145,-2.0365,-2.055,-2.0,-1.8316,-1.9092,0.0,0.0,0.0,0.0,0.0,0.0,0.0,0.0,0.0,0.0,0.0,0.0,0.0,0.0,0.0,0.0,0.0,0.0,0.0,0.0,-0.9923,0.0,0.0,0.0,0.0,0.0,0.0,0.0,0.0,0.0,-0.6274,-0.6349,-0.6271,-0.6838,-0.8187,0.0,0.0,0.0,0.0,-0.6481,-0.6485,-0.661,-0.6709,-0.6709,-0.6831,-0.6932,-0.6932,0.0,0.0,-0.5305,-0.4195,-0.3115,-0.1763,-0.0669,0.0394,0.1696,0.2703,0.3887,0.5477,0.6379,0.7035,0.7319,0.7238,0.7156,-1.5273,0.0,0.0,0.0,0.0,-2.3082,-2.2988,-2.2471,-2.2464,-2.1524,-1.9935,-1.9581,0.0,0.0,0.0,0.0,0.0,0.0,-2.383,-2.4341,-2.4728,-2.4794,-2.4543,-2.4345,-2.3904,-2.3208,-2.2237,-2.1669,-2.1428,-2.0452,-2.0825,-2.2508,0.0,0.0,0.0,0.0,-2.2842,-2.0878,-1.8865,-1.6745,-1.4462,-1.3073,-1.4117,-1.7657,-1.8285,-1.9626,-2.1806,-1.9117,-1.7856,-1.844,-1.8295,0.0,0.0,0.0,0.0,0.0,0.0,0.0,0.0,0.0,0.0,0.0,0.0,0.0,0.0,0.0,0.0,0.0,0.0,0.0,-1.1139,-0.9267,-0.8386,0.0,0.0,0.0,0.0,0.0,0.0,0.0,0.0,0.0,-0.6573,-0.6478,-0.6878,0.0,0.0,-0.6698,-0.7865,-0.7204,-0.6634,-0.6634,-0.6766,0.0,-0.6861,-0.6807,-0.6809,-0.6991,-0.6483,-0.5559,-0.4256,-0.3163,-0.1994,-0.0662,-0.0191,0.0385,0.1736,0.218,0.3064,0.4963,0.5756,0.6312,0.7171,0.7333,0.7302,-2.1437,-1.9028,-2.1343,-2.1763,-2.1002,-2.1815,-2.2203,-2.2271,-2.2262,-2.1729,-2.0788,-2.0302,-1.9219,-1.7826,-1.8815,0.0,0.0,0.0,-2.4226,-2.4815,-2.5177,-2.5297,-2.5195,-2.4935,-2.4335,-2.3455,-2.2185,-2.1438,-2.1137,-2.0226,-2.0371,-2.1512,0.0,0.0,-2.3163,-2.3451,-2.2948,-2.1616,-1.9028,-1.6515,-1.4098,-1.0867,-0.9975,-1.1603,-1.2292,-1.418,-1.7386,-1.4979,-1.4914,-1.7833,-1.7116,-1.6677,0.0,0.0,0.0,0.0,0.0,0.0,0.0,0.0,0.0,0.0,0.0,-1.4821,-1.4981,0.0,0.0,0.0,-1.1622,-1.0865,-1.0115,-0.8821,0.0,0.0,0.0,0.0,0.0,0.0,0.0,-0.8252,-0.7859,-0.7424,-0.7357,-0.6887,-0.6925,-0.8139,-0.7149,-0.6698,-0.7949,0.0,-0.661,-0.6607,-0.6742,-0.6837,-0.6841,-0.6386,-0.6016,-0.5725,-0.5203,-0.4365,-0.3097,-0.1944,-0.0939,-0.0188,0.0377,0.0847,0.1129,0.1111,0.183,0.43,0.4865,0.525,0.645,0.6681,0.6734,-2.3397,-2.4427,-2.277,-2.0914,-1.9148,-2.0032,-2.0838,-2.1479,-2.1485,-2.1383,-2.1166,-2.0541,-1.9793,-1.9067,-2.0635,0.0,-2.3676,-2.4529,-2.4867,-2.4826,-2.5194,-2.5375,-2.5339,-2.4959,-2.4226,-2.3199,-2.1713,-2.1065,-2.1093,-2.0147,-1.961,-1.9547,-2.04,-2.1522,-2.2799,-2.2954,-2.2857,-2.2552,-1.9068,-1.5894,-1.3042,-0.7778,-0.393,-0.1798,-0.3674,-0.6167,-0.9023,-0.8984,-1.1125,-1.5723,-1.5169,-1.4619,-1.4643,0.0,0.0,0.0,0.0,0.0,0.0,0.0,0.0,0.0,0.0,0.0,0.0,0.0,0.0,-1.0161,-0.926,0.0,-0.8622,-0.8193,0.0,0.0,0.0,-0.6925,-0.7101,-0.7914,-0.8423,-0.8272,0.0,0.0,-0.8237,-0.7193,-0.6914,-0.8093,-0.7134,-0.6702,-0.7874,-0.719,-0.6474,-0.6481,-0.659,-0.6678,-0.6433,-0.5613,-0.4732,-0.3961,-0.351,-0.3019,-0.1873,-0.0632,0.0092,0.0184,0.1014,0.1382,0.0185,0.0,0.0727,0.3184,0.3625,0.404,0.5134,0.534,0.5547,-2.1167,-2.2314,-1.9226,-1.7134,-1.6018,-1.8106,-1.8901,-1.8847,-2.0022,-2.051,-2.0492,-2.0717,-2.0699,-2.0503,-2.1495,-2.2326,-2.3117,-2.4048,-2.4589,-2.48,-2.4997,-2.5124,-2.5159,-2.4765,-2.391,-2.2648,-2.1148,-1.998,-1.9165,-1.8172,-1.7847,-1.8049,-1.7717,-1.8455,-2.0177,-2.0823,-2.1359,-2.1764,-1.8627,-1.379,-0.7344,-0.244,0.0255,0.0588,0.126,0.0075,-0.3036,-0.3273,-0.492,-0.8286,-0.9935,-1.1368,-1.2658,-1.3443,0.0,0.0,0.0,0.0,0.0,0.0,0.0,0.0,0.0,-1.443,-1.4128,0.0,-0.9342,0.0,-0.7859,-0.6354,-0.5555,-0.5008,0.0,0.0,-0.6693,-0.7156,-0.9204,-0.9437,-0.9182,-0.8634,-0.8429,-0.8,-0.7101,-0.6652,-0.6603,-0.6767,-0.6535,-0.6464,-0.6846,-0.6711,-0.6474,-0.6474,-0.6502,-0.6283,-0.5392,-0.4557,-0.3857,-0.363,-0.28,-0.1796,-0.0608,0.0612,0.1325,0.1347,0.1533,0.1353,0.0181,0.0,0.0,0.0818,0.1629,0.2612,0.3778,0.403,0.4105,-1.8121,-2.0361,-1.5746,-1.3129,-1.232,-1.5413,-1.7009,-1.7567,-1.8973,-2.0008,-2.0719,-2.1271,-2.1484,-2.1536,-2.2169,-2.2787,-2.346,-2.4494,-2.4895,-2.4824,-2.507,-2.5163,-2.5112,-2.4648,-2.3648,-2.2189,-2.0693,-1.9371,-1.8214,-1.7006,-1.6425,-1.6557,-1.612,-1.6254,-1.6993,-1.828,-1.9375,-2.0157,-1.5637,-1.011,-0.3656,0.1854,0.6096,0.9025,0.96,0.7617,0.2895,0.1563,-0.149,-0.6576,-0.8567,-0.9845,-1.0532,-1.137,-1.2627,0.0,0.0,0.0,0.0,0.0,0.0,0.0,0.0,0.0,0.0,0.0,-0.8484,-0.7665,-0.6071,-0.4873,-0.4384,-0.3697,-0.4006,-0.5839,-0.5827,-0.6428,-0.8332,-0.8905,-0.8937,-0.863,-0.8319,-0.793,-0.7354,-0.6731,-0.6349,-0.6349,-0.6261,-0.6366,-0.6438,-0.638,-0.638,-0.6458,-0.6376,-0.5817,-0.4384,-0.3737,-0.3055,-0.215,-0.1,-0.0084,0.0596,0.1721,0.2349,0.1848,0.1778,0.1433,0.0,0.0,0.0,0.0,0.0539,0.1433,0.2503,0.2771,0.2858,-1.4824,-1.8426,-1.2349,-0.9182,-0.8507,-1.213,-1.4763,-1.6667,-1.8018,-1.9637,-2.1365,-2.2057,-2.2383,-2.2394,-2.3009,-2.3586,-2.4195,-2.5277,-2.5434,-2.4842,-2.5168,-2.5274,-2.512,-2.4532,-2.3435,-2.1842,-2.0242,-1.8824,-1.7581,-1.5944,-1.5077,-1.4858,-1.4559,-1.4141,-1.3696,-1.5308,-1.6781,-1.7913,-1.2017,-0.6381,-0.1132,0.5029,1.1684,1.8607,1.8342,1.5042,0.8932,0.5736,0.064,-0.6749,-0.8707,-0.9375,-0.8935,-0.9872,-1.0813,0.0,-1.2329,0.0,0.0,0.0,0.0,0.0,0.0,0.0,0.0,-1.0997,-0.7828,-0.5417,-0.4515,-0.3999,-0.4077,-0.3145,-0.3147,-0.4543,-0.4731,-0.5203,-0.6425,-0.7647,-0.8286,-0.8204,-0.8129,-0.8098,-0.7853,-0.6954,-0.6261,-0.6261,-0.6261,-0.6183,-0.6106,-0.619,-0.6271,-0.6261,-0.6022,-0.5015,-0.3526,-0.2864,-0.2017,-0.0162,0.0819,0.1664,0.2,0.2718,0.302,0.2082,0.1854,0.1432,0.027,0.0,0.0,0.0,-0.009,0.0359,0.1254,0.1612,0.1879,-1.2221,-1.631,-0.9402,-0.5976,-0.5499,-0.7772,-1.0902,-1.4461,-1.6561,-1.8965,-2.1573,-2.3214,-2.3824,-2.3659,-2.4908,-2.5211,-2.4766,-2.5418,-2.538,-2.481,-2.4868,-2.4885,-2.4828,-2.4316,-2.331,-2.1839,-1.984,-1.7891,-1.603,-1.3942,-1.2764,-1.234,-1.1022,-1.0581,-1.1084,0.0,0.0,0.0,-1.1422,-0.6235,0.0649,0.6097,1.2634,2.0218,2.0835,0.0,1.4883,0.9158,0.3516,-0.1963,-0.6493,0.0,0.0,0.0,0.0,0.0,0.0,0.0,0.0,0.0,0.0,0.0,-1.4037,-1.3232,-1.3673,-1.0745,-0.795,-0.5905,-0.4759,-0.3953,-0.3379,-0.1638,-0.1682,-0.4423,-0.4188,-0.4493,-0.6404,-0.7535,-0.778,-0.6987,-0.7477,-0.7533,-0.6843,-0.643,-0.6338,-0.6261,-0.6261,-0.5941,-0.5157,-0.5709,-0.6257,-0.618,-0.4921,-0.3671,-0.3202,-0.173,-0.0474,0.1027,0.1424,0.2319,0.382,0.3654,0.3396,0.3014,0.2381,0.1343,0.018,0.0,-0.0449,-0.1254,-0.0718,0.009,0.0269,0.0359,0.0449,-0.554,-0.7272,-0.3791,-0.1696,0.0,-0.4053,-0.7289,-1.0807,-1.492,-1.8728,-2.2175,-2.3676,-2.4147,-2.3858,-2.511,-2.5673,-2.5727,-2.6131,-2.5937,-2.527,-2.5355,-2.5356,-2.5279,-2.4627,-2.3493,-2.1937,-1.9735,-1.7188,-1.4431,-1.2396,-1.1319,-1.1101,-0.9703,-0.8907,-0.8792,-0.9539,-1.14,-1.4385,-1.0937,-0.6828,-0.2021,0.4115,1.1699,2.0529,2.0388,0.0,0.0,0.0,0.0,0.0,0.0,0.0,0.0,0.0,0.0,-1.438,-1.4616,-1.5434,-1.6959,-1.6241,-1.5773,-1.5913,-1.3789,-1.231,-1.2058,-1.0033,-0.8413,-0.7504,-0.6094,-0.524,-0.5269,-0.3352,-0.301,-0.5156,-0.4656,-0.4695,-0.6231,-0.6885,-0.6988,-0.652,-0.6765,-0.6872,-0.6335,-0.6261,-0.6261,-0.6257,-0.5789,-0.5318,-0.4844,-0.5157,-0.5392,-0.4846,-0.3904,-0.2968,-0.2423,-0.1644,-0.0157,0.1176,0.2035,0.3139,0.5143,0.429,0.3222,0.3087,0.1544,-0.0352,-0.1412,-0.1689,-0.1969,-0.2415,-0.1701,-0.0893,-0.0886,-0.0445,0.0,0.1703,0.2676,0.2663,0.3023,0.3369,-0.037,-0.4404,-0.8822,-1.4439,0.0,0.0,-2.4046,-2.4408,-2.4149,-2.49,-2.5797,-2.6735,-2.6563,-2.621,-2.5755,-2.5804,-2.5841,-2.5803,-2.499,-2.3677,-2.1952,-1.9501,-1.6473,-1.294,-1.1067,-1.0098,-0.979,-0.8468,-0.7456,-0.6898,-0.8221,-1.039,-1.3195,-1.026,-0.7271,-0.4523,0.183,0.9921,1.9709,1.9153,1.6261,1.0977,0.6277,0.0484,-0.6535,-1.1035,-1.3493,-1.382,-1.4399,-1.5293,-1.6613,-1.7835,-1.9045,-2.0159,-1.902,-1.7703,-1.6514,-1.411,-1.2086,-1.0648,-0.9771,-0.9529,-0.9868,-0.8328,-0.7576,-0.8374,-0.6764,-0.5934,-0.6881,-0.5896,-0.561,-0.6409,-0.6416,-0.6345,-0.6261,-0.6342,-0.6261,-0.6338,-0.6261,-0.618,-0.5941,-0.5315,-0.4455,-0.4297,-0.4217,-0.4139,-0.3437,-0.2809,-0.2186,-0.1486,-0.0782,0.0,0.2035,0.3046,0.4283,0.5613,0.476,0.3456,0.313,0.0416,-0.1798,-0.3017,-0.3325,-0.3548,-0.3551,-0.2675,-0.1779,-0.166,-0.0884,0.0,0.6055,0.7728,0.837,0.782,0.6348,0.404,-0.299,-1.3101,-1.7596,-2.0698,-2.2758,-2.4782,-2.5658,-2.5596,-2.5445,-2.623,-2.7619,-2.5571,-2.5048,-2.5819,-2.5381,-2.5451,-2.5977,-2.5,-2.3539,-2.1607,-1.8503,-1.5184,-1.1955,-0.9882,-0.8511,-0.7358,-0.4875,-0.4268,-0.5592,-0.6815,-0.7892,-0.8914,-0.8853,-0.636,-0.1529,0.2141,0.7783,1.5458,1.8756,1.6389,0.8265,0.6828,0.1287,-0.9214,-1.2497,-1.4657,-1.6208,-1.6447,-1.6767,-1.7284,-1.9298,-2.1553,-2.3849,-2.2029,-1.9494,-1.6689,-1.5315,-1.3802,-1.1664,-1.1431,-1.1813,-1.2806,-1.2005,-1.1376,-1.1462,-1.1156,-1.0722,-1.0021,-0.8346,-0.7315,-0.754,-0.6868,-0.6338,-0.6338,-0.6261,-0.6261,-0.6261,-0.6261,-0.5944,-0.5157,-0.4611,-0.4062,-0.2659,-0.2813,-0.3202,-0.2888,-0.1559,-0.0545,0.0,0.1326,0.2575,0.4064,0.5057,0.6053,0.7306,0.5758,0.4073,0.3192,0.0328,-0.1929,-0.3115,-0.3343,-0.3559,-0.3571,-0.2734,-0.1946,-0.1822,-0.088,0.0,0.7353,0.9285,1.0129,1.0637,1.0506,0.4845,-0.312,-1.2426,-1.7295,-2.0475,-2.2396,-2.3982,-2.5206,-2.5918,-2.4405,-2.4317,-2.5394,-2.4398,-2.4213,-2.4695,-2.4224,-2.4495,-2.5188,-2.3276,-2.1882,-2.0931,-1.8442,-1.4731,-1.0296,-0.8846,-0.7588,-0.6058,-0.288,-0.2604,-0.5276,-0.5943,-0.6597,-0.7483,-0.8106,-0.7019,-0.4262,-0.0665,0.4307,1.0722,1.4902,1.4011,0.7354,0.5215,0.0361,-0.783,-1.1083,-1.3427,-1.5149,-1.7416,-1.9131,-2.0148,-2.2834,-2.5082,-2.6581,-2.4559,-2.2054,-1.935,-1.9252,-1.892,-1.7767,-1.5947,-1.5468,-1.6893,-1.6455,-1.6142,-1.634,-1.6508,-1.5806,-1.3769,-1.1781,-1.0025,-0.8694,-0.7693,-0.6868,-0.6412,-0.6261,-0.6261,-0.6261,-0.6261,-0.5867,-0.4844,-0.383,-0.2504,-0.0941,-0.0626,-0.0547,-0.0469,0.0313,0.1015,0.156,0.2418,0.3742,0.5214,0.6343,0.7335,0.8206,0.6465,0.4201,0.2345,-0.0802,-0.3522,-0.4683,-0.5105,-0.4937,-0.4319,-0.3445,-0.2665,-0.188,-0.0853,0.0,0.7742,0.9822,1.109,1.3218,1.4902,0.6446,-0.1806,-0.9573,-1.5041,-1.8701,-2.0852,-2.2413,-2.3819,-2.4732,-2.248,-2.1971,-2.2941,-2.3282,-2.3316,-2.3156,-2.2704,-2.2101,-2.1121,-1.914,-1.7633,-1.6446,-1.5637,-1.2677,-0.7981,-0.6622,-0.5306,-0.3426,-0.0736,-0.1001,-0.4146,-0.4196,-0.4982,-0.6645,-0.7181,-0.7256,-0.6931,-0.3283,0.1029,0.594,1.0759,1.1576,0.8116,0.5596,0.1409,-0.4546,-0.8182,-1.0668,-1.2125,-1.5879,-1.9619,-2.2836,-2.4723,-2.635,-2.7612,-2.6235,-2.4467,-2.279,-2.3636,-2.4243,-2.3917,-2.1912,-2.0588,-2.1114,-2.0843,-2.0724,-2.0912,-2.115,-2.0313,-1.7695,-1.5525,-1.3314,-1.0803,-0.9295,-0.7923,-0.6942,-0.6644,-0.6563,-0.6335,-0.6261,-0.5786,-0.4373,-0.2737,-0.1176,0.0157,0.1097,0.1646,0.2193,0.2271,0.2581,0.3359,0.3977,0.4974,0.6659,0.7988,0.8745,0.884,0.678,0.3789,0.1301,-0.2195,-0.4877,-0.6347,-0.6623,-0.6086,-0.5071,-0.3968,-0.3025,-0.1932,-0.1076,0.0,0.8164,0.993,1.2445,1.6372,1.949,1.1653,0.3334,-0.4638,-1.0897,-1.4811,-1.7074,-2.0207,-2.1315,-2.103,-1.9583,-2.0044,-2.1939,-2.2364,-2.2101,-2.143,-2.0787,-1.6888,-1.1269,-1.1627,-0.8956,-0.4577,-0.7139,-0.7355,-0.409,-0.186,0.0133,0.1805,0.2275,0.1537,-0.0267,-0.0533,-0.2134,-0.5435,-0.5572,-0.6017,-0.6567,-0.4027,-0.1043,0.2041,0.7683,1.0925,1.0822,1.1248,0.7439,-0.0115,-0.3676,-0.5707,-0.6668,-0.9796,-1.5749,-2.3916,-2.2116,-2.2285,-2.6195,-2.6468,-2.625,-2.6545,-2.7545,-2.8184,-2.8119,-2.8899,-2.8031,-2.5732,-2.4844,-2.4633,-2.4259,-2.4259,-2.363,-2.1902,-1.9566,-1.6946,-1.4453,-1.1919,-0.9772,-0.7855,-0.777,-0.7326,-0.6641,-0.618,-0.5395,-0.3671,-0.2111,-0.0627,0.094,0.1723,0.2503,0.3828,0.4375,0.4375,0.4761,0.623,0.7367,0.8699,1.041,1.0387,0.8906,0.6805,0.4363,-0.0912,-0.3319,-0.5721,-0.685,-0.7092,-0.617,-0.5252,-0.4138,-0.3011,-0.2006,-0.1563,-0.1167,0.8663,1.0363,1.2952,1.7843,2.2352,1.5589,0.8724,0.2377,-0.4731,-0.9665,-1.2838,-1.4795,-1.6271,-1.7434,-1.6903,-1.7961,-2.014,-2.0161,-2.1002,-2.1863,-1.8731,-1.4582,-1.0581,-0.7822,-0.4344,-0.0293,-0.2796,-0.3242,-0.1181,0.1663,0.3556,0.4367,0.5306,0.4964,0.328,0.2132,0.0266,-0.2203,-0.4289,-0.5575,-0.5771,-0.4885,-0.3057,-0.0329,0.3668,0.6528,0.8014,1.003,0.8895,0.4122,0.3387,0.2809,0.1705,-0.111,-0.4418,-0.8359,-1.1302,-1.5196,-2.0649,-2.3922,-2.6745,-2.8981,-3.1279,-3.2466,-3.2294,-3.294,-3.2488,-3.0796,-2.9429,-2.8575,-2.8247,-2.8221,-2.7565,-2.5967,-2.4132,-2.17,-1.833,-1.5848,-1.3337,-1.0754,-0.929,-0.8282,-0.7161,-0.5538,-0.4215,-0.2888,-0.133,0.0548,0.1567,0.2582,0.3979,0.5217,0.5616,0.5935,0.6468,0.7161,0.8447,0.9788,1.0736,1.0376,0.7002,0.4712,0.1568,-0.3411,-0.5762,-0.7367,-0.847,-0.7829,-0.6898,-0.5689,-0.4214,-0.3036,-0.2545,-0.25,-0.2204,0.8656,1.0586,1.3708,1.8871,2.4295,2.045,1.4971,0.8736,0.238,-0.34,-0.8556,-0.978,-1.1377,-1.3174,-1.3954,-1.5519,-1.7543,-1.8397,-1.9651,-2.0828,-1.6999,-1.2431,-0.7426,-0.3956,0.0457,0.4107,0.2272,0.1091,0.1799,0.4056,0.5454,0.5716,0.6888,0.7206,0.6199,0.4397,0.2523,0.0599,-0.2401,-0.4361,-0.5186,-0.4909,-0.409,-0.2606,0.0267,0.3001,0.5295,0.8926,1.0321,0.8894,1.0105,1.0714,1.0234,0.7919,0.6022,0.4179,-0.287,-0.9665,-1.5061,-2.1414,-2.6632,-3.0032,-3.3229,-3.5058,-3.5093,-3.5262,-3.5091,-3.4312,-3.308,-3.2038,-3.1464,-3.1411,-3.081,-2.9504,-2.8078,-2.5702,-2.2445,-1.9818,-1.6977,-1.3816,-1.1729,-0.9659,-0.7833,-0.5455,-0.3593,-0.2968,-0.0703,0.1488,0.2035,0.3517,0.5068,0.6371,0.67,0.7099,0.8016,0.8237,0.9069,0.9804,1.0427,0.824,0.4225,0.1544,-0.1912,-0.6803,-0.8692,-0.9497,-0.9588,-0.8856,-0.7735,-0.6421,-0.5042,-0.393,-0.3605,-0.3547,-0.3742,0.7762,1.0134,1.5399,1.953,2.2679,2.643,2.2621,1.3805,1.0368,0.4212,-0.3594,-0.6133,-0.7589,-0.8441,-1.0367,-1.2655,-1.4563,-1.7566,-1.8223,-1.7172,-1.6366,-0.9336,0.2761,0.2686,0.648,1.2932,0.8707,0.5998,0.5356,0.5523,0.5665,0.5645,0.6518,0.7447,0.79,0.63,0.4386,0.252,0.0399,-0.2006,-0.4782,-0.3761,-0.3768,-0.4596,-0.1673,0.1847,0.5352,0.9325,1.2369,1.4594,1.5145,1.6378,1.8083,1.6665,1.3573,0.8431,-0.0328,-0.7148,-1.1193,-1.9336,-2.5957,-2.9257,-3.2751,-3.5008,-3.5508,-3.5708,-3.5613,-3.5262,-3.4967,-3.4339,-3.3364,-3.3103,-3.2839,-3.2116,-3.0525,-2.8593,-2.6468,-2.3414,-2.0323,-1.7115,-1.4417,-1.1661,-0.8367,-0.6002,-0.4368,-0.3119,-0.1247,0.078,0.2655,0.3982,0.5458,0.6927,0.7629,0.8021,0.8956,0.9013,0.9489,0.9482,0.813,0.5775,0.1726,-0.2366,-0.6467,-0.9491,-1.0443,-1.0891,-1.0628,-0.975,-0.8475,-0.7362,-0.6599,-0.574,-0.5123,-0.4704,-0.482,0.9446,1.2715,1.6699,2.0288,2.3599,2.6524,2.6373,2.3916,1.7757,1.1471,0.5346,0.1768,-0.0826,-0.2898,-0.3259,-0.6835,-1.2559,-1.5517,-1.6705,-1.6217,-1.3777,-0.7486,0.0821,0.3747,0.9045,1.5172,1.2409,0.903,0.6818,0.6082,0.5732,0.6001,0.719,0.7864,0.7644,0.7602,0.6564,0.4326,0.1531,-0.1738,-0.494,-0.4736,-0.4786,-0.5146,-0.1891,0.1711,0.5278,1.0284,1.368,1.497,1.83,2.1116,2.2887,2.4312,2.291,1.7945,1.0424,0.2497,-0.5665,-1.568,-2.3852,-2.8881,-3.2723,-3.5044,-3.5573,-3.58,-3.5825,-3.5694,-3.5546,-3.5202,-3.4931,-3.4504,-3.418,-3.384,-3.2865,-3.1179,-2.8988,-2.6762,-2.4086,-2.0146,-1.6223,-1.2466,-0.9958,-0.7347,-0.5283,-0.4039,-0.1709,0.0623,0.2652,0.3984,0.5303,0.7007,0.7326,0.7399,0.9115,0.9291,0.9039,0.7597,0.5648,0.094,-0.3373,-0.6879,-1.0897,-1.2798,-1.3351,-1.2371,-1.2044,-1.0789,-0.9518,-0.8623,-0.7859,-0.7173,-0.678,-0.6311,-0.6109,1.0537,1.4064,1.7399,2.0784,2.41,2.6284,2.8093,2.9018,2.4276,1.8506,1.2597,0.8546,0.5115,0.2362,0.23,0.0377,-0.4636,-0.7949,-1.0119,-1.0488,-0.7874,-0.3392,0.2062,0.5814,1.0699,1.5457,1.3243,1.0045,0.7566,0.6375,0.5874,0.5947,0.7677,0.8204,0.7734,0.8627,0.8117,0.5873,0.3271,0.0068,-0.3249,-0.4868,-0.4779,-0.3411,-0.0624,0.2397,0.5488,1.0192,1.317,1.4473,1.8629,2.1999,2.3843,2.5853,2.5118,2.0643,1.454,0.6432,-0.4336,-1.6072,-2.485,-2.9098,-3.2604,-3.4924,-3.5585,-3.5829,-3.5877,-3.5855,-3.5797,-3.5712,-3.5617,-3.53,-3.5082,-3.5012,-3.4491,-3.3345,-3.142,-2.9705,-2.6425,-2.1743,-1.7305,-1.3861,-1.1359,-0.8825,-0.6786,-0.5343,-0.271,-0.031,0.1713,0.3039,0.4438,0.6217,0.5745,0.5787,0.5947,0.546,0.5448,0.4184,0.0875,-0.3822,-0.7703,-1.1248,-1.3785,-1.5618,-1.5643,-1.4363,-1.3077,-1.1822,-1.0789,-0.99,-0.8998,-0.8237,-0.7927,-0.7702,-0.7346,1.0828,1.3752,1.7497,2.1069,2.4248,2.6741,2.7725,2.8184,2.9284,2.4593,1.716,1.3538,0.9984,0.6602,0.5972,0.7164,0.8227,0.4383,0.1849,0.125,0.0907,0.2971,0.7162,0.8939,1.1678,1.544,1.2165,0.9547,0.7855,0.6763,0.6179,0.637,0.7699,0.8477,0.8559,0.9329,0.9093,0.7478,0.5906,0.3576,0.0145,-0.3127,-0.3431,-0.051,0.1743,0.3564,0.5472,0.8753,1.1013,1.2132,1.5624,1.8693,2.015,2.0885,1.9162,1.4944,1.0314,0.2747,-0.7838,-2.0799,-2.8286,-3.0404,-3.2644,-3.468,-3.551,-3.5792,-3.5871,-3.5871,-3.5864,-3.583,-3.5705,-3.5588,-3.5547,-3.5638,-3.5226,-3.4595,-3.3588,-3.1941,-2.8394,-2.257,-1.8612,-1.5445,-1.2804,-1.066,-0.8702,-0.6768,-0.4553,-0.2394,-0.0388,0.0854,0.2406,0.3718,0.371,0.3459,0.2196,0.0896,0.0818,0.0,-0.4133,-0.8448,-1.1507,-1.4788,-1.6102,-1.7581,-1.6018,-1.4657,-1.2879,-1.1768,-1.1477,-1.0657,-0.99,-0.9296,-0.9064,-0.8761,-0.8161,1.2428,1.5175,1.8596,2.1859,2.4876,2.7134,2.8806,3.0075,3.0102,2.6988,2.2495,1.9858,1.6099,1.2321,1.1715,1.2768,1.4324,1.4244,1.2909,0.9834,0.7562,0.8122,1.0826,1.2647,1.4189,1.5134,1.3584,1.1623,0.9755,0.8059,0.7243,0.7374,0.778,0.8268,0.8707,0.9206,0.9214,0.9044,0.7028,0.525,0.3822,0.0295,-0.1045,-0.0,0.2049,0.2832,0.2131,0.7074,0.9157,0.7934,1.1652,1.3951,1.4185,1.5017,1.3427,0.901,0.3512,-0.3145,-1.1809,-2.1312,-2.8682,-3.1022,-3.3392,-3.476,-3.5505,-3.5716,-3.5761,-3.5755,-3.5728,-3.569,-3.5689,-3.564,-3.5585,-3.5603,-3.5368,-3.4704,-3.3351,-3.0742,-2.7545,-2.4422,-2.1572,-1.9017,-1.6378,-1.3869,-1.1478,-0.9383,-0.6984,-0.4558,-0.2549,-0.1241,-0.0155,0.1083,0.0849,0.0461,-0.0912,-0.2694,-0.4075,-0.5076,-0.8618,-1.13,-1.4453,-1.664,-1.8071,-1.7755,-1.6253,-1.472,-1.2938,-1.2083,-1.1713,-1.1484,-1.0795,-1.0421,-1.019,-0.9593,-0.8689,1.3115,1.5923,1.9155,2.2361,2.5397,2.7805,3.0111,3.1841,3.1266,2.9613,2.7312,2.4768,2.1378,1.7867,1.6927,1.6808,1.7459,2.0215,2.0492,1.8314,1.5861,1.5427,1.6572,1.7448,1.7482,1.6713,1.5368,1.3467,1.1286,0.9557,0.8367,0.7846,0.7439,0.761,0.8412,0.8926,0.9296,0.9031,0.7556,0.6526,0.5741,0.3634,0.1606,0.046,0.1244,0.0391,-0.1637,0.2574,0.4643,0.4285,0.6646,0.7832,0.7511,0.7829,0.6164,0.1162,-0.4353,-1.061,-1.7339,-2.4218,-2.9194,-3.2264,-3.402,-3.4974,-3.5458,-3.5638,-3.5635,-3.5524,-3.5474,-3.5407,-3.5333,-3.5277,-3.5258,-3.5243,-3.5347,-3.4754,-3.3242,-3.0784,-2.8297,-2.6199,-2.4104,-2.1753,-1.9114,-1.709,-1.4463,-1.213,-0.9548,-0.6874,-0.4934,-0.3411,-0.2327,-0.1624,-0.1687,-0.2523,-0.3825,-0.6051,-0.868,-1.0569,-1.2863,-1.4477,-1.6533,-1.7793,-1.9013,-1.722,-1.5641,-1.4514,-1.2872,-1.2445,-1.2083,-1.1848,-1.1613,-1.0944,-1.034,-0.9518,-0.8694,1.3097,1.586,1.9091,2.2359,2.5621,2.85,3.0965,3.2967,3.3106,3.2508,3.1217,2.8384,2.5614,2.3305,2.106,1.9864,1.9896,2.2129,2.4455,2.5103,2.4193,2.3283,2.3021,2.2405,2.1068,1.9169,1.7379,1.5121,1.2576,1.1015,0.9451,0.8067,0.7026,0.6859,0.7888,0.8765,0.8656,0.8263,0.7982,0.7456,0.6633,0.6112,0.4465,0.0781,-0.0235,-0.2116,-0.4155,-0.3322,-0.1999,-0.0693,0.0379,0.0896,0.0519,-0.0074,-0.2724,-0.7333,-1.2534,-1.7516,-2.3147,-2.7583,-3.1323,-3.3524,-3.4339,-3.4942,-3.538,-3.5465,-3.5403,-3.5199,-3.5158,-3.5044,-3.4832,-3.4774,-3.4794,-3.4793,-3.5177,-3.4993,-3.4141,-3.225,-3.0249,-2.8184,-2.6241,-2.4102,-2.1293,-1.9902,-1.7625,-1.4743,-1.2236,-0.9733,-0.7251,-0.565,-0.4441,-0.3949,-0.3677,-0.4405,-0.5391,-0.7253,-0.9763,-1.197,-1.4401,-1.6115,-1.726,-1.8287,-1.8623,-1.6826,-1.5641,-1.4363,-1.3448,-1.3091,-1.2739,-1.2512,-1.1983,-1.1162,-1.034,-0.9442,-0.8542,1.3855,1.5362,1.8693,2.2062,2.5268,2.7896,3.0262,3.2373,3.3398,3.3531,3.2897,3.1702,2.9441,2.7151,2.5297,2.3096,2.1681,2.3007,2.4955,2.6551,2.7121,2.7067,2.66,2.5173,2.3397,2.1428,1.9287,1.6936,1.4269,1.2538,1.0714,0.8841,0.6835,0.6696,0.7966,0.7234,0.7855,0.8732,0.8846,0.8553,0.8095,0.678,0.5839,0.4406,-0.1254,-0.4006,-0.4389,-0.5681,-0.6743,-0.6896,-0.612,-0.6695,-0.7948,-0.8427,-0.9993,-1.3726,-1.8105,-2.2193,-2.598,-2.9738,-3.2505,-3.392,-3.4449,-3.4755,-3.4924,-3.5111,-3.5078,-3.4905,-3.4832,-3.4775,-3.4695,-3.4653,-3.4678,-3.478,-3.4933,-3.4922,-3.4439,-3.3412,-3.1964,-3.0335,-2.8928,-2.693,-2.4815,-2.3049,-2.1151,-1.8141,-1.5292,-1.2692,-1.0115,-0.719,-0.5745,-0.5345,-0.522,-0.5914,-0.69,-0.865,-1.0554,-1.257,-1.4747,-1.6732,-1.7532,-1.8037,-1.7755,-1.6645,-1.654,-1.5553,-1.472,-1.4091,-1.3738,-1.344,-1.2124,-1.1149,-1.0335,-0.9437,-0.8385,1.3686,1.4815,1.7772,2.0725,2.3706,2.674,2.946,3.1787,3.3229,3.4055,3.4088,3.3521,3.2102,3.0236,2.8706,2.6446,2.399,2.5062,2.6414,2.7461,2.829,2.8761,2.8575,2.719,2.5399,2.3428,2.1155,1.8481,1.5817,1.4137,1.1607,0.7921,0.5101,0.4187,0.4419,0.4185,0.418,0.5106,0.5434,0.5607,0.6089,0.5491,0.5752,0.4403,-0.1723,-0.5905,-0.6311,-0.8053,-0.9271,-0.9664,-0.9593,-1.0553,-1.3027,-1.3716,-1.5273,-1.8379,-2.2133,-2.5264,-2.7821,-3.0793,-3.2809,-3.3799,-3.4274,-3.4551,-3.4675,-3.4832,-3.4793,-3.43,-3.4255,-3.4083,-3.3864,-3.3944,-3.413,-3.4231,-3.4491,-3.4653,-3.4747,-3.4212,-3.3318,-3.2206,-3.115,-2.9972,-2.7897,-2.6517,-2.4545,-2.1889,-1.8591,-1.586,-1.3013,-0.9867,-0.7106,-0.6627,-0.5858,-0.6057,-0.6375,-0.7774,-1.0161,-1.2351,-1.4915,-1.7002,-1.7439,-1.7783,-1.7453,-1.7023,-1.7083,-1.6876,-1.6035,-1.5263,-1.4822,-1.4094,-1.251,-1.1063,-1.0248,-0.921,-0.8156,1.2954,1.4191,1.656,1.8827,2.1516,2.5258,2.842,3.1024,3.2694,3.396,3.4602,3.4333,3.3589,3.2775,3.1297,2.9644,2.7753,2.7821,2.8069,2.8629,2.9046,2.9416,2.9138,2.8216,2.6601,2.4627,2.2633,1.9684,1.6954,1.556,1.1371,0.5632,0.0842,-0.0615,-0.0462,-0.0694,-0.0851,-0.0464,-0.0309,0.0155,0.1321,0.2108,0.329,0.2746,-0.2737,-0.7687,-0.9327,-1.0553,-1.1089,-1.1579,-1.1292,-1.2632,-1.494,-1.6204,-1.8289,-2.1207,-2.4203,-2.692,-2.8758,-3.0946,-3.2723,-3.346,-3.3919,-3.4246,-3.4486,-3.4572,-3.4364,-3.3703,-3.3562,-3.333,-3.2906,-3.2952,-3.3241,-3.354,-3.3952,-3.4438,-3.4715,-3.4769,-3.4464,-3.3732,-3.3109,-3.2238,-3.11,-2.9782,-2.8273,-2.5575,-2.2481,-1.98,-1.6422,-1.2863,-0.9846,-0.7597,-0.6771,-0.5864,-0.616,-0.6575,-0.9298,-1.1848,-1.4744,-1.6689,-1.7056,-1.7298,-1.7312,-1.725,-1.7309,-1.7387,-1.725,-1.6606,-1.6026,-1.518,-1.3825,-1.1898,-1.0093,-0.8908,-0.7783,1.2444,1.2899,1.554,1.7473,1.9342,2.3441,2.6471,2.8421,3.1217,3.2896,3.4026,3.4606,3.4732,3.4504,3.3394,3.2097,3.0068,2.9486,2.9138,2.848,2.9137,2.8591,2.7857,2.6971,2.6286,2.4255,2.1874,1.9327,1.72,1.416,1.0341,0.159,-0.4604,-0.7383,-0.3986,-0.5475,-0.6357,-0.5274,-0.4809,-0.4518,-0.3366,-0.086,0.0235,-0.0784,-0.5724,-0.8885,-1.0409,-1.1415,-1.3259,-1.5138,-1.5158,-1.5333,-1.7302,-1.9233,-2.1016,-2.303,-2.5854,-2.8061,-2.9106,-3.0746,-3.2297,-3.3064,-3.3506,-3.3799,-3.3961,-3.4195,-3.3963,-3.3432,-3.3268,-3.3071,-3.2558,-3.2539,-3.2713,-3.2906,-3.3369,-3.3896,-3.427,-3.4802,-3.4958,-3.482,-3.4438,-3.3865,-3.2934,-3.2264,-3.0709,-2.8789,-2.6442,-2.3877,-2.0275,-1.6327,-1.322,-1.0459,-0.8284,-0.7425,-0.6698,-0.721,-0.9259,-1.1468,-1.4096,-1.5904,-1.6263,-1.6584,-1.6515,-1.7016,-1.7678,-1.7639,-1.7293,-1.7562,-1.6906,-1.6094,-1.487,-1.2576,-1.041,-0.8985,-0.7476,1.2298,1.248,1.434,1.6249,1.8293,2.095,2.363,2.6132,2.8671,3.0972,3.2729,3.3808,3.4494,3.496,3.4315,3.3113,3.1376,2.945,2.8295,2.7436,2.6807,2.4854,2.2376,2.135,2.0354,2.0182,1.7468,1.4614,1.1757,0.9483,0.4861,-0.1809,-0.8533,-0.9108,-0.7075,-0.8438,-0.8156,-0.7153,-0.7003,-0.6802,-0.5821,-0.3292,-0.172,-0.36,-0.6957,-0.9721,-1.0662,-1.31,-1.5312,-1.7311,-1.837,-1.9028,-2.0048,-2.1493,-2.3027,-2.519,-2.6828,-2.8529,-2.9387,-3.069,-3.1881,-3.2125,-3.2852,-3.3364,-3.3588,-3.3813,-3.376,-3.3361,-3.3154,-3.2934,-3.2279,-3.244,-3.2401,-3.2298,-3.2688,-3.3277,-3.3885,-3.4712,-3.5403,-3.5467,-3.5281,-3.4964,-3.4481,-3.3886,-3.3277,-3.1423,-2.9648,-2.7143,-2.4936,-2.1015,-1.7159,-1.4098,-1.1049,-0.9073,-0.7872,-0.8213,-0.9608,-1.141,-1.3173,-1.4443,-1.5013,-1.5366,-1.5652,-1.6132,-1.6656,-1.6845,-1.6694,-1.7139,-1.6798,-1.5455,-1.3902,-1.2298,-1.0761,-0.8985,-0.7605,1.2352,1.2369,1.3331,1.5043,1.7135,1.8217,2.0607,2.3692,2.5602,2.7965,3.0737,3.1971,3.2766,3.3746,3.3714,3.2951,3.1093,2.857,2.6842,2.699,2.2871,1.9727,1.6507,1.3697,1.1746,1.3195,1.0863,0.7306,0.3786,0.1243,-0.1349,-0.6173,-0.9037,-1.0554,-0.9997,-0.9803,-0.9418,-0.8241,-0.8008,-0.7334,-0.62,-0.4304,-0.3513,-0.4991,-0.7846,-1.0571,-1.2164,-1.4568,-1.7213,-1.8588,-2.1401,-2.2855,-2.3403,-2.3774,-2.4549,-2.7229,-2.8119,-2.89,-2.9444,-3.0606,-3.1329,-3.0937,-3.2004,-3.2975,-3.325,-3.3556,-3.3574,-3.3376,-3.313,-3.27,-3.1984,-3.2089,-3.2074,-3.1933,-3.2127,-3.2656,-3.3405,-3.4413,-3.5115,-3.5621,-3.5584,-3.5391,-3.5331,-3.4992,-3.4663,-3.4047,-3.2221,-3.0358,-2.8041,-2.555,-2.1591,-1.8263,-1.5351,-1.1946,-1.0406,-1.0133,-1.1417,-1.2305,-1.3523,-1.433,-1.4871,-1.4953,-1.5371,-1.4985,-1.5227,-1.5171,-1.4959,-1.4649,-1.4271,-1.3803,-1.2928,-1.1401,-1.0066,-0.8897,-0.7571,1.2587,1.2345,1.3302,1.3598,1.3709,1.5826,1.8237,2.0409,2.2201,2.4539,2.7442,2.8876,3.0072,3.097,3.1507,3.0808,2.9111,2.6292,2.5244,2.4598,1.9584,1.4135,1.0186,0.665,0.3613,0.1267,0.1338,0.0492,-0.2313,-0.3946,-0.6878,-1.2129,-1.2785,-1.2355,-1.2043,-1.2037,-1.076,-0.9118,-0.8861,-0.8021,-0.6342,-0.5085,-0.5223,-0.7007,-1.0003,-1.2238,-1.4198,-1.6387,-1.8711,-2.1055,-2.2335,-2.3651,-2.4842,-2.5898,-2.6828,-2.7614,-2.8932,-2.9669,-2.9613,-3.0091,-3.0664,-3.0875,-3.1278,-3.2193,-3.3036,-3.3588,-3.3616,-3.3502,-3.3051,-3.2451,-3.1863,-3.1987,-3.1733,-3.1565,-3.1605,-3.2057,-3.2629,-3.3451,-3.4489,-3.5113,-3.5399,-3.5685,-3.5583,-3.5421,-3.495,-3.4462,-3.3405,-3.1875,-3.008,-2.8126,-2.5678,-2.2652,-1.9888,-1.6351,-1.3188,-1.3068,-1.3521,-1.4074,-1.5059,-1.5964,-1.6192,-1.5487,-1.5181,-1.5013,-1.3556,-1.246,-1.2233,-1.1949,-1.1493,-1.083,-1.0552,-1.0331,-0.8788,-0.7313,-0.6865,1.2163,1.2343,1.3127,1.3216,1.3112,1.4661,1.6576,1.8424,1.9933,2.2005,2.419,2.583,2.7065,2.8007,2.8821,2.8469,2.6745,2.2192,2.0538,1.8797,1.3788,0.811,0.398,0.043,-0.2769,-0.5126,-0.5402,-0.5635,-0.8067,-0.8842,-1.0964,-1.2805,-1.3121,-1.26,-1.2668,-1.2023,-1.1053,-0.976,-0.9286,-0.8322,-0.6585,-0.5559,-0.6799,-0.9236,-1.1719,-1.3837,-1.58,-1.843,-2.0504,-2.236,-2.4,-2.5232,-2.6419,-2.756,-2.8403,-2.8639,-2.9581,-3.0038,-2.9645,-2.9892,-3.0159,-2.9783,-3.0366,-3.1476,-3.2586,-3.3221,-3.3671,-3.3791,-3.355,-3.2885,-3.2281,-3.2196,-3.1825,-3.1351,-3.1179,-3.1401,-3.1917,-3.2463,-3.3297,-3.4314,-3.5058,-3.5389,-3.5607,-3.5368,-3.5042,-3.463,-3.4151,-3.299,-3.1603,-3.0009,-2.8089,-2.5871,-2.2964,-2.0151,-1.7148,-1.6633,-1.6335,-1.6649,-1.7164,-1.805,-1.797,-1.7493,-1.6252,-1.5271,-1.3364,-1.1404,-0.8723,-0.8173,-0.7967,-0.7826,-0.7508,-0.7118,-0.6602,-0.5922,-0.5368,1.192,1.2495,1.3028,1.3232,1.3464,1.3988,1.5327,1.6897,1.7924,1.9489,2.1451,2.2627,2.3697,2.4665,2.5336,2.5473,2.4454,1.7853,1.4504,1.2196,0.8072,0.2707,-0.2083,-0.4925,-0.6901,-0.8376,-0.8975,-1.0874,-1.1181,-1.1696,-1.2548,-1.2826,-1.1944,-1.1682,-1.2037,-1.1333,-1.0336,-0.987,-0.9418,-0.8403,-0.7342,-0.7045,-0.8205,-1.0709,-1.3075,-1.5217,-1.7742,-2.0471,-2.2431,-2.4037,-2.5574,-2.7019,-2.7694,-2.8841,-2.9496,-2.9496,-2.9978,-2.9957,-2.9883,-2.9797,-2.9806,-2.9517,-3.027,-3.1209,-3.2168,-3.3059,-3.3698,-3.4081,-3.392,-3.3382,-3.2738,-3.2756,-3.2275,-3.1433,-3.0925,-3.0717,-3.0987,-3.1444,-3.1998,-3.3117,-3.4375,-3.4995,-3.5097,-3.5163,-3.4789,-3.4105,-3.3654,-3.295,-3.1689,-3.1094,-2.9512,-2.7939,-2.5706,-2.3418,-2.1398,-2.0479,-2.013,-1.9957,-2.0408,-2.105,-2.0503,-1.9794,-1.8486,-1.7252,-1.3968,-1.1759,-0.8169,-0.4898,-0.4725,-0.4647,-0.4389,-0.4366,-0.4458,-0.4149,-0.3583,1.2351,1.3121,1.3134,1.3471,1.3915,1.3571,1.4223,1.5472,1.5528,1.6413,1.8616,1.9021,1.9813,2.0698,2.1434,2.1112,1.8802,1.4706,1.0773,0.8593,0.3789,-0.1442,-0.6754,-0.8892,-0.8769,-0.9429,-0.9045,-1.055,-1.152,-1.1688,-1.204,-1.2008,-1.1346,-1.0693,-1.073,-1.009,-0.9882,-0.9536,-0.9418,-0.9165,-0.887,-0.888,-1.0475,-1.273,-1.492,-1.7332,-2.0411,-2.3015,-2.4744,-2.5827,-2.724,-2.8071,-2.8404,-2.946,-2.9761,-2.9761,-2.9913,-3.0315,-3.008,-2.988,-2.9828,-2.9805,-3.0444,-3.1236,-3.2159,-3.2829,-3.3419,-3.4053,-3.3845,-3.3512,-3.3239,-3.3473,-3.2889,-3.1876,-3.0948,-3.0315,-3.0103,-2.9963,-3.0556,-3.16,-3.2792,-3.3827,-3.4377,-3.4489,-3.4473,-3.3769,-3.306,-3.2397,-3.1601,-3.0869,-3.0208,-2.8493,-2.8055,-2.6053,-2.524,-2.4356,-2.3755,-2.3421,-2.3591,-2.3955,-2.3328,-2.2601,-2.1673,-1.9842,-1.6505,-1.2876,-0.9547,-0.6413,-0.3238,-0.1998,-0.2377,-0.2649,-0.288,-0.2399,-0.175,1.2134,1.3698,1.3728,1.3892,1.4077,1.3796,1.4015,1.4529,1.4838,1.5449,1.632,1.6893,1.7541,1.8269,1.8295,1.8247,1.7027,1.3036,0.9482,0.6391,0.1718,-0.3502,-0.7369,-0.8765,-0.8882,-0.8539,-0.7951,-0.7954,-0.9578,-1.0952,-1.1348,-1.1576,-1.0691,-0.9894,-0.9577,-0.88,-0.9028,-0.9322,-0.961,-0.9493,-0.9741,-1.0418,-1.2107,-1.4914,-1.7117,-2.0026,-2.2936,-2.556,-2.6852,-2.7605,-2.8467,-2.9085,-2.9438,-3.0024,-3.0332,-3.0554,-3.0014,-2.9879,-2.9831,-2.9632,-2.9781,-3.0007,-3.038,-3.1144,-3.2222,-3.2853,-3.3305,-3.4103,-3.3852,-3.3602,-3.3459,-3.3499,-3.2656,-3.1692,-3.0555,-2.9626,-2.892,-2.8732,-2.8986,-3.0089,-3.1166,-3.2169,-3.3195,-3.3783,-3.3765,-3.3313,-3.2603,-3.1936,-3.0976,-2.997,-2.9333,-2.8613,-2.8691,-2.8666,-2.8428,-2.803,-2.733,-2.6928,-2.6635,-2.6779,-2.6336,-2.5594,-2.4633,-2.3195,-2.061,-1.659,-1.1939,-0.7466,-0.3856,-0.205,-0.0602,-0.1208,-0.1751,-0.0471,0.0276,1.1585,1.3266,1.3841,1.4088,1.4088,1.4088,1.4075,1.4223,1.4571,1.4866,1.4962,1.5321,1.595,1.6248,1.5846,1.5851,1.6201,1.27,0.9518,0.5663,0.1299,-0.3781,-0.7468,-0.8781,-0.8804,-0.7891,-1.0026,-1.0209,-1.0254,-1.0414,-1.1112,-1.0707,-0.9279,-0.8899,-0.8566,-0.8068,-0.8058,-0.9751,-1.0094,-1.0426,-1.0914,-1.1951,-1.4139,-1.6759,-1.9565,-2.2348,-2.519,-2.7755,-2.8981,-2.9278,-3.0119,-3.0844,-3.117,-3.1132,-3.1073,-3.1043,-3.0434,-2.9755,-2.9659,-2.9507,-2.9599,-2.9933,-3.0458,-3.1319,-3.2292,-3.2761,-3.2964,-3.3582,-3.3477,-3.3448,-3.3558,-3.3255,-3.236,-3.1102,-2.9738,-2.8675,-2.7695,-2.727,-2.7285,-2.8232,-2.9316,-3.0432,-3.1532,-3.2721,-3.3002,-3.2706,-3.2133,-3.1429,-3.0352,-2.9193,-2.8717,-2.8268,-2.8829,-2.9451,-3.0079,-3.0145,-3.0012,-2.9885,-2.9529,-2.9142,-2.8386,-2.8084,-2.7497,-2.5896,-2.4066,-2.0862,-1.6554,-1.0444,-0.4656,-0.3563,-0.2418,-0.1082,-0.0542,0.0676,0.2111,1.0651,1.1022,1.3178,1.4082,1.4088,1.4088,1.4088,1.4088,1.4139,1.4189,1.4253,1.4323,1.4421,1.4393,1.4342,1.4177,1.4184,1.1341,0.9127,0.6025,0.1894,-0.3247,-0.7152,-0.9604,-1.0907,-1.1299,-1.2575,-1.4115,-1.4622,-1.2428,-1.0636,-0.7925,-0.8452,-0.7753,-0.7701,-0.8189,-0.8527,-1.0106,-1.0911,-1.1878,-1.2758,-1.4059,-1.592,-1.8591,-2.1246,-2.3929,-2.6923,-2.9431,-3.0838,-3.1023,-3.1957,-3.2503,-3.2512,-3.2192,-3.1895,-3.1486,-3.0736,-3.0069,-2.9703,-2.9654,-2.9885,-3.0323,-3.0925,-3.1573,-3.2266,-3.1859,-3.1997,-3.2688,-3.2854,-3.2838,-3.2967,-3.2848,-3.1934,-3.0428,-2.8801,-2.7227,-2.6281,-2.5507,-2.5652,-2.6468,-2.7455,-2.8595,-2.9848,-3.105,-3.2252,-3.2124,-3.1341,-3.0626,-2.9627,-2.8574,-2.8241,-2.8092,-2.8708,-2.9525,-3.0645,-3.0813,-3.0766,-3.071,-3.048,-3.0285,-2.9935,-2.9771,-2.9325,-2.8463,-2.6517,-2.3895,-2.1011,-1.539,-1.0393,-0.6587,-0.4185,-0.269,-0.0811,0.0609,0.2525,1.0269,1.1477,1.251,1.3379,1.4088,1.4088,1.4088,1.4088,1.4088,1.4088,1.4088,1.4088,1.4088,1.4048,1.3924,1.3394,1.2596,1.1169,0.9573,0.6895,0.2666,-0.2237,-0.6221,-0.9404,-1.1411,-1.2946,-1.4832,-1.6079,-1.6051,-1.4803,-1.3393,-1.1313,-0.9607,-0.9506,-0.9634,-0.9586,-1.0257,-1.0941,-1.2056,-1.3063,-1.3655,-1.5481,-1.7431,-1.9761,-2.3303,-2.5726,-2.8201,-3.0662,-3.1636,-3.2297,-3.2984,-3.338,-3.3439,-3.2883,-3.2418,-3.1994,-3.1197,-3.0402,-3.0017,-3.0085,-3.0443,-3.0908,-3.1336,-3.164,-3.2007,-3.1591,-3.1888,-3.2306,-3.2457,-3.2342,-3.3077,-3.2482,-3.1317,-2.958,-2.7837,-2.6065,-2.4864,-2.4054,-2.3916,-2.4693,-2.5661,-2.6686,-2.8046,-2.9378,-3.0622,-3.1485,-3.0662,-2.9844,-2.8932,-2.8156,-2.7842,-2.7816,-2.8379,-2.9154,-3.024,-3.0868,-3.1392,-3.1313,-3.1162,-3.087,-3.0521,-3.0545,-3.0086,-2.9568,-2.8928,-2.6525,-2.3622,-2.01,-1.5667,-1.0594,-0.677,-0.3972,-0.1998,0.0067,0.1765,0.9767,1.1165,1.1843,1.2875,1.4004,1.4088,1.4088,1.4088,1.4088,1.4088,1.4088,1.4088,1.4088,1.4004,1.3555,1.2814,1.1577,1.0469,0.9927,0.7337,0.3698,-0.1058,-0.5007,-0.8742,-1.2169,-1.4049,-1.5848,-1.7053,-1.8075,-1.6645,-1.5472,-1.4034,-1.2324,-1.1666,-1.088,-1.1538,-1.164,-1.2147,-1.2659,-1.3754,-1.4358,-1.6191,-1.8497,-2.0757,-2.4143,-2.6686,-2.8958,-3.1195,-3.2652,-3.3061,-3.3561,-3.403,-3.3796,-3.3365,-3.2898,-3.2388,-3.1674,-3.073,-3.0426,-3.0411,-3.0787,-3.1276,-3.1467,-3.1524,-3.1467,-3.1336,-3.1302,-3.1603,-3.1777,-3.1936,-3.2384,-3.123,-3.0119,-2.8462,-2.6619,-2.4916,-2.3553,-2.2616,-2.2616,-2.2902,-2.3958,-2.5175,-2.727,-2.8774,-3.0212,-3.1077,-3.069,-2.9788,-2.8731,-2.802,-2.7542,-2.7623,-2.7971,-2.88,-2.9655,-2.9994,-3.0341,-3.0687,-3.0598,-3.0779,-3.0623,-3.0676,-3.0642,-3.0132,-2.9408,-2.8599,-2.6411,-2.328,-1.8712,-1.3698,-0.9973,-0.6217,-0.3868,-0.1981,-0.0664,0.9126,0.9698,1.1165,1.257,1.3828,1.4082,1.4088,1.4088,1.4088,1.3997,1.3906,1.3906,1.4017,1.375,1.2966,1.1508,1.0444,0.9548,0.9253,0.8089,0.4694,-0.0088,-0.4295,-0.8193,-1.173,-1.5308,-1.6952,-1.825,-1.9887,-1.7498,-1.6742,-1.6211,-1.4316,-1.2772,-1.0961,-1.0697,-1.1284,-1.214,-1.2553,-1.3878,-1.5299,-1.6895,-1.9215,-2.1582,-2.4718,-2.7236,-2.9133,-3.1873,-3.3179,-3.3467,-3.4555,-3.5076,-3.5116,-3.4007,-3.3473,-3.3335,-3.2133,-3.1145,-3.0435,-3.0346,-3.0793,-3.1394,-3.1467,-3.1409,-3.1292,-3.0911,-3.0389,-3.0659,-3.0323,-2.9845,-2.9659,-2.9338,-2.8428,-2.722,-2.5435,-2.3673,-2.228,-2.124,-2.1126,-2.1616,-2.2627,-2.3909,-2.6298,-2.8326,-2.9897,-3.0625,-3.0502,-2.9739,-2.8592,-2.7891,-2.7364,-2.7,-2.725,-2.7572,-2.8221,-2.8816,-2.9262,-2.9687,-3.0064,-3.0253,-3.052,-3.0661,-3.0603,-3.0458,-2.997,-2.9228,-2.8142,-2.6705,-2.1984,-1.7295,-1.2307,-0.8595,-0.6232,-0.4417,-0.3392,0.8269,0.9131,0.9956,1.0824,1.1923,1.3449,1.4057,1.4095,1.4082,1.3646,1.3027,1.2936,1.3461,1.3328,1.1946,1.0221,0.8723,1.0053,1.0024,0.8623,0.5841,0.3505,-0.0434,-0.5006,-0.948,-1.2692,-1.5308,-1.6941,-1.8758,-1.63,-1.5878,-1.5621,-1.5177,-1.4461,-1.3372,-1.2954,-1.3209,-1.3626,-1.4196,-1.5101,-1.5936,-1.808,-2.0159,-2.2094,-2.5241,-2.7577,-2.9087,-3.1977,-3.3427,-3.3684,-3.48,-3.5515,-3.5316,-3.4252,-3.3649,-3.3339,-3.2312,-3.1467,-3.1146,-3.1131,-3.1204,-3.1409,-3.1467,-3.1292,-3.0777,-3.0524,-3.0086,-2.9504,-2.9135,-2.8867,-2.917,-2.788,-2.6815,-2.576,-2.408,-2.2241,-2.0751,-1.9881,-1.9604,-2.0542,-2.1483,-2.3515,-2.5745,-2.7584,-2.913,-2.9848,-2.9717,-2.9159,-2.8126,-2.7664,-2.7149,-2.6506,-2.6357,-2.6434,-2.6764,-2.7584,-2.8009,-2.8278,-2.9052,-2.9749,-3.0063,-3.0506,-3.0556,-3.0424,-3.017,-2.9817,-2.864,-2.7262,-2.5069,-2.1064,-1.6564,-1.2381,-0.9745,-0.8151,-0.7039,0.7577,0.8281,0.8552,0.9157,1.0371,1.2955,1.3907,1.3476,1.3039,1.2425,1.1809,1.1729,1.2037,1.2095,1.0835,0.9109,0.7341,0.8503,0.9662,0.8711,0.8257,0.666,0.3886,0.0513,-0.2433,-0.6236,-0.85,-1.0327,-1.1447,-1.1664,-1.2858,-1.4331,-1.4754,-1.4448,-1.4384,-1.4803,-1.5213,-1.5613,-1.616,-1.7017,-1.8054,-1.9606,-2.1535,-2.3492,-2.5728,-2.7943,-2.9549,-3.1471,-3.3495,-3.3818,-3.4529,-3.5287,-3.4833,-3.4202,-3.3495,-3.2971,-3.2256,-3.1582,-3.1467,-3.1467,-3.1409,-3.1467,-3.1467,-3.1087,-3.0389,-3.0011,-2.9317,-2.8734,-2.805,-2.7644,-2.7379,-2.5946,-2.5009,-2.399,-2.3062,-2.1229,-2.0344,-1.9545,-1.9287,-2.0172,-2.1141,-2.3208,-2.5218,-2.6725,-2.8323,-2.8686,-2.895,-2.8311,-2.7783,-2.7441,-2.7056,-2.6481,-2.5882,-2.5925,-2.6097,-2.6532,-2.6843,-2.6942,-2.8031,-2.9302,-2.9862,-3.0309,-3.037,-3.0397,-3.021,-2.9826,-2.8997,-2.7581,-2.6364,-2.4589,-2.1631,-1.7568,-1.3763,-1.1992,-1.0891,0.7146,0.7139,0.7139,0.7841,0.9331,1.2072,1.293,1.2157,1.1128,1.0692,1.0524,1.0524,1.0539,1.0274,0.9318,0.8253,0.7442,0.7474,0.8185,0.9174,0.9805,0.9311,0.8922,0.7333,0.5598,0.4076,0.2163,0.016,-0.1356,-0.5131,-0.8813,-1.2357,-1.3255,-1.4253,-1.5573,-1.6852,-1.7229,-1.7398,-1.8276,-1.9127,-2.0062,-2.1363,-2.304,-2.4826,-2.6812,-2.8235,-2.9851,-3.1944,-3.2959,-3.3686,-3.4481,-3.4448,-3.4152,-3.3614,-3.3145,-3.2571,-3.1796,-3.164,-3.1467,-3.1467,-3.1336,-3.1278,-3.1278,-3.0955,-3.0194,-2.9366,-2.8414,-2.7326,-2.6357,-2.5624,-2.4886,-2.4077,-2.3178,-2.2564,-2.2153,-2.1209,-2.0564,-2.0029,-1.9781,-2.0248,-2.1042,-2.2675,-2.4743,-2.6357,-2.7238,-2.7354,-2.762,-2.761,-2.7265,-2.739,-2.701,-2.6633,-2.609,-2.5603,-2.5647,-2.5561,-2.5859,-2.6,-2.7879,-2.9176,-2.9667,-3.017,-3.0386,-3.0458,-3.0276,-2.9901,-2.9569,-2.9242,-2.873,-2.6805,-2.5059,-2.2024,-1.7949,-1.6192,-1.5146,0.7238,0.7143,0.7139,0.7316,0.7757,0.8723,0.9758,1.095,1.0692,1.0178,0.941,0.9405,0.9052,0.8097,0.7749,0.7394,0.7566,0.7918,0.8448,0.9349,1.0241,1.0833,1.1793,1.2841,1.3556,1.3238,1.1736,0.9727,0.6912,0.21,-0.4745,-0.8637,-1.2115,-1.4522,-1.6813,-1.8912,-1.8816,-1.9177,-2.0265,-2.104,-2.1997,-2.3165,-2.4548,-2.5898,-2.7954,-2.9127,-3.0235,-3.26,-3.3568,-3.3646,-3.435,-3.4491,-3.4438,-3.3461,-3.2586,-3.1894,-3.1582,-3.1467,-3.1467,-3.1482,-3.1322,-3.091,-3.0762,-3.0133,-2.9442,-2.8478,-2.7432,-2.6258,-2.5133,-2.4446,-2.3795,-2.2933,-2.2158,-2.1645,-2.1165,-2.0567,-2.0018,-1.965,-1.9555,-2.0676,-2.147,-2.2749,-2.4754,-2.5384,-2.6051,-2.6133,-2.6254,-2.6453,-2.6663,-2.6745,-2.6718,-2.6379,-2.5741,-2.5027,-2.449,-2.4274,-2.473,-2.537,-2.7341,-2.8952,-2.9546,-3.0021,-3.0428,-3.0599,-3.0542,-3.0593,-3.0627,-3.0396,-3.0348,-2.9944,-2.8316,-2.5352,-2.264,-2.0589,-1.8869,0.7336,0.716,0.7115,0.7108,0.7146,0.7139,0.8009,0.9139,0.9222,0.8794,0.8277,0.8189,0.7749,0.7316,0.7228,0.7139,0.7228,0.7665,0.8277,0.9065,0.9579,1.0742,1.2911,1.5405,1.6828,1.7674,1.7908,1.6168,1.2468,0.4722,-0.273,-0.7908,-1.1754,-1.4451,-1.6955,-1.899,-2.0467,-2.1115,-2.2098,-2.2881,-2.3806,-2.486,-2.5865,-2.6838,-2.9012,-2.9967,-3.0536,-3.3093,-3.3959,-3.3814,-3.4375,-3.4636,-3.4399,-3.3326,-3.2699,-3.2152,-3.1958,-3.1988,-3.1988,-3.1973,-3.1412,-3.0812,-3.0306,-2.9526,-2.8597,-2.7617,-2.6476,-2.5392,-2.4374,-2.343,-2.2765,-2.2092,-2.141,-2.0807,-2.0256,-1.9792,-1.9402,-1.9089,-1.9869,-2.1152,-2.2258,-2.3441,-2.4337,-2.4738,-2.5119,-2.5508,-2.5714,-2.5769,-2.5918,-2.6,-2.5983,-2.5792,-2.5047,-2.4245,-2.3771,-2.3697,-2.4465,-2.5533,-2.7222,-2.8586,-2.9288,-2.985,-3.0243,-3.0601,-3.0895,-3.0979,-3.1099,-3.1827,-3.1929,-3.1461,-3.1026,-2.9055,-2.6439,-2.4172,-2.263,0.7448,0.7197,0.7128,0.7091,0.7149,0.7143,0.7143,0.7143,0.7319,0.7146,0.7231,0.7139,0.7228,0.7139,0.7139,0.7143,0.7146,0.7323,0.7852,0.8715,0.8623,0.962,1.1412,1.4375,1.6633,1.885,1.9977,1.9261,1.4058,0.6296,-0.2043,-0.758,-0.9872,-1.278,-1.6309,-1.8581,-2.0338,-2.205,-2.3384,-2.4538,-2.524,-2.6261,-2.7369,-2.7817,-2.9409,-3.0934,-3.1467,-3.2786,-3.427,-3.4329,-3.4417,-3.4694,-3.3996,-3.3487,-3.3036,-3.2632,-3.2377,-3.2362,-3.2229,-3.2154,-3.1699,-3.108,-3.0395,-2.9209,-2.8078,-2.6812,-2.5673,-2.4601,-2.3588,-2.2627,-2.1886,-2.1038,-2.0275,-1.9728,-1.9289,-1.9058,-1.904,-1.9241,-2.0277,-2.1316,-2.1881,-2.2985,-2.3555,-2.3829,-2.3263,-2.4257,-2.4486,-2.4429,-2.4811,-2.4867,-2.512,-2.5038,-2.4426,-2.3826,-2.3798,-2.3892,-2.4731,-2.5873,-2.7257,-2.8187,-2.8868,-2.9466,-3.007,-3.071,-3.1365,-3.1402,-3.1613,-3.2372,-3.2902,-3.2692,-3.2317,-3.214,-3.0334,-2.7819,-2.6032,0.7658,0.7482,0.7404,0.7282,0.7153,0.7071,0.7081,0.7078,0.7088,0.6992,0.7058,0.7054,0.7143,0.7146,0.7146,0.7153,0.7074,0.671,0.7258,0.7234,0.7221,0.6994,0.85,1.056,1.4578,2.0522,2.222,1.9109,1.1706,0.4663,-0.0763,-0.5472,-0.8004,-1.0995,-1.5366,-1.7601,-1.9753,-2.203,-2.3525,-2.5017,-2.6103,-2.6486,-2.7138,-2.8578,-3.0286,-3.1351,-3.2281,-3.3769,-3.4439,-3.4555,-3.4559,-3.4272,-3.3591,-3.3544,-3.3185,-3.2677,-3.2662,-3.2766,-3.2405,-3.2129,-3.153,-3.089,-3.0038,-2.8802,-2.7551,-2.6153,-2.4921,-2.3902,-2.285,-2.1897,-2.0991,-2.0138,-1.9274,-1.8789,-1.8221,-1.8391,-1.8628,-1.9668,-2.0627,-2.1161,-2.1642,-2.2174,-2.2744,-2.2601,-2.1839,-2.162,-2.162,-2.1806,-2.2749,-2.3182,-2.4079,-2.4084,-2.3774,-2.3377,-2.3483,-2.3913,-2.4708,-2.5639,-2.6895,-2.7729,-2.8461,-2.9214,-3.0018,-3.1149,-3.1872,-3.1623,-3.1885,-3.3059,-3.3448,-3.3411,-3.3478,-3.3211,-3.3034,-3.1112,-2.9343,0.779,0.76,0.7509,0.7428,0.7356,0.7269,0.7187,0.7083,0.6111,0.553,0.5782,0.656,0.7074,0.7074,0.7074,0.7078,0.6821,0.5905,0.5544,0.5359,0.4283,0.3744,0.4698,0.5673,0.8016,1.3349,1.5602,1.2704,0.7205,0.3474,-0.1081,-0.358,-0.5765,-0.9251,-1.3631,-1.5958,-1.8733,-2.139,-2.2842,-2.4416,-2.6096,-2.6788,-2.7102,-2.865,-3.0335,-3.1564,-3.2818,-3.4182,-3.4916,-3.504,-3.5015,-3.491,-3.4658,-3.4894,-3.4348,-3.3864,-3.3668,-3.3563,-3.2859,-3.2118,-3.1411,-3.0747,-3.0258,-2.9243,-2.7733,-2.6336,-2.478,-2.3627,-2.2014,-2.1001,-2.0615,-1.9913,-1.8789,-1.8149,-1.7415,-1.705,-1.8268,-1.9659,-2.0538,-2.1185,-2.1661,-2.224,-2.275,-2.3205,-2.2474,-2.1865,-2.1428,-2.1526,-2.2037,-2.2063,-2.2786,-2.3339,-2.3245,-2.3198,-2.3263,-2.3793,-2.4527,-2.5566,-2.6485,-2.7463,-2.831,-2.9123,-2.9992,-3.0494,-3.0979,-3.1288,-3.1846,-3.2822,-3.3789,-3.3945,-3.412,-3.4248,-3.402,-3.3529,-3.146,0.7875,0.7641,0.7624,0.7611,0.76,0.7513,0.7127,0.6526,0.4648,0.3684,0.3952,0.5716,0.6585,0.6649,0.6646,0.6834,0.6653,0.5922,0.4835,0.2424,0.009,-0.0815,-0.1095,-0.0456,0.0181,0.0998,0.2937,0.4146,0.272,-0.0099,-0.1592,-0.1703,-0.4379,-0.7902,-1.1178,-1.4339,-1.7919,-2.0553,-2.2331,-2.3629,-2.5214,-2.6966,-2.7368,-2.8645,-3.0429,-3.2195,-3.3031,-3.3973,-3.5052,-3.5314,-3.5255,-3.5325,-3.5394,-3.5546,-3.5135,-3.4602,-3.4222,-3.3862,-3.3245,-3.2397,-3.1585,-3.0905,-3.0513,-2.949,-2.7866,-2.6356,-2.4782,-2.3045,-2.1426,-2.0459,-2.0146,-1.9371,-1.8247,-1.7415,-1.6683,-1.6273,-1.7951,-1.9621,-2.0502,-2.1188,-2.1582,-2.2083,-2.2628,-2.3159,-2.2759,-2.2249,-2.2183,-2.2543,-2.2604,-2.2161,-2.2237,-2.2859,-2.3185,-2.3125,-2.3125,-2.3479,-2.4178,-2.4915,-2.5842,-2.7057,-2.8149,-2.8893,-2.9231,-2.8959,-2.9431,-3.0353,-3.1112,-3.1916,-3.2927,-3.401,-3.4477,-3.4518,-3.4176,-3.3551,-3.2327,0.7936,0.7773,0.777,0.7709,0.7624,0.7543,0.6384,0.4452,0.3923,0.3612,0.3519,0.3784,0.429,0.4289,0.4289,0.4759,0.5814,0.534,0.3276,0.0642,-0.284,-0.5127,-0.642,-0.6429,-0.9975,-0.939,-0.7719,-0.7475,-0.3428,-0.3669,-0.542,-0.7138,-0.8312,-1.1258,-1.4358,-1.6835,-1.8286,-2.0622,-2.2199,-2.3424,-2.4692,-2.6349,-2.7773,-2.9102,-3.0667,-3.1241,-3.196,-3.3325,-3.4041,-3.4543,-3.5052,-3.5344,-3.5604,-3.5688,-3.5341,-3.4707,-3.4356,-3.3507,-3.2805,-3.1625,-3.0652,-3.0394,-2.9782,-2.8909,-2.7424,-2.6198,-2.4418,-2.2422,-2.1028,-2.0113,-1.954,-1.8334,-1.7237,-1.678,-1.6108,-1.6601,-1.7654,-1.9293,-2.0592,-2.0888,-2.1102,-2.1682,-2.2347,-2.2308,-2.1731,-2.1341,-2.1274,-2.1678,-2.2115,-2.1926,-2.1862,-2.2445,-2.3078,-2.3125,-2.3125,-2.3138,-2.369,-2.4353,-2.5091,-2.6144,-2.7317,-2.8622,-2.8771,-2.7893,-2.8693,-2.9839,-3.0565,-3.0645,-3.2208,-3.3295,-3.428,-3.463,-3.4232,-3.3227,-3.1694]},{"header":{"parameterUnit":"m.s-1","parameterCategory":1,"la1":31.0,"la2":29.5877,"lo1":-88.7671,"lo2":-86.6584,"dy":0.0162,"dx":0.0185,"nx":115,"ny":88,"refTime":"2024-09-14T12:00:00:Z","depth":0,"parameterNumber":3,"parameterNumberName":"V-component_of_WINDS"},"data":[0.0,0.0,0.0,0.0,0.0,0.0,0.0,0.0,0.0,0.0,0.0,0.0,0.0,0.0,0.0,0.0,0.0,0.0,0.0,0.0,0.0,0.0,0.0,0.0,0.0,0.0,0.0,0.0,0.0,0.0,0.0,0.0,0.0,0.0,0.0,0.0,0.0,0.0,0.0,0.0,0.0,0.0,0.0,0.0,0.0,0.0,0.0,0.0,0.0,0.0,0.0,0.0,0.0,0.0,0.0,0.0,0.0,0.0,0.0,0.0,0.0,0.0,0.0,0.0,0.0,0.0,0.0,0.0,0.0,0.0,0.0,0.0,0.0,0.0,0.0,0.0,0.0,0.0,0.0,0.0,0.0,0.0,0.0,0.0,0.0,0.0,0.0,0.0,0.0,0.0,0.0,0.0,0.0,0.0,0.0,0.0,0.0,0.0,0.0,0.0,0.0,0.0,0.0,0.0,0.0,0.0,0.0,0.0,0.0,0.0,0.0,0.0,0.0,0.0,0.0,0.0,0.0,0.0,0.0,0.0,0.0,0.0,0.0,0.0,0.0,0.0,0.0,0.0,0.0,0.0,0.0,0.0,0.0,0.0,0.0,0.0,0.0,0.0,0.0,0.0,0.0,0.0,0.0,0.0,0.0,0.0,0.0,0.0,0.0,0.0,0.0,0.0,0.0,0.0,0.0,0.0,0.0,0.0,0.0,0.0,0.0,0.0,0.0,0.0,0.0,0.0,0.0,0.0,0.0,0.0,0.0,0.0,0.0,0.0,0.0,0.0,0.0,0.0,0.0,0.0,0.0,0.0,0.0,0.0,0.0,0.0,0.0,0.0,0.0,0.0,0.0,0.0,0.0,0.0,0.0,0.0,0.0,0.0,0.0,0.0,0.0,0.0,0.0,0.0,0.0,0.0,0.0,0.0,0.0,0.0,0.0,0.0,0.0,0.0,0.0,0.0,0.0,0.0,0.0,0.0,0.0,0.0,0.0,0.0,0.0,0.0,0.0,0.0,0.0,0.0,0.0,0.0,0.0,0.0,0.0,0.0,0.0,0.0,0.0,0.0,0.0,0.0,0.0,0.0,0.0,0.0,0.0,0.0,0.0,0.0,0.0,0.0,0.0,0.0,0.0,0.0,0.0,0.0,0.0,0.0,0.0,0.0,0.0,0.0,0.0,0.0,0.0,0.0,0.0,0.0,0.0,0.0,0.0,0.0,0.0,0.0,0.0,0.0,0.0,0.0,0.0,0.0,0.0,0.0,0.0,0.0,0.0,0.0,0.0,0.0,0.0,0.0,0.0,0.0,0.0,0.0,0.0,0.0,0.0,0.0,0.0,0.0,0.0,0.0,0.0,0.0,0.0,0.0,0.0,0.0,0.0,0.0,0.0,0.0,0.0,0.0,0.0,0.0,0.0,0.0,0.0,0.0,0.0,0.0,0.0,0.0,0.0,0.0,0.0,0.0,0.0,0.0,0.0,0.0,0.0,0.0,0.0,0.0,0.0,0.0,0.0,0.0,0.0,0.0,0.0,0.0,0.0,0.0,0.0,0.0,0.0,0.0,0.0,0.0,0.0,0.0,0.0,0.0,0.0,0.0,0.0,0.0,0.0,0.0,0.0,0.0,0.0,0.0,0.0,0.0,0.0,0.0,0.0,0.0,0.0,0.0,0.0,0.0,0.0,0.0,0.0,0.0,0.0,0.0,0.0,0.0,0.0,0.0,0.0,0.0,0.0,0.0,0.0,0.0,0.0,0.0,0.0,0.0,0.0,0.0,0.0,0.0,0.0,0.0,0.0,0.0,0.0,0.0,0.0,0.0,0.0,0.0,0.0,0.0,0.0,0.0,0.0,0.0,0.0,0.0,0.0,0.0,0.0,0.0,0.0,0.0,0.0,0.0,0.0,0.0,0.0,0.0,0.0,0.0,0.0,0.0,0.0,0.0,0.0,0.0,0.0,0.0,0.0,0.0,0.0,0.0,0.0,0.0,0.0,0.0,0.0,0.0,0.0,0.0,0.0,0.0,0.0,0.0,0.0,0.0,0.0,0.0,0.0,0.0,0.0,0.0,0.0,0.0,0.0,0.0,0.0,0.0,0.0,0.0,0.0,0.0,0.0,0.0,0.0,0.0,0.0,0.0,0.0,0.0,0.0,0.0,0.0,0.0,0.0,0.0,0.0,0.0,0.0,0.0,0.0,0.0,0.0,0.0,0.0,0.0,0.0,0.0,0.0,0.0,0.0,0.0,0.0,0.0,0.0,0.0,0.0,0.0,0.0,0.0,0.0,0.0,0.0,0.0,0.0,0.0,0.0,0.0,0.0,0.0,0.0,0.0,0.0,0.0,0.0,0.0,0.0,0.0,0.0,0.0,0.0,0.0,0.0,0.0,0.0,0.0,0.0,0.0,0.0,0.0,0.0,0.0,0.0,0.0,0.0,0.0,0.0,0.0,0.0,0.0,0.0,0.0,0.0,0.0,0.0,0.0,0.0,0.0,0.0,0.0,0.0,0.0,0.0,0.0,0.0,0.0,0.0,0.0,0.0,0.0,0.0,0.0,0.0,0.0,0.0,0.0,0.0,0.0,0.0,0.0,0.0,0.0,0.0,0.0,0.0,0.0,0.0,0.0,0.0,0.0,0.0,0.0,0.0,0.0,0.0,0.0,0.0,0.0,0.0,0.0,0.0,0.0,0.0,0.0,0.0,0.0,0.0,0.0,0.0,0.0,0.0,0.0,0.0,0.0,0.0,0.0,0.0,0.0,0.0,0.0,0.0,0.0,0.0,0.0,0.0,0.0,0.0,0.0,0.0,0.0,0.0,0.0,0.0,0.0,0.0,0.0,0.0,0.0,0.0,0.0,0.0,0.0,0.0,0.0,0.0,0.0,0.0,0.0,0.0,0.0,0.0,0.0,0.0,0.0,0.0,0.0,0.0,0.0,0.0,0.0,0.0,0.0,0.0,0.0,0.0,0.0,0.0,0.0,0.0,0.0,0.0,0.0,0.0,0.0,0.0,0.0,0.0,0.0,0.0,0.0,0.0,0.0,0.0,0.0,0.0,0.0,0.0,0.0,0.0,0.0,0.0,0.0,0.0,0.0,0.0,0.0,0.0,0.0,0.0,0.0,0.0,0.0,0.0,0.0,0.0,0.0,0.0,0.0,0.0,0.0,0.0,0.0,0.0,0.0,0.0,0.0,0.0,0.0,0.0,0.0,0.0,0.0,0.0,0.0,0.0,0.0,0.0,0.0,0.0,0.0,0.0,0.0,0.0,0.0,0.0,0.0,0.0,0.0,0.0,0.0,0.0,0.0,0.0,0.0,0.0,0.0,0.0,0.0,0.0,0.0,0.0,0.0,0.0,0.0,0.0,0.0,0.0,0.0,0.0,0.0,0.0,0.0,0.0,0.0,0.0,0.0,0.0,0.0,0.0,0.0,0.0,0.0,0.0,0.0,0.0,0.0,0.0,0.0,0.0,0.0,0.0,0.0,0.0,0.0,0.0,0.0,0.0,0.0,0.0,0.0,0.0,0.0,0.0,0.0,0.0,0.0,0.0,0.0,0.0,0.0,0.0,0.0,0.0,0.0,0.0,0.0,0.0,0.0,0.0,0.0,0.0,0.0,0.0,0.0,0.0,0.0,0.0,0.0,0.0,0.0,0.0,0.0,0.0,0.0,0.0,0.0,0.0,0.0,0.0,0.0,0.0,0.0,0.0,0.0,0.0,0.0,0.0,0.0,0.0,0.0,0.0,0.0,0.0,0.0,0.0,0.0,0.0,0.0,0.0,0.0,0.0,0.0,0.0,0.0,0.0,0.0,0.0,0.0,0.0,0.0,0.0,0.0,0.0,0.0,0.0,0.0,0.0,0.0,0.0,0.0,0.0,0.0,0.0,0.0,0.0,0.0,0.0,0.0,0.0,0.0,0.0,0.0,0.0,0.0,0.0,0.0,0.0,0.0,0.0,0.0,0.0,0.0,0.0,0.0,0.0,0.0,0.0,0.0,0.0,0.0,0.0,0.0,0.0,0.0,0.0,0.0,0.0,0.0,0.0,0.0,0.0,0.0,0.0,0.0,0.0,0.0,0.0,0.0,0.0,0.0,0.0,0.0,0.0,0.0,0.0,0.0,0.0,0.0,0.0,0.0,0.0,0.0,0.0,0.0,0.0,0.0,0.0,0.0,0.0,0.0,0.0,0.0,0.0,0.0,0.0,0.0,0.0,0.0,0.0,0.0,0.0,0.0,0.0,0.0,0.0,0.0,0.0,0.0,0.0,0.0,0.0,0.0,2.283,0.0,0.0,0.0,0.0,0.0,0.0,0.0,0.0,0.0,0.0,0.0,0.0,0.0,0.0,0.0,0.0,0.0,0.0,0.0,0.0,0.0,0.0,0.0,0.0,0.0,0.0,0.0,0.0,0.0,0.0,0.0,0.0,0.0,0.0,0.0,0.0,0.0,0.0,0.0,0.0,0.0,0.0,0.0,0.0,0.0,0.0,0.0,0.0,0.0,0.0,0.0,0.0,0.0,0.0,0.0,0.0,0.0,0.0,0.0,0.0,0.0,0.0,0.0,0.0,0.0,0.0,0.0,0.0,0.0,0.0,0.0,0.0,0.0,0.0,0.0,0.0,0.0,0.0,0.0,0.0,0.0,0.0,0.0,0.0,0.0,0.0,0.0,0.0,0.0,0.0,0.0,0.0,0.0,0.0,0.0,0.0,0.0,0.0,0.0,0.0,0.0,0.0,0.0,0.0,0.0,0.0,0.0,0.0,0.0,0.0,2.2049,2.2265,2.2426,2.2563,2.2721,0.0,0.0,0.0,0.0,0.0,0.0,0.0,0.0,0.0,0.0,0.0,0.0,0.0,0.0,0.0,0.0,0.0,0.0,0.0,0.0,0.0,0.0,0.0,0.0,0.0,0.0,0.0,0.0,0.0,0.0,0.0,0.0,0.0,0.0,0.0,0.0,0.0,0.0,0.0,0.0,0.0,0.0,0.0,0.0,0.0,0.0,0.0,0.0,0.0,0.0,0.0,0.0,0.0,0.0,0.0,0.0,0.0,0.0,0.0,0.0,0.0,0.0,0.0,0.0,0.0,0.0,0.0,0.0,0.0,0.0,0.0,0.0,0.0,0.0,0.0,0.0,0.0,0.0,0.0,0.0,0.0,0.0,0.0,0.0,0.0,0.0,0.0,0.0,0.0,0.0,0.0,0.0,0.0,0.0,0.0,0.0,0.0,0.0,0.0,0.0,0.0,0.0,0.0,0.0,0.0,0.0,0.0,0.0,0.0,0.0,0.0,0.0,2.2237,2.2398,2.2625,0.0,0.0,0.0,0.0,0.0,0.0,0.0,0.0,0.0,0.0,0.0,0.0,0.0,0.0,0.0,0.0,0.0,0.0,0.0,0.0,0.0,0.0,0.0,0.0,0.0,0.0,0.0,0.0,0.0,0.0,0.0,0.0,0.0,0.0,0.0,0.0,0.0,0.0,0.0,0.0,0.0,0.0,0.0,0.0,0.0,0.0,0.0,0.0,0.0,0.0,0.0,0.0,0.0,0.0,0.0,0.0,0.0,0.0,0.0,0.0,0.0,0.0,0.0,0.0,0.0,0.0,0.0,0.0,0.0,0.0,0.0,0.0,0.0,0.0,0.0,0.0,0.0,0.0,0.0,0.0,0.0,0.0,0.0,0.0,0.0,0.0,0.0,0.0,0.0,0.0,0.0,0.0,0.0,0.0,0.0,0.0,0.0,0.0,0.0,0.0,0.0,0.0,0.0,0.0,0.0,0.0,0.0,0.0,0.0,0.0,2.1628,2.1658,2.2077,0.0,2.2349,0.0,0.0,0.0,0.0,0.0,0.0,0.0,0.0,0.0,0.0,0.0,0.0,0.0,0.0,0.0,0.0,0.0,0.0,0.0,0.0,0.0,0.0,0.0,0.0,0.0,0.0,0.0,0.0,0.0,0.0,0.0,0.0,0.0,0.0,0.0,0.0,0.0,0.0,0.0,0.0,0.0,0.0,0.0,0.0,0.0,0.0,0.0,0.0,0.0,0.0,0.0,0.0,0.0,0.0,0.0,0.0,0.0,0.0,0.0,0.0,0.0,0.0,0.0,0.0,0.0,0.0,0.0,0.0,0.0,0.0,0.0,0.0,0.0,0.0,0.0,0.0,0.0,0.0,0.0,0.0,0.0,0.0,0.0,0.0,0.0,0.0,0.0,0.0,0.0,0.0,0.0,0.0,0.0,0.0,0.0,0.0,0.0,0.0,0.0,0.0,0.0,0.0,0.0,0.0,0.0,0.0,0.0,0.0,0.0,0.0,2.052,2.0766,2.1505,2.2032,0.0,0.0,0.0,0.0,0.0,0.0,0.0,0.0,0.0,0.0,0.0,0.0,0.0,0.0,0.0,0.0,0.0,0.0,0.0,0.0,0.0,0.0,0.0,0.0,0.0,0.0,0.0,0.0,0.0,0.0,0.0,0.0,0.0,0.0,0.0,0.0,0.0,0.0,0.0,0.0,0.0,0.0,0.0,0.0,0.0,0.0,0.0,0.0,0.0,0.0,0.0,0.0,0.0,0.0,0.0,0.0,0.0,0.0,0.0,0.0,0.0,0.0,0.0,0.0,0.0,0.0,0.0,0.0,0.0,0.0,0.0,0.0,0.0,0.0,0.0,0.0,0.0,0.0,0.0,0.0,0.0,0.0,0.0,0.0,0.0,0.0,0.0,0.0,0.0,0.0,0.0,0.0,0.0,0.0,0.0,0.0,0.0,0.0,0.0,0.0,0.0,0.0,0.0,0.0,0.0,0.0,0.0,0.0,0.0,0.0,1.903,1.9647,2.0206,2.1117,2.1665,2.1787,0.0,0.0,0.0,0.0,0.0,0.0,0.0,0.0,0.0,0.0,0.0,0.0,0.0,0.0,0.0,0.0,0.0,0.0,0.0,0.0,0.0,0.0,0.0,0.0,0.0,0.0,0.0,0.0,0.0,0.0,0.0,0.0,0.0,0.0,0.0,0.0,0.0,0.0,0.0,0.0,0.0,0.0,0.0,0.0,0.0,0.0,0.0,0.0,0.0,0.0,0.0,0.0,0.0,0.0,0.0,0.0,0.0,0.0,0.0,0.0,0.0,0.0,0.0,0.0,0.0,0.0,0.0,0.0,0.0,0.0,0.0,0.0,0.0,0.0,0.0,0.0,0.0,0.0,0.0,0.0,0.0,0.0,0.0,0.0,0.0,0.0,0.0,0.0,0.0,0.0,0.0,0.0,0.0,0.0,0.0,0.0,0.0,0.0,0.0,0.0,0.0,0.0,0.0,0.0,0.0,0.0,0.0,0.0,1.7409,1.8349,1.9279,2.0172,2.1117,2.1282,0.0,0.0,0.0,0.0,0.0,0.0,0.0,0.0,0.0,0.0,0.0,0.0,0.0,0.0,0.0,0.0,0.0,0.0,0.0,0.0,0.0,0.0,0.0,0.0,0.0,0.0,0.0,0.0,0.0,0.0,0.0,0.0,0.0,0.0,0.0,0.0,0.0,0.0,0.0,0.0,0.0,0.0,0.0,0.0,0.0,0.0,0.0,0.0,0.0,0.0,0.0,0.0,0.0,0.0,0.0,0.0,0.0,0.0,0.0,0.0,0.0,0.0,0.0,0.0,0.0,0.0,0.0,0.0,0.0,0.0,0.0,0.0,0.0,0.0,0.0,0.0,0.0,0.0,0.0,0.0,0.0,0.0,0.0,0.0,0.0,0.0,0.0,0.0,0.0,0.0,0.0,0.0,0.0,0.0,0.0,0.0,0.0,0.0,0.0,0.0,0.0,0.0,0.0,0.0,0.0,0.0,0.0,0.0,0.0,1.7312,1.7999,1.8821,1.9803,2.0716,2.107,0.0,0.0,0.0,0.0,0.0,0.0,0.0,0.0,0.0,0.0,0.0,0.0,0.0,0.0,0.0,0.0,0.0,0.0,0.0,0.0,0.0,0.0,0.0,0.0,0.0,0.0,0.0,0.0,0.0,0.0,0.0,0.0,0.0,0.0,0.0,0.0,0.0,0.0,0.0,0.0,0.0,0.0,0.0,0.0,0.0,0.0,0.0,0.0,0.0,0.0,0.0,0.0,0.0,0.0,0.0,0.0,0.0,0.0,0.0,0.0,0.0,0.0,0.0,0.0,0.0,0.0,0.0,0.0,0.0,0.0,0.0,0.0,0.0,0.0,0.0,0.0,0.0,0.0,0.0,0.0,0.0,0.0,0.0,0.0,0.0,0.0,0.0,0.0,0.0,0.0,0.0,0.0,0.0,0.0,0.0,0.0,0.0,0.0,0.0,0.0,0.0,0.0,0.0,0.0,0.0,0.0,0.0,0.0,0.0,1.7271,0.0,1.8235,1.9096,2.0043,2.0575,0.0,0.0,0.0,0.0,0.0,0.0,0.0,0.0,0.0,0.0,0.0,0.0,0.0,0.0,0.0,0.0,0.0,0.0,0.0,0.0,0.0,0.0,0.0,0.0,0.0,0.0,0.0,0.0,0.0,0.0,0.0,0.0,0.0,0.0,0.0,0.0,0.0,0.0,0.0,0.0,0.0,0.0,0.0,0.0,0.0,0.0,0.0,0.0,0.0,0.0,0.0,0.0,0.0,0.0,0.0,0.0,0.0,0.0,0.0,0.0,0.0,0.0,0.0,0.0,0.0,0.0,0.0,0.0,0.0,0.0,0.0,0.0,0.0,0.0,0.0,0.0,0.0,0.0,0.0,0.0,0.0,0.0,0.0,0.0,0.0,0.0,0.0,0.0,0.0,0.0,0.0,0.0,0.0,0.0,0.0,0.0,0.0,0.0,0.0,0.0,0.0,0.0,0.0,0.0,0.0,0.0,0.0,0.0,1.7312,1.7312,1.7312,1.7544,1.8106,1.9045,1.9798,0.0,0.0,0.0,0.0,0.0,0.0,0.0,0.0,0.0,0.0,0.0,0.0,0.0,0.0,0.0,0.0,0.0,0.0,0.0,0.0,0.0,0.0,0.0,0.0,0.0,0.0,0.0,0.0,0.0,0.0,0.0,0.0,0.0,0.0,0.0,0.0,0.0,0.0,0.0,0.0,0.0,0.0,0.0,0.0,0.0,0.0,0.0,0.0,0.0,0.0,0.0,0.0,0.0,0.0,0.0,0.0,0.0,0.0,0.0,0.0,0.0,0.0,0.0,0.0,0.0,0.0,0.0,0.0,0.0,0.0,0.0,0.0,0.0,0.0,0.0,0.0,0.0,0.0,0.0,0.0,0.0,0.0,0.0,0.0,0.0,0.0,0.0,0.0,0.0,0.0,0.0,0.0,0.0,0.0,0.0,0.0,0.0,0.0,0.0,0.0,0.0,0.0,0.0,0.0,0.0,0.0,0.0,0.0,0.0,1.7312,1.6912,1.6941,1.7544,1.8057,1.8806,0.0,0.0,0.0,0.0,0.0,0.0,0.0,0.0,0.0,0.0,0.0,0.0,0.0,0.0,0.0,0.0,0.0,0.0,0.0,0.0,0.0,0.0,0.0,0.0,0.0,0.0,0.0,0.0,0.0,0.0,0.0,0.0,0.0,0.0,0.0,0.0,0.0,0.0,0.0,0.0,0.0,0.0,0.0,0.0,0.0,0.0,0.0,0.0,0.0,0.0,0.0,0.0,0.0,0.0,0.0,0.0,0.0,0.0,0.0,0.0,0.0,0.0,0.0,0.0,0.0,0.0,0.0,0.0,0.0,0.0,0.0,0.0,0.0,0.0,0.0,0.0,0.0,0.0,0.0,0.0,0.0,0.0,0.0,0.0,0.0,0.0,0.0,0.0,0.0,0.0,0.0,0.0,0.0,0.0,0.0,0.0,0.0,0.0,0.0,0.0,0.0,0.0,0.0,0.0,0.0,0.0,0.0,0.0,0.0,1.7894,1.6928,1.6562,1.6967,1.7154,1.7927,1.929,0.0,0.0,0.0,0.0,0.0,0.0,0.0,0.0,0.0,0.0,0.0,0.0,0.0,0.0,0.0,0.0,0.0,0.0,0.0,0.0,0.0,0.0,0.0,0.0,0.0,0.0,0.0,0.0,0.0,0.0,0.0,0.0,0.0,0.0,0.0,0.0,0.0,0.0,0.0,0.0,0.0,0.0,0.0,0.0,0.0,0.0,0.0,0.0,0.0,0.0,0.0,0.0,0.0,0.0,0.0,0.0,0.0,0.0,0.0,0.0,0.0,0.0,0.0,0.0,0.0,0.0,0.0,0.0,0.0,0.0,0.0,0.0,0.0,0.0,0.0,0.0,0.0,0.0,0.0,0.0,0.0,0.0,0.0,0.0,0.0,0.0,0.0,0.0,0.0,0.0,0.0,0.0,0.0,0.0,0.0,0.0,0.0,0.0,0.0,0.0,0.0,0.0,0.0,0.0,0.0,0.0,0.0,0.0,1.893,1.7315,1.6506,1.6464,1.6391,1.7196,0.0,0.0,0.0,0.0,0.0,0.0,0.0,0.0,0.0,0.0,0.0,0.0,0.0,0.0,0.0,0.0,0.0,0.0,0.0,0.0,0.0,0.0,0.0,0.0,0.0,0.0,0.0,0.0,0.0,0.0,0.0,0.0,0.0,0.0,0.0,0.0,0.0,0.0,0.0,0.0,0.0,0.0,0.0,0.0,0.0,0.0,0.0,0.0,0.0,0.0,0.0,0.0,0.0,0.0,0.0,0.0,0.0,0.0,0.0,0.0,0.0,0.0,0.0,0.0,0.0,0.0,0.0,0.0,0.0,0.0,0.0,0.0,0.0,0.0,0.0,0.0,0.0,0.0,0.0,0.0,0.0,0.0,0.0,0.0,0.0,0.0,0.0,0.0,0.0,0.0,0.0,0.0,0.0,0.0,0.0,0.0,0.0,0.0,0.0,0.0,0.0,0.0,0.0,0.0,0.0,0.0,0.0,0.0,0.0,1.9405,1.8107,1.733,1.7079,1.6232,1.657,0.0,0.0,0.0,0.0,0.0,0.0,0.0,0.0,0.0,0.0,0.0,0.0,0.0,0.0,0.0,0.0,0.0,0.0,0.0,0.0,0.0,0.0,0.0,0.0,0.0,0.0,0.0,0.0,0.0,0.0,0.0,0.0,0.0,0.0,0.0,0.0,0.0,0.0,0.0,0.0,0.0,0.0,0.0,0.0,0.0,0.0,0.0,0.0,0.0,0.0,0.0,0.0,0.0,0.0,0.0,0.0,0.0,0.0,0.0,0.0,0.0,0.0,0.0,0.0,0.0,0.0,0.0,0.0,0.0,0.0,0.0,0.0,0.0,0.0,0.0,0.0,0.0,0.0,0.0,0.0,0.0,0.0,0.0,0.0,0.0,0.0,0.0,0.0,0.0,0.0,0.0,0.0,0.0,0.0,0.0,0.0,0.0,0.0,0.0,0.0,0.0,0.0,0.0,0.0,0.0,0.0,0.0,0.0,2.0748,2.0215,1.9111,1.8365,1.7946,1.6409,1.6164,0.0,0.0,0.0,0.0,0.0,0.0,0.0,0.0,0.0,0.0,0.0,0.0,0.0,0.0,0.0,0.0,0.0,0.0,0.0,0.0,0.0,0.0,0.0,0.0,0.0,0.0,0.0,0.0,0.0,0.0,0.0,0.0,0.0,0.0,0.0,0.0,0.0,0.0,0.0,0.0,0.0,0.0,0.0,0.0,0.0,0.0,0.0,0.0,0.0,0.0,0.0,0.0,0.0,0.0,0.0,0.0,0.0,0.0,0.0,0.0,0.0,0.0,0.0,0.0,0.0,0.0,0.0,0.0,0.0,0.0,0.0,0.0,0.0,0.0,0.0,0.0,0.0,0.0,0.0,0.0,0.0,0.0,0.0,0.0,0.0,0.0,0.0,0.0,0.0,0.0,0.0,0.0,0.0,0.0,0.0,0.0,0.0,0.0,0.0,0.0,0.0,0.0,0.0,0.0,0.0,0.0,0.0,0.0,2.1086,2.1071,2.0131,1.9411,1.8777,1.6834,1.5971,0.0,0.0,0.0,0.0,0.0,0.0,0.0,0.0,0.0,0.0,0.0,0.0,0.0,0.0,0.0,0.0,0.0,0.0,0.0,0.0,0.0,0.0,0.0,0.0,0.0,0.0,0.0,0.0,0.0,0.0,0.0,0.0,0.0,0.0,0.0,0.0,0.0,0.0,0.0,0.0,0.0,0.0,0.0,0.0,0.0,0.0,0.0,0.0,0.0,0.0,0.0,0.0,0.0,0.0,0.0,0.0,0.0,0.0,0.0,0.0,0.0,0.0,0.0,0.0,0.0,0.0,0.0,0.0,0.0,0.0,0.0,0.0,0.0,0.0,0.0,0.0,0.0,0.0,0.0,0.0,0.0,0.0,0.0,0.0,0.0,0.0,0.0,0.0,0.0,0.0,0.0,0.0,0.0,0.0,0.0,0.0,0.0,0.0,0.0,0.0,0.0,0.0,0.0,0.0,0.0,0.0,0.0,0.0,2.184,2.1444,2.0571,1.9652,1.8829,1.7572,1.6811,0.0,0.0,0.0,0.0,0.0,0.0,0.0,0.0,0.0,0.0,0.0,0.0,0.0,0.0,0.0,0.0,0.0,0.0,0.0,0.0,0.0,0.0,0.0,0.0,0.0,0.0,0.0,0.0,0.0,0.0,0.0,0.0,0.0,0.0,0.0,0.0,0.0,0.0,0.0,0.0,0.0,0.0,0.0,0.0,0.0,0.0,0.0,0.0,3.1878,0.0,0.0,0.0,0.0,0.0,0.0,0.0,0.0,0.0,0.0,0.0,0.0,0.0,0.0,0.0,0.0,0.0,0.0,0.0,0.0,0.0,0.0,0.0,0.0,0.0,0.0,0.0,0.0,0.0,0.0,0.0,0.0,0.0,0.0,0.0,0.0,0.0,0.0,0.0,0.0,0.0,0.0,0.0,0.0,0.0,0.0,0.0,0.0,0.0,0.0,0.0,0.0,0.0,0.0,0.0,0.0,0.0,0.0,0.0,2.2375,2.2102,2.1116,2.0237,1.9459,1.831,1.7312,0.0,0.0,0.0,0.0,0.0,0.0,0.0,0.0,0.0,0.0,0.0,0.0,0.0,0.0,0.0,0.0,0.0,0.0,0.0,0.0,0.0,0.0,0.0,0.0,0.0,0.0,0.0,0.0,0.0,0.0,0.0,0.0,0.0,0.0,0.0,0.0,0.0,0.0,0.0,0.0,0.0,0.0,0.0,0.0,0.0,0.0,0.0,0.0,0.0,0.0,0.0,0.0,0.0,0.0,0.0,0.0,0.0,0.0,0.0,0.0,0.0,0.0,0.0,0.0,0.0,0.0,0.0,0.0,0.0,0.0,0.0,0.0,0.0,0.0,0.0,0.0,0.0,0.0,0.0,0.0,0.0,0.0,0.0,0.0,0.0,0.0,0.0,0.0,0.0,0.0,0.0,0.0,0.0,0.0,0.0,0.0,0.0,0.0,0.0,0.0,0.0,0.0,0.0,0.0,0.0,0.0,0.0,2.2855,2.2695,2.2669,2.1592,2.0765,2.0206,1.8919,1.7747,1.6795,0.0,0.0,0.0,0.0,0.0,0.0,0.0,0.0,0.0,0.0,0.0,0.0,0.0,0.0,0.0,0.0,0.0,0.0,0.0,0.0,0.0,0.0,0.0,0.0,0.0,0.0,0.0,0.0,0.0,0.0,0.0,0.0,0.0,0.0,0.0,0.0,0.0,0.0,2.9586,3.0286,0.0,0.0,0.0,0.0,0.0,0.0,0.0,0.0,3.4013,0.0,0.0,0.0,0.0,0.0,0.0,0.0,0.0,0.0,0.0,0.0,0.0,0.0,0.0,0.0,0.0,0.0,0.0,0.0,0.0,0.0,0.0,0.0,0.0,0.0,0.0,0.0,0.0,0.0,0.0,0.0,0.0,0.0,0.0,0.0,0.0,0.0,0.0,0.0,0.0,0.0,0.0,0.0,0.0,0.0,0.0,0.0,0.0,0.0,0.0,0.0,0.0,0.0,0.0,0.0,0.0,2.3165,2.2855,2.2695,2.2695,2.1592,2.0749,2.0206,1.928,1.8496,1.7867,0.0,0.0,0.0,0.0,0.0,0.0,0.0,0.0,0.0,0.0,0.0,0.0,0.0,0.0,0.0,0.0,0.0,0.0,0.0,0.0,0.0,0.0,0.0,0.0,0.0,0.0,0.0,0.0,0.0,0.0,0.0,0.0,0.0,0.0,0.0,0.0,0.0,0.0,0.0,3.2023,3.2487,0.0,0.0,0.0,0.0,0.0,0.0,0.0,0.0,3.4276,0.0,0.0,0.0,0.0,0.0,0.0,0.0,0.0,0.0,0.0,0.0,0.0,0.0,0.0,0.0,0.0,0.0,0.0,0.0,0.0,0.0,0.0,0.0,0.0,0.0,0.0,0.0,0.0,0.0,0.0,0.0,0.0,0.0,0.0,0.0,0.0,0.0,0.0,0.0,0.0,0.0,0.0,0.0,0.0,0.0,0.0,0.0,0.0,0.0,0.0,0.0,0.0,0.0,0.0,0.0,2.3392,2.33,2.3212,2.3189,2.2118,2.1332,2.0879,1.9823,1.9014,0.0,0.0,0.0,0.0,0.0,0.0,0.0,0.0,0.0,0.0,0.0,0.0,0.0,0.0,0.0,0.0,0.0,0.0,0.0,0.0,0.0,0.0,0.0,0.0,0.0,0.0,0.0,0.0,0.0,0.0,0.0,0.0,0.0,0.0,0.0,0.0,0.0,0.0,0.0,0.0,3.2081,3.2429,3.2833,0.0,0.0,0.0,0.0,0.0,0.0,3.402,3.4314,0.0,0.0,0.0,0.0,0.0,0.0,0.0,0.0,0.0,0.0,0.0,0.0,0.0,0.0,0.0,0.0,0.0,0.0,0.0,0.0,0.0,0.0,0.0,0.0,0.0,0.0,0.0,0.0,0.0,0.0,0.0,0.0,0.0,0.0,0.0,0.0,0.0,0.0,0.0,0.0,0.0,0.0,0.0,0.0,0.0,0.0,0.0,0.0,0.0,0.0,0.0,0.0,0.0,0.0,0.0,2.3774,2.3735,2.371,2.3671,2.2643,2.1893,2.1497,2.0255,1.9368,0.0,0.0,0.0,0.0,0.0,0.0,0.0,0.0,0.0,0.0,0.0,0.0,0.0,0.0,0.0,0.0,0.0,0.0,0.0,0.0,0.0,0.0,0.0,0.0,0.0,0.0,0.0,0.0,0.0,0.0,0.0,0.0,0.0,0.0,0.0,0.0,0.0,0.0,0.0,0.0,0.0,3.2641,3.3083,3.2468,0.0,0.0,0.0,0.0,3.3782,3.4212,0.0,0.0,0.0,0.0,0.0,0.0,0.0,0.0,0.0,0.0,0.0,0.0,0.0,0.0,0.0,0.0,0.0,0.0,0.0,0.0,0.0,0.0,0.0,0.0,0.0,0.0,0.0,0.0,0.0,0.0,0.0,0.0,0.0,0.0,0.0,0.0,0.0,0.0,0.0,0.0,0.0,0.0,0.0,0.0,0.0,0.0,0.0,0.0,0.0,0.0,0.0,0.0,0.0,0.0,0.0,0.0,2.4056,2.3837,2.371,2.3671,2.2651,2.191,2.1513,2.0255,1.9383,0.0,0.0,0.0,0.0,0.0,0.0,0.0,0.0,0.0,0.0,0.0,0.0,0.0,0.0,0.0,0.0,0.0,0.0,0.0,0.0,0.0,0.0,0.0,0.0,0.0,0.0,0.0,0.0,0.0,0.0,0.0,0.0,0.0,0.0,0.0,0.0,0.0,0.0,0.0,0.0,0.0,3.4814,3.4141,3.3295,3.3026,0.0,0.0,3.3199,3.402,3.4814,0.0,0.0,0.0,0.0,0.0,0.0,0.0,0.0,0.0,0.0,0.0,0.0,0.0,0.0,0.0,0.0,0.0,0.0,0.0,0.0,0.0,0.0,0.0,0.0,0.0,0.0,0.0,0.0,0.0,0.0,0.0,0.0,0.0,0.0,0.0,0.0,0.0,0.0,0.0,0.0,0.0,0.0,0.0,0.0,0.0,0.0,0.0,0.0,0.0,0.0,0.0,0.0,0.0,0.0,0.0,2.2832,2.3896,2.4059,2.4116,2.3976,2.3458,2.2723,2.1747,2.0767,1.9665,0.0,0.0,0.0,0.0,0.0,0.0,0.0,0.0,0.0,0.0,0.0,0.0,0.0,0.0,0.0,0.0,0.0,0.0,0.0,0.0,0.0,0.0,0.0,0.0,0.0,0.0,0.0,0.0,0.0,0.0,0.0,0.0,0.0,0.0,0.0,0.0,0.0,0.0,0.0,0.0,0.0,0.0,3.4853,3.4199,0.0,0.0,0.0,3.3776,3.4141,0.0,0.0,0.0,0.0,0.0,0.0,0.0,0.0,0.0,0.0,0.0,0.0,0.0,0.0,0.0,0.0,0.0,0.0,0.0,0.0,0.0,0.0,0.0,0.0,0.0,0.0,0.0,0.0,0.0,0.0,0.0,0.0,0.0,0.0,0.0,0.0,0.0,0.0,0.0,0.0,0.0,0.0,0.0,0.0,0.0,0.0,0.0,0.0,0.0,0.0,0.0,0.0,0.0,0.0,0.0,0.0,0.0,2.3816,2.4266,2.4428,2.4284,2.4081,2.3415,2.2158,2.1087,0.0,0.0,0.0,0.0,0.0,0.0,0.0,0.0,0.0,0.0,0.0,0.0,0.0,0.0,0.0,0.0,0.0,0.0,0.0,0.0,0.0,0.0,0.0,0.0,0.0,0.0,0.0,2.3489,0.0,0.0,0.0,0.0,0.0,0.0,0.0,0.0,0.0,0.0,0.0,0.0,0.0,0.0,3.3699,3.5007,3.4622,3.4257,0.0,0.0,3.3949,3.4193,3.3455,3.3058,0.0,0.0,0.0,0.0,0.0,0.0,0.0,0.0,0.0,0.0,0.0,0.0,0.0,0.0,0.0,0.0,0.0,0.0,0.0,0.0,0.0,0.0,0.0,0.0,0.0,0.0,0.0,0.0,0.0,0.0,0.0,0.0,0.0,0.0,0.0,0.0,0.0,0.0,0.0,0.0,0.0,0.0,0.0,0.0,0.0,0.0,0.0,0.0,0.0,0.0,0.0,0.0,0.0,0.0,2.1673,2.4058,2.4393,2.4495,2.4461,2.4155,2.3622,2.2817,2.097,1.9311,0.0,0.0,0.0,0.0,0.0,0.0,0.0,0.0,0.0,0.0,0.0,0.0,0.0,0.0,0.0,0.0,0.0,0.0,0.0,0.0,0.0,0.0,0.0,0.0,0.0,0.0,0.0,0.0,0.0,0.0,0.0,0.0,0.0,0.0,0.0,0.0,0.0,0.0,0.0,0.0,0.0,3.416,3.4276,3.4237,3.4487,0.0,3.4026,3.3256,3.4064,3.3468,3.2679,3.1987,0.0,0.0,0.0,0.0,0.0,0.0,0.0,0.0,0.0,0.0,0.0,0.0,0.0,0.0,0.0,0.0,0.0,0.0,0.0,0.0,0.0,0.0,0.0,0.0,0.0,0.0,0.0,0.0,0.0,0.0,0.0,0.0,0.0,0.0,0.0,0.0,0.0,0.0,0.0,0.0,0.0,0.0,0.0,0.0,0.0,0.0,0.0,0.0,0.0,0.0,0.0,0.0,0.0,2.0704,2.3476,2.3948,2.4229,2.4303,2.41,2.3458,2.2332,2.1054,1.9341,0.0,0.0,0.0,0.0,0.0,0.0,0.0,0.0,0.0,0.0,0.0,0.0,0.0,0.0,0.0,0.0,0.0,0.0,0.0,0.0,0.0,0.0,0.0,0.0,0.0,0.0,0.0,0.0,2.5205,2.5459,2.5489,0.0,0.0,0.0,0.0,0.0,0.0,0.0,0.0,0.0,0.0,3.4391,3.493,3.5007,0.0,0.0,3.4916,3.441,3.4237,3.3462,3.2788,3.2487,3.2025,0.0,0.0,0.0,0.0,0.0,0.0,0.0,0.0,0.0,0.0,0.0,0.0,0.0,0.0,0.0,0.0,0.0,0.0,0.0,0.0,0.0,0.0,0.0,0.0,0.0,0.0,0.0,0.0,0.0,0.0,0.0,0.0,0.0,0.0,0.0,0.0,0.0,0.0,0.0,0.0,0.0,0.0,0.0,0.0,0.0,0.0,0.0,0.0,0.0,0.0,0.0,0.0,1.8996,2.2107,2.2981,2.3601,2.3999,2.3773,2.3084,2.1847,2.081,1.9095,0.0,0.0,0.0,0.0,0.0,0.0,0.0,0.0,0.0,0.0,0.0,0.0,0.0,0.0,0.0,0.0,0.0,0.0,0.0,0.0,0.0,0.0,0.0,0.0,0.0,0.0,0.0,0.0,2.5302,2.5398,2.5471,0.0,0.0,0.0,0.0,0.0,0.0,0.0,0.0,0.0,0.0,3.4507,3.5372,3.5507,3.5507,3.5507,3.5295,3.4891,3.4295,3.3692,3.3288,3.3276,0.0,0.0,0.0,0.0,0.0,0.0,0.0,0.0,0.0,0.0,0.0,0.0,0.0,0.0,0.0,0.0,0.0,0.0,0.0,0.0,0.0,0.0,0.0,0.0,0.0,0.0,0.0,-0.8907,0.0,0.0,-0.1074,0.0,0.0,0.0,0.0,0.0,0.0,0.0,0.0,0.0,0.0,0.0,0.0,0.0,0.0,0.0,0.0,0.0,0.0,0.0,0.0,0.0,0.0,1.6438,1.9911,2.1383,2.257,2.3455,2.3119,2.2489,2.1545,2.0048,1.8548,1.7066,0.0,0.0,0.0,0.0,0.0,0.0,0.0,0.0,0.0,0.0,0.0,0.0,0.0,0.0,0.0,0.0,0.0,0.0,0.0,0.0,0.0,0.0,0.0,0.0,0.0,0.0,2.4998,2.5173,2.534,0.0,0.0,0.0,0.0,0.0,0.0,0.0,0.0,0.0,3.3605,3.4026,3.4526,3.5359,3.5507,3.5545,3.5526,3.4853,3.4276,3.4276,3.4212,3.418,0.0,0.0,0.0,0.0,0.0,0.0,0.0,0.0,0.0,0.0,0.0,0.0,0.0,0.0,0.0,0.0,0.0,0.0,0.0,0.0,0.0,0.0,0.0,0.0,0.0,0.0,0.0,-1.1075,-1.0079,0.0,0.0,0.0,0.0,0.0,0.0,0.0,0.0,0.0,0.0,0.0,-1.2524,-1.4158,0.0,0.0,0.0,0.0,0.0,0.0,0.0,0.0,0.0,0.0,0.0,0.0,1.365,1.7812,1.95,2.101,2.2367,2.2044,2.1006,1.9298,1.8179,1.6744,1.4988,0.0,0.0,0.0,0.0,0.0,0.0,0.0,0.0,0.0,0.0,0.0,0.0,0.0,0.0,0.0,0.0,0.0,0.0,0.0,0.0,0.0,0.0,0.0,0.0,0.0,2.4746,0.0,0.0,0.0,0.0,0.0,0.0,0.0,0.0,0.0,0.0,0.0,3.367,3.4547,3.4894,3.5119,3.5216,3.5844,3.6295,0.0,0.0,0.0,0.0,0.0,0.0,0.0,0.0,0.0,0.0,0.0,0.0,0.0,0.0,4.2402,3.8316,3.7106,3.6577,3.6184,0.0,0.0,0.0,0.0,0.0,0.0,0.0,0.0,0.0,0.0,0.0,0.0,0.0,0.0,-1.1387,-1.1533,-1.1025,0.0,0.0,0.0,0.0,0.0,0.0,0.0,0.0,-0.7721,-0.8705,-0.9642,-1.1241,-1.255,0.0,-1.4049,-1.4541,0.0,0.0,0.0,0.0,0.0,0.0,0.0,0.0,1.0484,1.4725,1.7191,1.9398,2.1374,2.1308,2.024,1.8274,1.6358,1.46,1.3098,1.3566,1.3799,0.0,0.0,0.0,0.0,0.0,0.0,0.0,0.0,0.0,0.0,0.0,0.0,0.0,0.0,0.0,0.0,0.0,0.0,0.0,0.0,0.0,0.0,0.0,2.4467,0.0,0.0,0.0,0.0,0.0,0.0,0.0,0.0,0.0,3.3737,3.4295,3.4976,3.5827,3.5665,3.5513,3.5522,0.0,0.0,0.0,0.0,0.0,0.0,0.0,3.7007,3.7507,3.8022,3.857,3.9224,4.1576,4.3344,4.3181,0.0,0.0,4.0906,3.9726,3.9163,3.8761,3.9296,3.9681,3.9388,3.9931,4.0335,0.0,0.0,0.0,0.0,0.0,0.0,0.0,0.0,-1.0235,-1.1239,0.0,-1.3593,0.0,0.0,0.0,0.0,-1.0991,-0.9971,0.0,0.0,-0.4189,-0.5151,-0.7081,-0.7929,-0.944,-1.1612,-1.304,-1.4031,-1.4731,-1.5383,0.0,0.0,0.0,0.0,0.0,0.0,0.6911,1.0714,1.4421,1.7776,2.0655,2.0958,2.0133,1.8155,1.4433,1.2086,1.1522,1.2593,1.3554,1.4181,1.4127,0.0,0.0,0.0,0.0,0.0,0.0,0.0,0.0,0.0,0.0,0.0,0.0,0.0,0.0,0.0,0.0,0.0,0.0,0.0,0.0,2.352,0.0,0.0,0.0,0.0,0.0,0.0,0.0,0.0,0.0,3.5584,3.5551,3.5565,3.6017,3.7315,0.0,0.0,0.0,0.0,3.6757,3.6776,3.7488,3.8046,3.8046,3.8738,3.9315,3.9315,0.0,0.0,3.9627,4.1664,4.3189,4.2502,4.3823,4.5193,4.5711,4.4195,4.3342,4.3819,4.2058,4.0943,4.1508,4.1046,4.0585,-1.2423,0.0,0.0,0.0,0.0,-1.0948,-1.0781,-1.1265,-1.1323,-1.1931,-1.2946,-1.3647,0.0,0.0,0.0,0.0,0.0,0.0,-0.7686,-0.4347,-0.3255,-0.3044,-0.3723,-0.4953,-0.6911,-0.9554,-1.1886,-1.4005,-1.5928,-1.701,-1.598,-1.2929,0.0,0.0,0.0,0.0,0.2754,0.8014,1.2369,1.6455,2.0369,2.1333,1.8905,1.2946,1.024,0.8789,0.8645,0.9846,1.233,1.603,1.6401,0.0,0.0,0.0,0.0,0.0,0.0,0.0,0.0,0.0,0.0,0.0,0.0,0.0,0.0,0.0,0.0,0.0,0.0,0.0,2.3618,2.4622,2.543,0.0,0.0,0.0,0.0,0.0,0.0,0.0,0.0,0.0,3.7276,3.6738,3.6665,0.0,0.0,3.5705,3.6226,3.706,3.7623,3.7623,3.8373,0.0,3.8911,3.9615,4.0149,4.0158,4.0935,4.1524,4.1364,4.2558,4.3489,4.3315,4.371,4.4139,4.4185,4.3402,4.2487,4.1934,4.1615,4.1614,4.1732,4.1585,4.1412,-1.11,-1.2654,-1.1528,-1.1572,-1.2371,-1.1968,-1.1868,-1.2029,-1.2087,-1.2482,-1.3244,-1.4149,-1.5151,-1.6192,-1.6284,0.0,0.0,0.0,-0.7061,-0.3487,-0.1705,-0.0883,-0.099,-0.2676,-0.5284,-0.8595,-1.161,-1.446,-1.7193,-1.8372,-1.8182,-1.6657,0.0,0.0,-1.0012,-0.6503,-0.1655,0.4644,0.9591,1.4611,1.9765,2.0986,1.8564,1.2334,0.8252,0.5514,0.4134,0.6787,1.1137,1.7297,1.8115,1.7884,0.0,0.0,0.0,0.0,0.0,0.0,0.0,0.0,0.0,0.0,0.0,2.0399,2.1198,0.0,0.0,0.0,2.3057,2.3703,2.4878,2.5985,0.0,0.0,0.0,0.0,0.0,0.0,0.0,3.6841,3.7785,3.8191,3.7846,3.716,3.6915,3.7486,3.6354,3.5705,3.6228,0.0,3.7488,3.7469,3.8238,3.8777,3.8796,3.921,3.9663,4.0101,4.0901,4.1529,4.1682,4.2397,4.3017,4.3144,4.3162,4.3136,4.313,4.2427,4.1913,4.1791,4.1886,4.1997,4.1909,4.1596,4.135,-1.1729,-1.2716,-1.1539,-1.2135,-1.3785,-1.3576,-1.3275,-1.2906,-1.2782,-1.3103,-1.3811,-1.4924,-1.6028,-1.6944,-1.6194,0.0,-1.2129,-0.9293,-0.5855,-0.1954,0.022,0.133,0.1273,-0.1035,-0.4326,-0.8444,-1.1912,-1.5234,-1.8336,-1.9541,-2.0756,-2.1901,-1.919,-1.6739,-1.4595,-1.1258,-0.6232,0.0541,0.6288,1.2586,1.9427,2.0529,1.8892,1.438,0.779,0.2811,-0.0098,0.3976,1.0149,1.8008,1.9502,1.9577,1.8575,0.0,0.0,0.0,0.0,0.0,0.0,0.0,0.0,0.0,0.0,0.0,0.0,0.0,0.0,2.4838,2.5271,0.0,2.634,2.766,0.0,0.0,0.0,3.2932,3.3054,3.5696,3.7223,3.6556,0.0,0.0,3.7544,3.7003,3.6857,3.7276,3.6278,3.5724,3.6264,3.6565,3.6719,3.6757,3.7373,3.7873,3.7935,3.8124,3.8539,3.9332,4.012,4.063,4.0855,4.1401,4.1953,4.2246,4.2234,4.2223,4.2285,4.1719,4.1634,4.285,4.2502,4.1954,4.1815,4.1257,4.0757,-1.4616,-1.577,-1.6132,-1.6474,-1.6733,-1.6231,-1.6214,-1.6455,-1.5294,-1.4901,-1.5025,-1.4914,-1.5039,-1.5241,-1.4093,-1.2696,-1.0965,-0.7582,-0.406,-0.0487,0.1748,0.3085,0.3424,0.0216,-0.3467,-0.7468,-1.1843,-1.6107,-2.002,-2.1183,-2.2639,-2.428,-2.3943,-2.1994,-1.857,-1.5268,-1.0824,-0.5225,0.2742,1.1882,2.1948,2.274,1.9471,1.2251,0.6798,0.4296,0.5103,0.5393,0.9921,1.9058,2.1185,2.1606,2.0556,1.9199,0.0,0.0,0.0,0.0,0.0,0.0,0.0,0.0,0.0,2.1294,2.2609,0.0,2.4657,0.0,2.8101,2.866,2.8248,3.0332,0.0,0.0,3.4434,3.5975,3.6917,3.716,3.7526,3.8156,3.8022,3.7636,3.6961,3.6786,3.6517,3.607,3.5696,3.5748,3.6492,3.6656,3.6719,3.6719,3.6873,3.7049,3.7189,3.7793,3.8302,3.858,3.8825,3.9178,3.9819,4.0093,4.0486,4.115,4.1319,4.1345,4.1484,4.1308,4.1308,4.1633,4.1452,4.1226,4.1116,4.0915,4.077,-1.773,-1.8658,-1.9619,-2.0025,-2.0007,-1.9034,-1.8481,-1.8033,-1.6785,-1.5632,-1.4643,-1.4079,-1.4287,-1.4871,-1.3652,-1.2308,-1.0691,-0.6908,-0.3333,0.0054,0.2304,0.3536,0.3753,-0.0161,-0.4117,-0.8076,-1.2993,-1.7366,-2.1045,-2.267,-2.4236,-2.574,-2.5924,-2.5029,-2.3069,-2.0125,-1.583,-1.0215,0.1816,1.163,1.8808,2.1737,2.0255,1.4235,0.8127,0.701,1.1295,0.8331,1.1131,2.0699,2.2465,2.2916,2.2458,2.1384,2.0207,0.0,0.0,0.0,0.0,0.0,0.0,0.0,0.0,0.0,0.0,0.0,2.5542,2.8114,2.9838,3.0769,3.0704,3.2446,3.3846,3.443,3.5779,3.6925,3.7583,3.7452,3.7585,3.8137,3.7526,3.6912,3.6553,3.6315,3.6007,3.5551,3.5507,3.5647,3.6051,3.618,3.618,3.6166,3.6161,3.6215,3.6358,3.7117,3.7767,3.7869,3.817,3.8555,3.8999,3.9415,3.9833,4.0309,4.0723,4.1049,4.1172,4.1191,4.1191,4.1191,4.1149,4.1049,4.092,4.0902,4.0877,-2.0686,-2.1197,-2.2163,-2.2727,-2.2905,-2.1659,-2.032,-1.8921,-1.7862,-1.5973,-1.3611,-1.2928,-1.3449,-1.4822,-1.3621,-1.2344,-1.0772,-0.6478,-0.2785,0.0325,0.2701,0.3721,0.3419,-0.0964,-0.5195,-0.9328,-1.4572,-1.8824,-2.2103,-2.4088,-2.5596,-2.6667,-2.6676,-2.6878,-2.7173,-2.498,-2.054,-1.3808,0.0577,0.9595,1.2939,1.7982,1.9639,1.7276,1.0377,0.9722,1.6197,1.1696,1.3324,2.2424,2.3601,2.3953,2.4058,2.3541,2.267,0.0,2.1681,0.0,0.0,0.0,0.0,0.0,0.0,0.0,0.0,2.5907,2.7075,2.9229,3.1139,3.2568,3.3208,3.4231,3.5093,3.5708,3.655,3.7019,3.6906,3.7171,3.7374,3.7392,3.6668,3.6155,3.6169,3.5776,3.5507,3.5507,3.5507,3.552,3.5534,3.5559,3.5565,3.5507,3.5509,3.5684,3.5803,3.6391,3.6937,3.7148,3.755,3.8108,3.817,3.887,3.9474,3.9731,4.0446,4.101,4.119,4.1191,4.1191,4.1172,4.1172,4.1151,4.1055,4.1023,4.0992,-2.2745,-2.2865,-2.327,-2.353,-2.3586,-2.3061,-2.2106,-2.0846,-1.922,-1.6705,-1.3611,-1.2213,-1.2139,-1.2913,-1.1747,-1.0637,-0.9383,-0.4425,-0.072,0.1898,0.4721,0.5688,0.4826,0.0,-0.4848,-0.9724,-1.5018,-1.987,-2.4218,-2.5545,-2.676,-2.7879,-2.8342,-2.8489,-2.8318,0.0,0.0,0.0,-0.8035,-0.096,0.8021,0.9617,1.2362,1.6372,1.0904,0.0,1.4754,1.3706,1.6365,2.3629,2.5333,0.0,0.0,0.0,0.0,0.0,0.0,0.0,0.0,0.0,0.0,0.0,2.4191,2.5017,2.6835,2.9926,3.1593,3.1104,3.3334,3.4697,3.4307,3.5724,3.668,3.6687,3.7482,3.7958,3.7762,3.7034,3.6604,3.6803,3.5949,3.5439,3.5618,3.5556,3.5493,3.5507,3.5507,3.5502,3.5566,3.554,3.5488,3.5501,3.5579,3.5671,3.5696,3.6013,3.6247,3.6216,3.6241,3.6606,3.7128,3.7949,3.8816,3.9396,4.0379,4.1013,4.1152,4.1191,4.115,4.1055,4.1126,4.1191,4.1171,4.1151,4.115,-2.4238,-2.4164,-2.4276,-2.4257,0.0,-2.3897,-2.3116,-2.1914,-1.9889,-1.7086,-1.379,-1.2129,-1.2237,-1.3636,-1.2451,-1.1097,-0.9491,-0.4314,-0.0057,0.3327,0.5737,0.6322,0.5258,-0.0322,-0.564,-1.0759,-1.6559,-2.1416,-2.5249,-2.6889,-2.8015,-2.8731,-2.9212,-2.9362,-2.9213,-2.9142,-2.5604,-1.8578,-1.3811,-0.8394,-0.2485,0.0931,0.4057,0.6969,0.702,0.0,0.0,0.0,0.0,0.0,0.0,0.0,0.0,0.0,0.0,2.2356,2.2506,2.2144,2.1225,2.277,2.3943,2.4156,2.607,2.7487,2.8066,3.1343,3.3128,3.2504,3.4128,3.506,3.4739,3.5624,3.6223,3.6118,3.6599,3.6909,3.6741,3.6266,3.5948,3.6056,3.5633,3.5354,3.5474,3.5507,3.5507,3.5488,3.5547,3.5581,3.559,3.5566,3.555,3.5609,3.5646,3.5717,3.5777,3.5861,3.5937,3.5918,3.5841,3.5878,3.6021,3.6939,3.7773,3.8157,3.9306,4.0369,4.0424,4.0727,4.0988,4.0944,4.1019,4.0908,4.0615,4.0837,4.1191,-2.5138,-2.4935,-2.4818,-2.462,-2.4358,-2.4255,-2.3477,-2.2114,-1.9783,0.0,0.0,-1.2518,-1.3046,-1.4944,-1.4016,-1.2513,-1.0196,-0.4684,0.0229,0.4426,0.6854,0.7166,0.5426,-0.0709,-0.6566,-1.2043,-1.8265,-2.2988,-2.624,-2.8094,-2.9119,-2.9471,-2.9776,-2.9905,-2.9878,-2.9643,-2.8164,-2.5213,-1.9297,-1.5682,-1.4568,-0.8517,-0.5137,-0.4914,0.1004,0.6777,1.2245,1.7482,2.2182,2.6209,2.553,2.4722,2.4181,2.3383,2.2147,2.0425,1.9895,1.8962,1.7447,2.0131,2.2355,2.3367,2.6961,2.9178,2.9255,3.1712,3.3231,3.3315,3.4035,3.453,3.4546,3.4798,3.4989,3.4994,3.5233,3.5418,3.5441,3.5479,3.5532,3.5507,3.5512,3.5507,3.5493,3.5507,3.5501,3.5502,3.5562,3.5641,3.564,3.563,3.5639,3.5694,3.569,3.5734,3.5828,3.5851,3.5859,3.5841,3.571,3.5524,3.5437,3.6153,3.6732,3.6703,3.8162,3.9217,3.9435,4.0018,4.0548,4.0587,4.0811,4.0742,4.0024,4.0498,4.1113,-2.498,-2.4698,-2.4137,-2.3889,-2.3898,-2.382,-2.2714,-2.0763,-1.8142,-1.5954,-1.4221,-1.3666,-1.4222,-1.5685,-1.5669,-1.4316,-1.1511,-0.4682,0.0711,0.4844,0.9301,0.9834,0.6658,-0.0055,-0.6694,-1.3111,-1.9329,-2.4183,-2.7494,-2.8904,-2.9683,-3.007,-3.0353,-3.0366,-3.017,-3.0117,-2.9712,-2.8931,-2.7045,-2.5749,-2.4992,-1.9551,-1.587,-1.3918,-0.6049,0.194,0.9508,1.8507,2.4556,2.6759,2.68,2.5907,2.4029,2.2742,2.1078,1.8945,1.641,1.4675,1.4118,1.5497,1.8499,2.329,2.6,2.8298,3.0586,3.1838,3.2676,3.293,3.3209,3.3512,3.3524,3.3586,3.3748,3.4105,3.4433,3.4786,3.5098,3.5335,3.5493,3.5493,3.5507,3.5507,3.5507,3.5507,3.5522,3.5566,3.5621,3.5648,3.578,3.5749,3.5696,3.5704,3.5708,3.5699,3.5742,3.5737,3.5708,3.5668,3.5422,3.5226,3.5127,3.5849,3.6453,3.6482,3.7616,3.8409,3.8507,3.9194,3.9684,3.9821,4.0357,4.052,3.9743,4.0342,4.082,-2.6073,-2.5511,-2.4914,-2.4318,-2.3736,-2.355,-2.3308,-2.2767,-2.052,-1.8035,-1.5755,-1.55,-1.6447,-1.8148,-1.8307,-1.6791,-1.3645,-0.5801,0.0528,0.5645,1.1684,1.2414,0.8184,0.1067,-0.6378,-1.392,-2.0845,-2.5775,-2.8676,-2.9625,-3.0154,-3.0458,-3.0607,-3.0534,-3.0306,-3.0222,-3.0066,-2.9737,-2.9229,-2.8685,-2.8097,-2.5382,-2.2959,-2.0819,-1.3775,-0.4722,0.6336,1.3584,2.0661,2.7765,2.7604,2.6784,2.5463,2.3217,2.0696,1.7904,1.4061,1.0841,0.8445,1.0425,1.3983,1.9098,2.1009,2.3054,2.5731,2.8475,3.0194,3.0475,3.0625,3.0681,3.0731,3.0884,3.1359,3.2242,3.2812,3.3574,3.4548,3.5064,3.5335,3.546,3.5507,3.5507,3.5507,3.5507,3.5534,3.559,3.5693,3.5811,3.5925,3.5873,3.5816,3.5817,3.5819,3.5767,3.5728,3.5699,3.5605,3.5419,3.5076,3.4882,3.4848,3.5311,3.5494,3.5783,3.6749,3.7432,3.7462,3.8136,3.8808,3.9432,3.9381,3.9343,3.9134,3.9112,3.9394,-2.6998,-2.6271,-2.5506,-2.4471,-2.3391,-2.3244,-2.3603,-2.4148,-2.3162,-2.1137,-1.8611,-1.8069,-1.9031,-2.0752,-2.1055,-1.9439,-1.562,-0.779,-0.0458,0.6097,1.3175,1.4628,1.0646,0.2605,-0.6374,-1.5269,-2.2645,-2.7341,-2.9526,-3.018,-3.0479,-3.0668,-3.0675,-3.0589,-3.0461,-3.0336,-3.0177,-2.9975,-2.9912,-2.9652,-2.9148,-2.8817,-2.7735,-2.5729,-2.1698,-1.2252,0.2308,0.8335,1.6522,2.7537,2.807,2.7432,2.6606,2.399,2.0855,1.7208,1.1726,0.6205,0.1568,0.4155,0.8187,1.2828,1.4769,1.6897,1.9716,2.269,2.5424,2.6903,2.7286,2.7377,2.7626,2.7813,2.8478,2.9743,3.0801,3.1946,3.3496,3.4391,3.5013,3.53,3.5417,3.5412,3.5474,3.5507,3.5528,3.5611,3.5774,3.5918,3.5957,3.5921,3.59,3.5851,3.5846,3.5786,3.5702,3.5599,3.5394,3.5076,3.4598,3.4434,3.4491,3.4476,3.4598,3.5073,3.589,3.6433,3.6463,3.7089,3.7893,3.8515,3.8566,3.8436,3.8467,3.7914,3.8281,-2.6914,-2.6209,-2.496,-2.349,-2.242,-2.2625,-2.2646,-2.2795,-2.4331,-2.4528,-2.318,-2.1669,-2.169,-2.285,-2.3546,-2.2164,-1.8821,-1.0908,-0.2861,0.5194,1.2989,1.6167,1.4295,0.4146,-0.7188,-1.8022,-2.4692,-2.8439,-3.0055,-3.0412,-3.0586,-3.0611,-3.0619,-3.0606,-3.0565,-3.0562,-3.0511,-3.0436,-3.0432,-3.0247,-2.9932,-3.0083,-2.9865,-2.9186,-2.9181,-2.0226,-0.1835,0.6012,1.5168,2.625,2.7923,2.7739,2.6498,2.4711,2.1777,1.7456,0.8712,0.0049,-0.7635,-0.4548,0.0115,0.4323,0.8029,1.1316,1.425,1.4173,1.6677,2.1687,2.3474,2.3892,2.4794,2.4903,2.534,2.657,2.8073,2.9952,3.1533,3.3198,3.436,3.5069,3.5047,3.5223,3.5398,3.5501,3.557,3.5671,3.5797,3.5893,3.5906,3.5877,3.5791,3.5674,3.5631,3.5631,3.5562,3.5334,3.5035,3.4567,3.405,3.3975,3.413,3.4212,3.4294,3.4812,3.5274,3.5618,3.5656,3.6067,3.687,3.7367,3.7782,3.8261,3.8268,3.7682,3.8185,-2.8334,-2.7716,-2.6409,-2.4335,-2.2062,-2.1555,-2.2006,-2.3101,-2.4628,-2.585,-2.6616,-2.5625,-2.5297,-2.5486,-2.5538,-2.4273,-2.1598,-1.4783,-0.7334,0.0716,1.0117,1.3717,1.115,0.405,-0.6657,-1.9158,-2.5531,-2.9019,-3.0055,-3.0462,-3.0614,-3.0588,-3.0479,-3.0477,-3.0567,-3.0492,-3.0468,-3.0546,-3.052,-3.0451,-3.0394,-3.0411,-3.0354,-3.0193,-3.0424,-2.4153,-1.0444,-0.2224,0.7203,1.8592,2.3724,2.6178,2.6018,2.3118,2.0346,1.7045,0.1213,-0.9915,-1.3602,-1.0713,-0.7041,-0.2854,0.1366,0.5142,0.8127,0.8596,1.0556,1.4279,1.7422,1.9456,2.0335,2.0504,2.1056,2.2375,2.3818,2.5747,2.8362,3.0283,3.2,3.3594,3.4372,3.483,3.5197,3.5469,3.5611,3.5704,3.5835,3.5894,3.5884,3.5805,3.5618,3.5438,3.5456,3.5464,3.5331,3.5197,3.485,3.4417,3.4051,3.3938,3.4033,3.407,3.4202,3.4637,3.4899,3.5035,3.4945,3.5314,3.5906,3.6433,3.6987,3.7534,3.757,3.6908,3.7376,-2.9458,-2.8695,-2.6904,-2.4045,-2.0934,-2.0096,-2.0797,-2.2609,-2.416,-2.6265,-2.8428,-2.8402,-2.816,-2.7776,-2.7239,-2.6084,-2.3926,-1.8477,-1.2042,-0.4856,0.4238,0.8704,0.858,0.0832,-0.952,-2.1128,-2.6641,-2.9394,-3.0513,-3.0808,-3.0929,-3.0842,-3.0441,-3.0307,-3.0469,-3.0327,-3.0364,-3.0502,-3.0511,-3.055,-3.0579,-3.0565,-3.0548,-3.0553,-3.0585,-2.5842,-1.594,-0.9489,-0.0473,1.159,1.8137,2.2089,2.3258,2.0496,1.666,1.0676,-0.5287,-1.6657,-1.8766,-1.6656,-1.3424,-0.9254,-0.4522,-0.0229,0.2685,0.433,0.5794,0.7922,1.1068,1.3599,1.5945,1.6178,1.6728,1.7904,1.9388,2.1662,2.4494,2.7028,2.9553,3.1775,3.3121,3.425,3.4973,3.5442,3.5679,3.5717,3.5774,3.5868,3.5841,3.5706,3.5499,3.5229,3.5288,3.5289,3.5072,3.4981,3.4754,3.4473,3.4106,3.3674,3.3799,3.3675,3.3676,3.3815,3.4226,3.4538,3.4574,3.487,3.5255,3.5955,3.645,3.6626,3.66,3.6017,3.637,-2.9746,-2.8817,-2.513,-2.1785,-1.8945,-1.8165,-1.8647,-1.9899,-2.262,-2.5514,-2.8249,-2.9167,-2.9609,-2.9439,-2.8484,-2.7609,-2.6138,-2.1789,-1.6626,-1.0887,-0.5916,0.1354,0.955,-0.4561,-1.7449,-2.6961,-2.8259,-2.9813,-3.158,-3.173,-3.1725,-3.1609,-3.0663,-3.0148,-3.0275,-3.0289,-3.025,-3.0325,-3.0505,-3.0598,-3.0625,-3.0629,-3.0687,-3.0752,-3.0638,-2.642,-1.8214,-1.4088,-0.6269,0.6922,1.1054,1.4618,1.7235,1.6811,0.9861,-0.3428,-1.0737,-1.7693,-2.4003,-2.2243,-1.8601,-1.4507,-0.8699,-0.3989,-0.0077,0.1559,0.3037,0.4642,0.546,0.7534,1.1326,1.2294,1.277,1.3715,1.5806,1.8041,2.0401,2.4035,2.7092,2.9495,3.1635,3.3393,3.485,3.5393,3.5573,3.5645,3.5701,3.5734,3.5722,3.5638,3.5461,3.5224,3.5138,3.5091,3.4945,3.4849,3.4804,3.4482,3.3862,3.3173,3.2943,3.2805,3.2886,3.31,3.3631,3.4022,3.4228,3.4569,3.4964,3.5395,3.5605,3.5733,3.5886,3.5727,3.6007,-2.907,-2.7581,-2.4072,-2.0288,-1.6524,-1.4552,-1.4544,-1.6131,-1.8149,-2.3133,-2.8845,-2.8911,-2.9129,-3.0095,-2.9174,-2.8468,-2.7717,-2.5447,-2.1869,-1.7164,-1.2135,-0.9041,-0.8731,-1.1884,-1.8753,-2.7944,-2.9233,-3.0243,-3.2076,-3.2423,-3.2506,-3.2378,-3.1775,-3.1252,-3.0945,-3.0774,-3.0553,-3.0298,-3.0489,-3.0615,-3.0758,-3.1225,-3.1553,-3.1595,-3.0919,-2.9012,-2.5654,-1.9968,-1.3443,-0.647,-0.012,0.4826,0.7492,0.6231,-0.005,-1.1598,-1.9098,-2.4266,-2.6651,-2.4144,-2.0371,-1.634,-1.0005,-0.5081,-0.2254,0.0156,0.1956,0.2496,0.2642,0.4011,0.5924,0.8045,0.9399,1.0024,1.2206,1.4705,1.7246,2.0628,2.4086,2.7102,3.035,3.3122,3.4164,3.4939,3.535,3.5454,3.5584,3.5678,3.5683,3.5657,3.5485,3.5228,3.5223,3.5187,3.4621,3.4675,3.4641,3.4266,3.3749,3.3151,3.2776,3.2363,3.2334,3.2282,3.2839,3.3533,3.3776,3.4218,3.4614,3.4908,3.5088,3.5254,3.5292,3.5339,3.5553,-2.8755,-2.7161,-2.3838,-1.9637,-1.5133,-1.184,-1.0854,-1.165,-1.3249,-1.8506,-2.4993,-2.6303,-2.7596,-2.9201,-2.9226,-2.8767,-2.8077,-2.6836,-2.4581,-2.1504,-1.7895,-1.8083,-2.0482,-1.8871,-2.1815,-2.8767,-3.0277,-3.1381,-3.2771,-3.3182,-3.3314,-3.3301,-3.2604,-3.2012,-3.1606,-3.1374,-3.1107,-3.0932,-3.1118,-3.1348,-3.1572,-3.2094,-3.2463,-3.2458,-3.1791,-3.1334,-3.1121,-2.571,-2.0974,-1.6946,-1.0974,-0.6256,-0.3776,-0.5377,-1.0404,-1.8668,-2.4439,-2.7861,-2.7769,-2.4868,-2.1037,-1.6631,-1.083,-0.608,-0.3348,-0.086,0.0391,0.0548,0.0547,0.0857,0.1399,0.3244,0.5087,0.6252,0.868,1.1076,1.3256,1.7064,2.1494,2.6144,2.9973,3.2457,3.3704,3.4434,3.4913,3.5222,3.5424,3.5545,3.5662,3.5632,3.5505,3.5257,3.5277,3.5053,3.461,3.4473,3.4395,3.408,3.3406,3.2904,3.2397,3.1986,3.1703,3.1671,3.2072,3.2836,3.3411,3.3854,3.4218,3.4526,3.4793,3.4981,3.5032,3.5102,3.5318,-2.896,-2.804,-2.4417,-1.9819,-1.4932,-1.0399,-0.7754,-0.6507,-0.8052,-1.1862,-1.7311,-2.1457,-2.4867,-2.7239,-2.8402,-2.8468,-2.7119,-2.5505,-2.4168,-2.2896,-2.3088,-2.4193,-2.6045,-2.5779,-2.6698,-2.9659,-3.1691,-3.3023,-3.3686,-3.4002,-3.4172,-3.3958,-3.302,-3.2486,-3.2222,-3.2008,-3.1974,-3.2069,-3.2257,-3.2656,-3.3203,-3.3232,-3.334,-3.3394,-3.3255,-3.3208,-3.3145,-3.1035,-2.7779,-2.4069,-2.0923,-1.829,-1.5672,-1.6539,-2.0104,-2.4149,-2.6522,-2.7284,-2.756,-2.4897,-2.0646,-1.5827,-1.132,-0.7056,-0.3889,-0.2189,-0.1409,-0.1409,-0.1566,-0.1878,-0.234,-0.1632,0.0078,0.2727,0.5186,0.7275,0.9631,1.3476,1.9062,2.585,2.9641,3.1843,3.314,3.3808,3.4264,3.4817,3.5175,3.5349,3.5564,3.5595,3.5524,3.5371,3.5294,3.5123,3.4657,3.4226,3.4092,3.3848,3.3063,3.2373,3.1831,3.1356,3.1098,3.1074,3.1952,3.2727,3.355,3.3935,3.4055,3.4321,3.4526,3.4694,3.4735,3.4813,3.4999,-2.9458,-2.7519,-2.4234,-1.9682,-1.4218,-0.7973,-0.3028,0.0394,-0.1446,-0.586,-1.1648,-1.6442,-2.098,-2.4847,-2.6468,-2.6325,-2.5062,-2.3706,-2.317,-2.3451,-2.3275,-2.4098,-2.5661,-2.6664,-2.815,-3.0189,-3.2002,-3.3283,-3.402,-3.4561,-3.4821,-3.4694,-3.4385,-3.3788,-3.3072,-3.2917,-3.2671,-3.2069,-3.2371,-3.2686,-3.2904,-3.3749,-3.4203,-3.4277,-3.4744,-3.5003,-3.4837,-3.328,-3.1163,-2.8608,-2.7284,-2.5428,-2.3491,-2.3014,-2.4602,-2.7322,-2.7137,-2.6572,-2.5913,-2.2855,-1.8805,-1.4301,-1.0289,-0.7151,-0.4595,-0.3203,-0.2657,-0.2735,-0.3283,-0.3673,-0.3279,-0.3589,-0.2644,-0.0388,0.2396,0.5109,0.8084,1.3929,2.0104,2.4852,2.7735,2.9708,3.1461,3.2475,3.3333,3.4124,3.4715,3.5214,3.5338,3.5525,3.5566,3.5452,3.538,3.5212,3.4812,3.423,3.3798,3.3465,3.2732,3.2133,3.1533,3.0969,3.0679,3.1065,3.1899,3.2677,3.3486,3.3887,3.4016,3.4074,3.4237,3.4353,3.4401,3.4593,3.4851,-3.0163,-2.8287,-2.4963,-2.058,-1.5184,-0.7973,-0.1974,0.2157,0.1639,-0.1811,-0.6873,-1.1353,-1.6702,-2.1771,-2.4175,-2.4802,-2.4252,-2.2849,-2.2363,-2.2616,-2.2033,-2.2552,-2.4112,-2.6113,-2.8113,-3.015,-3.1684,-3.2918,-3.3975,-3.4461,-3.485,-3.503,-3.4999,-3.4683,-3.4055,-3.3903,-3.352,-3.3127,-3.3394,-3.3571,-3.3853,-3.4575,-3.5022,-3.5153,-3.5623,-3.5838,-3.5705,-3.4631,-3.3567,-3.2551,-3.1953,-3.0837,-2.9307,-2.8717,-2.9,-2.9567,-2.828,-2.6426,-2.4649,-2.1053,-1.6855,-1.2791,-0.9755,-0.7275,-0.522,-0.3982,-0.3824,-0.4283,-0.4828,-0.5292,-0.5517,-0.5983,-0.5742,-0.464,-0.054,0.3423,0.7522,1.3545,1.8997,2.2674,2.5512,2.7718,2.9716,3.0991,3.2107,3.3101,3.4139,3.4955,3.5104,3.5422,3.551,3.5431,3.5116,3.4987,3.4928,3.4314,3.3564,3.3018,3.2446,3.1951,3.1424,3.0818,3.0427,3.1387,3.2247,3.2791,3.3532,3.3734,3.3887,3.3928,3.3968,3.4189,3.4357,3.4614,3.487,-3.1042,-3.0145,-2.6519,-2.2359,-1.7445,-1.0092,-0.4352,-0.036,0.159,0.0851,-0.2115,-0.6423,-1.2081,-1.7882,-2.1338,-2.336,-2.4351,-2.2915,-2.1731,-2.1251,-2.0663,-2.0873,-2.2328,-2.5214,-2.7581,-2.9377,-3.0717,-3.2062,-3.3415,-3.39,-3.4369,-3.494,-3.4925,-3.4879,-3.4861,-3.4832,-3.4718,-3.4754,-3.492,-3.5076,-3.536,-3.5572,-3.5718,-3.5792,-3.5859,-3.5875,-3.5775,-3.5313,-3.5197,-3.5306,-3.4763,-3.4207,-3.398,-3.375,-3.2778,-3.2083,-2.935,-2.6091,-2.3147,-1.9584,-1.5617,-1.1462,-0.9846,-0.8147,-0.5841,-0.53,-0.5449,-0.6207,-0.6437,-0.713,-0.8523,-0.8912,-0.8756,-0.8353,-0.331,0.214,0.7882,1.1898,1.5915,1.9918,2.3013,2.5621,2.7876,2.8957,3.0374,3.198,3.3166,3.3944,3.4859,3.5174,3.5524,3.5346,3.4983,3.4623,3.4523,3.3761,3.2959,3.2015,3.16,3.1289,3.1298,3.0891,3.069,3.1645,3.2247,3.2836,3.3284,3.3447,3.3625,3.3689,3.3839,3.4099,3.4357,3.4634,3.4908,-3.1864,-3.0314,-2.7583,-2.3971,-1.9302,-1.2057,-0.7056,-0.3474,0.1166,0.3081,0.2445,-0.1523,-0.7614,-1.3169,-1.7468,-2.0614,-2.2451,-2.2315,-2.1693,-2.1119,-2.0252,-2.0582,-2.1927,-2.4204,-2.6214,-2.7674,-2.9417,-3.1031,-3.2621,-3.3534,-3.4242,-3.4813,-3.5162,-3.5268,-3.5204,-3.5162,-3.5069,-3.5022,-3.5154,-3.5287,-3.5415,-3.571,-3.5856,-3.5883,-3.5896,-3.5851,-3.5747,-3.5367,-3.51,-3.507,-3.5155,-3.4851,-3.4086,-3.3487,-3.2686,-3.1196,-2.7879,-2.4433,-2.1512,-1.8046,-1.4387,-1.1267,-0.9959,-0.8988,-0.8223,-0.7383,-0.7536,-0.8219,-0.8523,-0.867,-0.9216,-0.9448,-0.913,-0.7711,-0.4289,0.0076,0.4305,0.8641,1.2752,1.5876,1.8786,2.1614,2.4069,2.6052,2.769,2.9749,3.1352,3.2638,3.3608,3.4952,3.5277,3.5241,3.4925,3.4417,3.3915,3.3148,3.2242,3.1111,3.0574,3.0341,3.0675,3.1083,3.1223,3.1806,3.1773,3.2246,3.2677,3.2996,3.3166,3.3266,3.3768,3.4061,3.4338,3.4615,3.4925,-3.2637,-3.1235,-2.9287,-2.629,-2.2203,-1.583,-1.1162,-0.7047,-0.0943,0.1785,0.0967,-0.2491,-0.6095,-0.9389,-1.4079,-1.8176,-2.1225,-2.169,-2.1968,-2.2138,-2.0838,-2.0421,-2.1144,-2.2714,-2.442,-2.6134,-2.8201,-3.0159,-3.1899,-3.3104,-3.3949,-3.4653,-3.5179,-3.5378,-3.535,-3.5359,-3.532,-3.5218,-3.5307,-3.5399,-3.5438,-3.5674,-3.581,-3.5863,-3.5877,-3.5766,-3.5339,-3.4883,-3.46,-3.4553,-3.4593,-3.4251,-3.3284,-3.2709,-3.1665,-2.9992,-2.6378,-2.3252,-2.0586,-1.7245,-1.4181,-1.1803,-1.0479,-0.9744,-0.9291,-0.8765,-0.8917,-1.0323,-1.0066,-1.0502,-1.1495,-1.144,-1.0679,-0.9654,-0.6704,-0.3032,0.1137,0.4961,0.8539,1.1563,1.4443,1.6871,1.9443,2.1473,2.3702,2.5971,2.8355,3.0145,3.2007,3.358,3.4929,3.4904,3.4546,3.3916,3.3182,3.2381,3.1507,3.0378,2.9752,2.9448,3.0053,3.0801,3.1325,3.1517,3.1462,3.1573,3.1987,3.2362,3.2524,3.2804,3.346,3.4048,3.4323,3.4676,3.498,-3.3312,-3.2442,-3.1145,-2.8854,-2.5416,-2.0545,-1.6243,-1.1831,-0.4813,-0.2375,-0.4095,-0.6596,-0.7216,-0.6817,-1.1936,-1.5928,-1.9614,-2.0586,-2.2128,-2.2267,-2.1493,-2.0406,-2.0497,-2.1749,-2.3431,-2.528,-2.7334,-2.9599,-3.1554,-3.2806,-3.3741,-3.4583,-3.5068,-3.5248,-3.5309,-3.5364,-3.5439,-3.5427,-3.5409,-3.5527,-3.56,-3.5739,-3.5806,-3.5891,-3.5774,-3.5405,-3.4807,-3.4251,-3.3876,-3.3629,-3.3747,-3.3122,-3.2039,-3.1463,-3.0139,-2.8015,-2.5283,-2.2489,-2.0324,-1.7331,-1.4569,-1.2677,-1.1514,-1.0634,-0.997,-0.9669,-1.0179,-1.2018,-1.123,-1.2131,-1.4053,-1.4243,-1.3346,-1.2125,-1.0461,-0.6772,-0.2199,0.1062,0.3927,0.7478,0.9807,1.1416,1.3604,1.5669,1.7925,2.0526,2.328,2.592,2.8588,3.1055,3.2975,3.4626,3.404,3.3256,3.2448,3.1609,3.0652,2.9696,2.9094,2.8907,2.9394,3.0112,3.0912,3.1281,3.1227,3.1206,3.1281,3.1562,3.1795,3.2186,3.2769,3.36,3.4349,3.4756,3.5105,-3.3506,-3.2956,-3.1861,-3.0417,-2.8275,-2.4063,-2.1436,-1.9716,-1.1594,-0.7368,-0.6537,-0.7593,-0.8098,-0.8045,-1.0609,-1.3459,-1.7098,-1.8966,-2.0497,-2.1854,-2.1169,-2.1253,-2.1765,-2.2732,-2.3668,-2.5449,-2.7622,-2.9903,-3.1843,-3.3158,-3.4091,-3.469,-3.4972,-3.5111,-3.4988,-3.5063,-3.5152,-3.5292,-3.5338,-3.5514,-3.5779,-3.5829,-3.5878,-3.5909,-3.5637,-3.4983,-3.4315,-3.387,-3.3024,-3.2097,-3.1958,-3.1788,-3.0895,-2.9615,-2.8402,-2.6846,-2.411,-2.1629,-2.0098,-1.7841,-1.5492,-1.378,-1.2611,-1.1803,-1.1694,-1.0864,-1.1446,-1.275,-1.2521,-1.3194,-1.5443,-1.5346,-1.4736,-1.4053,-1.2642,-1.0444,-0.7206,-0.3121,0.0458,0.2664,0.4152,0.5667,0.9288,0.9634,1.1942,1.4827,1.7835,2.0939,2.4163,2.7444,3.0223,3.2191,3.2919,3.2162,3.2201,3.1229,3.0051,2.93,2.8741,2.8253,2.8745,2.9462,3.0259,3.0697,3.093,3.0862,3.0721,3.0883,3.1136,3.1585,3.2072,3.2976,3.3784,3.4433,3.5171,-3.356,-3.3159,-3.259,-3.155,-2.9999,-2.7426,-2.534,-2.3018,-1.7916,-1.2908,-0.985,-0.9854,-0.9728,-0.9286,-1.0409,-1.2545,-1.5815,-1.9308,-2.1322,-2.2416,-2.2896,-2.4001,-2.4742,-2.5556,-2.6406,-2.6904,-2.8786,-3.0811,-3.2302,-3.3346,-3.4049,-3.4523,-3.487,-3.4905,-3.4776,-3.4812,-3.498,-3.5159,-3.5209,-3.5407,-3.574,-3.5826,-3.5818,-3.5757,-3.5377,-3.476,-3.4074,-3.3045,-3.2102,-3.1069,-3.0272,-2.9724,-2.9307,-2.8264,-2.708,-2.508,-2.3321,-2.1401,-2.0103,-1.8168,-1.6332,-1.5668,-1.403,-1.3142,-1.2725,-1.2057,-1.2204,-1.331,-1.3818,-1.4577,-1.6625,-1.5735,-1.5455,-1.5579,-1.4554,-1.2774,-1.0279,-0.6043,-0.2165,-0.0387,0.0924,0.2292,0.3776,0.4762,0.527,0.7907,1.0938,1.4055,1.7542,2.1107,2.6048,2.8588,3.0356,3.1127,3.1572,3.092,2.9572,2.8966,2.8575,2.8042,2.7941,2.8749,2.9592,3.0022,3.036,3.0233,3.0116,3.0292,3.046,3.0661,3.1225,3.2246,3.312,3.3827,3.4664,-3.3707,-3.3304,-3.3205,-3.2444,-3.1233,-3.0319,-2.8363,-2.563,-2.2851,-1.8685,-1.4497,-1.3406,-1.2578,-1.1537,-1.1691,-1.323,-1.6532,-2.0285,-2.2824,-2.3669,-2.54,-2.6659,-2.7609,-2.8717,-2.9442,-2.9123,-3.0257,-3.1648,-3.2593,-3.3492,-3.4329,-3.457,-3.4944,-3.5067,-3.4864,-3.4757,-3.4843,-3.5,-3.5034,-3.5261,-3.5617,-3.5698,-3.5667,-3.551,-3.503,-3.4307,-3.3421,-3.2339,-3.1213,-3.0482,-2.8529,-2.748,-2.7041,-2.6637,-2.587,-2.3153,-2.1969,-2.0997,-2.0331,-1.8572,-1.7366,-1.7861,-1.587,-1.4338,-1.3943,-1.3558,-1.3565,-1.3996,-1.4664,-1.5509,-1.7186,-1.6438,-1.6079,-1.6358,-1.593,-1.4625,-1.2324,-0.8262,-0.4857,-0.2413,-0.1243,0.0,0.0231,0.0764,0.0605,0.104,0.4099,0.7078,1.0554,1.4455,1.9102,2.3801,2.5548,2.9383,3.0438,3.0283,2.8985,2.847,2.8194,2.7528,2.7107,2.7684,2.8458,2.941,2.9725,2.9776,2.9839,3.0036,3.0088,2.994,3.0456,3.1538,3.2418,3.3204,3.4151,-3.4348,-3.3688,-3.3343,-3.3033,-3.2691,-3.1742,-3.0807,-2.9556,-2.6576,-2.3905,-2.1153,-1.8396,-1.6328,-1.5273,-1.5197,-1.6814,-1.936,-2.2356,-2.4272,-2.5472,-2.7078,-2.8351,-3.0224,-3.0954,-3.1709,-3.2241,-3.2257,-3.2242,-3.3083,-3.3971,-3.4975,-3.5732,-3.6104,-3.5882,-3.5225,-3.4958,-3.4923,-3.4943,-3.4888,-3.5091,-3.5512,-3.5615,-3.5477,-3.5228,-3.4599,-3.3623,-3.246,-3.1478,-3.0384,-2.8979,-2.7954,-2.685,-2.5725,-2.4576,-2.3528,-2.2662,-2.102,-2.0106,-2.0257,-1.9541,-1.8516,-1.8006,-1.7338,-1.6492,-1.5757,-1.5219,-1.4967,-1.4741,-1.4889,-1.5305,-1.5627,-1.5948,-1.6784,-1.7139,-1.6982,-1.5896,-1.4103,-1.1192,-0.7488,-0.5013,-0.3643,-0.2339,-0.2098,-0.2477,-0.3211,-0.3394,-0.2189,0.007,0.2632,0.6753,1.1232,1.5935,2.0326,2.5059,2.9276,2.9009,2.8347,2.7923,2.7449,2.6569,2.6293,2.6556,2.7247,2.7941,2.9237,3.008,3.0089,2.995,2.994,2.9958,3.0429,3.0876,3.1958,3.2988,3.3742,-3.5576,-3.51,-3.4877,-3.4655,-3.4381,-3.392,-3.3245,-3.2235,-2.9832,-2.7418,-2.5159,-2.2652,-2.0488,-1.9249,-1.8627,-1.9749,-2.1657,-2.4539,-2.6287,-2.7607,-2.9236,-3.0806,-3.2413,-3.2849,-3.3323,-3.3793,-3.3631,-3.3672,-3.4258,-3.5135,-3.5861,-3.6159,-3.6544,-3.6334,-3.5772,-3.5417,-3.5323,-3.5195,-3.496,-3.5001,-3.5528,-3.5604,-3.5388,-3.4771,-3.4035,-3.2997,-3.169,-3.0075,-2.9013,-2.7859,-2.6538,-2.5342,-2.4103,-2.282,-2.1794,-2.1483,-2.0235,-1.9694,-2.0279,-1.9879,-1.9399,-1.9901,-1.9438,-1.8449,-1.7509,-1.6927,-1.615,-1.4518,-1.3983,-1.4299,-1.557,-1.5877,-1.6567,-1.7647,-1.791,-1.7316,-1.5913,-1.3947,-1.1222,-0.8001,-0.5631,-0.4424,-0.39,-0.4735,-0.6416,-0.7203,-0.7571,-0.6338,-0.4442,-0.0786,0.376,0.9608,1.4771,2.0506,2.5067,2.6109,2.6526,2.6515,2.581,2.4958,2.4508,2.43,2.5146,2.6185,2.7707,2.9325,3.0171,2.998,2.9995,2.9992,3.0113,3.0529,3.1742,3.275,3.3419,-3.6686,-3.6288,-3.6287,-3.6109,-3.5773,-3.5739,-3.5249,-3.4263,-3.2672,-3.0889,-2.8858,-2.7085,-2.5412,-2.4027,-2.3318,-2.3342,-2.4242,-2.7623,-2.8931,-2.9998,-3.1784,-3.3465,-3.4057,-3.4494,-3.4691,-3.4887,-3.5665,-3.5848,-3.5733,-3.6266,-3.6703,-3.7248,-3.7314,-3.705,-3.6771,-3.6218,-3.6047,-3.559,-3.5147,-3.5001,-3.5299,-3.5419,-3.5189,-3.4489,-3.3621,-3.2449,-3.0577,-2.8965,-2.7576,-2.6347,-2.4913,-2.3487,-2.2627,-2.1244,-2.0462,-2.0462,-1.9748,-1.9922,-2.0347,-2.0575,-2.0871,-2.1742,-2.1195,-2.0364,-1.9424,-1.8514,-1.6893,-1.403,-1.3276,-1.4429,-1.6323,-1.6243,-1.6801,-1.8056,-1.8951,-1.8916,-1.7891,-1.6369,-1.4751,-1.1565,-0.8253,-0.6565,-0.611,-0.6517,-0.8112,-1.0021,-1.0369,-1.1025,-0.9237,-0.7609,-0.3037,0.3554,0.9547,1.5647,1.9867,2.2349,2.3157,2.3996,2.2965,2.1893,2.1605,2.1413,2.2425,2.3315,2.5997,2.7536,2.8724,3.0072,3.0258,3.0191,2.9815,3.0115,3.1226,3.2057,3.2714,-3.7182,-3.6295,-3.6332,-3.6271,-3.6249,-3.6296,-3.6339,-3.6229,-3.5289,-3.48,-3.3584,-3.2454,-3.11,-3.0116,-2.8967,-2.9058,-2.9799,-3.0659,-3.1737,-3.2638,-3.391,-3.4775,-3.5158,-3.5666,-3.5837,-3.6134,-3.7318,-3.7408,-3.71,-3.7355,-3.8186,-3.8973,-3.8927,-3.8889,-3.8047,-3.7332,-3.6559,-3.5903,-3.5147,-3.481,-3.4926,-3.4964,-3.4805,-3.4275,-3.3315,-3.1593,-2.915,-2.755,-2.6304,-2.4509,-2.2959,-2.203,-2.1599,-2.0342,-2.0074,-2.0074,-1.9987,-1.9876,-2.116,-2.1609,-2.2274,-2.3078,-2.3046,-2.2799,-2.1897,-2.0216,-1.8429,-1.6793,-1.5782,-1.6074,-1.7488,-1.7798,-1.8419,-1.9153,-1.9906,-2.016,-1.9736,-1.9089,-1.7464,-1.5498,-1.2179,-0.986,-0.8571,-0.908,-0.9804,-1.171,-1.3273,-1.3752,-1.3577,-1.1465,-0.8591,-0.1868,0.4005,1.0066,1.472,1.7213,1.9236,2.063,1.962,1.8382,1.782,1.7579,1.8592,2.0016,2.2821,2.5967,2.7925,2.9227,3.0178,3.0481,3.02,3.0275,3.0607,3.1354,3.2062,-3.8484,-3.7893,-3.7716,-3.7656,-3.765,-3.7649,-3.7735,-3.7603,-3.6725,-3.6175,-3.5812,-3.4635,-3.3696,-3.3128,-3.2667,-3.2582,-3.2884,-3.3741,-3.4482,-3.4908,-3.5759,-3.6375,-3.6629,-3.6863,-3.6996,-3.7357,-3.8225,-3.8663,-3.8414,-3.8512,-3.9252,-3.9714,-3.9901,-3.9683,-3.9138,-3.8499,-3.7603,-3.6706,-3.5864,-3.543,-3.5423,-3.5454,-3.5161,-3.43,-3.2882,-3.0544,-2.8072,-2.5897,-2.4498,-2.2857,-2.1549,-2.0842,-2.0613,-2.0347,-2.0555,-2.0223,-2.1016,-2.151,-2.2073,-2.2533,-2.3268,-2.4083,-2.4492,-2.4442,-2.3734,-2.1951,-2.0111,-1.8807,-1.7622,-1.7679,-1.8356,-1.8569,-1.914,-1.99,-2.1197,-2.1327,-2.1498,-2.126,-2.0202,-1.8258,-1.631,-1.3987,-1.1755,-1.1058,-1.1544,-1.2788,-1.4261,-1.4977,-1.4858,-1.3737,-1.0604,-0.6474,-0.1065,0.4284,0.8623,1.2043,1.4455,1.5625,1.4916,1.3866,1.3274,1.3394,1.4365,1.6317,1.9051,2.242,2.6197,2.8612,2.979,3.0263,3.0639,3.0738,3.0829,3.0836,3.162,-3.9427,-3.9079,-3.8817,-3.8707,-3.8707,-3.8707,-3.867,-3.8554,-3.7713,-3.7261,-3.7033,-3.6314,-3.5615,-3.5244,-3.5383,-3.5188,-3.4942,-3.6113,-3.6474,-3.6793,-3.7204,-3.7544,-3.7546,-3.7662,-3.7757,-3.7938,-3.842,-3.8776,-3.8946,-3.9207,-3.94,-3.9958,-4.0193,-4.0139,-3.9871,-3.9218,-3.8322,-3.7039,-3.64,-3.6062,-3.5979,-3.5977,-3.5217,-3.3983,-3.2243,-3.0064,-2.725,-2.5101,-2.3364,-2.2063,-2.0797,-2.003,-1.9667,-2.0411,-2.0959,-2.1037,-2.1909,-2.3143,-2.3486,-2.3894,-2.4184,-2.5006,-2.5444,-2.5475,-2.4778,-2.3153,-2.1819,-2.0781,-2.0015,-1.9409,-1.9375,-2.0081,-2.0815,-2.1778,-2.2716,-2.2809,-2.2932,-2.2984,-2.2693,-2.1178,-1.9404,-1.7836,-1.5635,-1.3637,-1.3417,-1.4221,-1.5155,-1.61,-1.5885,-1.5278,-1.2861,-0.9321,-0.5213,-0.0386,0.3427,0.6959,0.9319,1.0803,1.0168,0.9539,0.9086,0.9193,0.994,1.2352,1.5332,1.895,2.2785,2.6177,2.9399,3.0102,3.0725,3.0977,3.1069,3.0969,3.1159,-3.9406,-3.9081,-3.882,-3.8689,-3.8707,-3.8707,-3.8707,-3.8707,-3.8585,-3.8462,-3.8376,-3.8308,-3.8063,-3.799,-3.7361,-3.7174,-3.7192,-3.7094,-3.7298,-3.7507,-3.7706,-3.8065,-3.8124,-3.8165,-3.8037,-3.7841,-3.8136,-3.8261,-3.8342,-3.8534,-3.935,-4.0302,-4.0195,-4.0356,-4.0087,-3.9372,-3.8461,-3.7389,-3.6836,-3.6556,-3.6279,-3.5921,-3.5136,-3.3887,-3.2406,-3.0354,-2.7159,-2.5026,-2.3238,-2.1823,-2.0359,-1.9626,-1.9535,-2.0607,-2.1311,-2.1945,-2.2951,-2.4349,-2.5369,-2.5216,-2.5637,-2.6593,-2.6764,-2.6027,-2.5322,-2.4668,-2.3677,-2.2782,-2.216,-2.2149,-2.2341,-2.2894,-2.3201,-2.3454,-2.4167,-2.484,-2.4939,-2.5066,-2.4664,-2.3728,-2.2332,-2.0586,-1.9015,-1.6859,-1.5039,-1.5581,-1.6142,-1.7064,-1.6847,-1.6249,-1.478,-1.1997,-0.8572,-0.461,-0.107,0.202,0.5011,0.6388,0.634,0.5613,0.5009,0.5383,0.6233,0.8906,1.2084,1.5741,1.9423,2.3143,2.6554,2.9408,3.0752,3.0742,3.0966,3.101,3.1207,-3.9709,-3.9377,-3.9082,-3.8855,-3.8707,-3.8707,-3.8707,-3.8707,-3.8707,-3.8707,-3.8707,-3.8707,-3.8707,-3.8597,-3.8517,-3.8354,-3.8479,-3.8633,-3.8757,-3.9104,-3.9363,-3.939,-3.9276,-3.8798,-3.8521,-3.7867,-3.7653,-3.7201,-3.6915,-3.758,-3.8085,-3.8814,-3.9634,-3.9979,-3.9747,-3.9176,-3.8278,-3.7845,-3.7381,-3.7145,-3.7014,-3.6692,-3.5937,-3.4575,-3.2222,-2.9989,-2.7114,-2.4609,-2.288,-2.1377,-2.0114,-1.9565,-1.9697,-2.105,-2.2072,-2.2716,-2.3831,-2.5511,-2.6674,-2.6153,-2.5886,-2.6515,-2.6645,-2.6314,-2.5804,-2.5697,-2.5139,-2.4566,-2.4237,-2.4261,-2.3485,-2.4366,-2.5135,-2.5152,-2.562,-2.6524,-2.678,-2.6832,-2.6562,-2.557,-2.4458,-2.3096,-2.1521,-1.9909,-1.8128,-1.6917,-1.7436,-1.7755,-1.7643,-1.7339,-1.5994,-1.4326,-1.1036,-0.8085,-0.4587,-0.1753,0.0959,0.1847,0.2589,0.2565,0.2268,0.2471,0.3694,0.6218,0.9121,1.2937,1.6694,2.0365,2.3896,2.7419,2.9326,3.0169,3.0481,3.0879,3.1083,-3.9916,-3.9588,-3.935,-3.9045,-3.8738,-3.8707,-3.8707,-3.8707,-3.8707,-3.8707,-3.8707,-3.8707,-3.8707,-3.8738,-3.8815,-3.886,-3.9083,-3.9415,-3.9816,-4.0076,-4.0241,-4.0396,-4.0059,-3.9433,-3.8596,-3.7827,-3.7109,-3.6571,-3.6055,-3.6737,-3.7352,-3.8041,-3.8792,-3.9383,-3.9566,-3.8952,-3.8371,-3.8234,-3.8109,-3.779,-3.7648,-3.7238,-3.6301,-3.4717,-3.2332,-3.0163,-2.748,-2.5037,-2.2969,-2.1779,-2.0667,-1.9846,-2.0508,-2.1564,-2.2822,-2.3639,-2.4747,-2.6362,-2.7037,-2.7024,-2.6295,-2.6595,-2.6521,-2.6452,-2.6521,-2.6645,-2.6382,-2.6052,-2.5963,-2.5861,-2.5075,-2.6438,-2.7,-2.701,-2.7565,-2.8286,-2.8195,-2.8179,-2.7929,-2.7415,-2.626,-2.4957,-2.268,-2.0905,-1.9062,-1.7852,-1.8168,-1.8524,-1.8658,-1.8283,-1.7546,-1.5788,-1.3492,-1.0696,-0.7877,-0.5356,-0.2988,-0.1474,-0.0668,0.0336,0.0334,0.0669,0.1941,0.4772,0.7742,1.0622,1.3896,1.7463,2.1621,2.5897,2.7589,2.9249,2.9887,3.0228,3.0442,-3.9927,-3.9631,-3.9588,-3.9268,-3.878,-3.8689,-3.8707,-3.8707,-3.8707,-3.8719,-3.8732,-3.8732,-3.8775,-3.8829,-3.9036,-3.9164,-3.932,-3.9768,-4.0078,-4.021,-4.0412,-4.0429,-4.0024,-3.9391,-3.867,-3.7652,-3.6984,-3.6404,-3.5693,-3.6685,-3.7165,-3.7506,-3.829,-3.9017,-3.9524,-3.9576,-3.9352,-3.9096,-3.8924,-3.8389,-3.7866,-3.7288,-3.5949,-3.4372,-3.2068,-2.9985,-2.8257,-2.5126,-2.334,-2.2787,-2.1175,-2.0456,-2.0582,-2.2296,-2.3329,-2.3559,-2.5332,-2.6718,-2.7524,-2.7564,-2.7124,-2.6577,-2.6521,-2.6589,-2.6726,-2.7108,-2.7604,-2.7245,-2.7908,-2.8446,-2.8641,-2.883,-2.8802,-2.8936,-2.9389,-2.976,-2.9701,-2.964,-2.9482,-2.8685,-2.7694,-2.6437,-2.3887,-2.1637,-1.9695,-1.8767,-1.8967,-1.9221,-1.9467,-1.9349,-1.8806,-1.745,-1.5496,-1.3597,-1.1117,-0.9086,-0.6958,-0.5301,-0.3558,-0.2182,-0.0666,0.0401,0.1939,0.3875,0.6302,0.9145,1.1729,1.4424,1.8859,2.3161,2.6543,2.8334,2.9006,2.9555,2.9768,-4.0193,-3.9946,-3.993,-3.9703,-3.9305,-3.9058,-3.8885,-3.8726,-3.8689,-3.8803,-3.8933,-3.8943,-3.9095,-3.9264,-3.938,-3.952,-3.9757,-3.9583,-3.9832,-4.0139,-4.0282,-4.0062,-3.9744,-3.9351,-3.874,-3.7933,-3.7187,-3.6537,-3.6035,-3.6827,-3.7181,-3.748,-3.8041,-3.8423,-3.8836,-3.8998,-3.8913,-3.8748,-3.848,-3.8092,-3.7772,-3.6663,-3.545,-3.4185,-3.1732,-2.9964,-2.8834,-2.5436,-2.3734,-2.3368,-2.1745,-2.0712,-2.1011,-2.2563,-2.3452,-2.3891,-2.5358,-2.6521,-2.6837,-2.6824,-2.6769,-2.6589,-2.6521,-2.6726,-2.7229,-2.7484,-2.7934,-2.8492,-2.9008,-2.9247,-2.8917,-3.0029,-3.0309,-3.0294,-3.0683,-3.1181,-3.1352,-3.1358,-3.1071,-2.9749,-2.8639,-2.6814,-2.4538,-2.2637,-2.0778,-1.9944,-2.0139,-2.0228,-2.0435,-2.047,-2.0181,-1.8907,-1.7363,-1.5961,-1.4231,-1.2426,-1.0472,-0.8646,-0.6109,-0.3719,-0.2102,-0.0333,0.1735,0.3668,0.5592,0.7642,1.0566,1.3518,1.6514,2.0165,2.3546,2.6552,2.7711,2.8425,2.9042,-4.0389,-4.0251,-4.0234,-4.006,-3.9743,-3.9286,-3.9001,-3.8862,-3.897,-3.9109,-3.9238,-3.9282,-3.9373,-3.956,-3.9741,-3.9851,-4.0095,-4.0005,-3.9861,-4.012,-4.0136,-3.9798,-3.9457,-3.9157,-3.8399,-3.777,-3.7185,-3.6618,-3.6304,-3.6994,-3.7609,-3.8076,-3.8186,-3.8387,-3.8473,-3.8314,-3.8132,-3.7928,-3.7613,-3.7126,-3.6611,-3.5737,-3.4631,-3.324,-3.149,-2.9704,-2.8163,-2.6058,-2.3672,-2.3243,-2.2209,-2.1098,-2.1766,-2.2638,-2.3672,-2.4397,-2.5429,-2.6383,-2.6521,-2.6521,-2.6589,-2.6521,-2.6521,-2.6905,-2.7604,-2.7986,-2.8684,-2.924,-2.9818,-3.0168,-3.0408,-3.1615,-3.1866,-3.1836,-3.2035,-3.2534,-3.2243,-3.2209,-3.1474,-3.0189,-2.8965,-2.7054,-2.5218,-2.3645,-2.193,-2.1518,-2.1227,-2.1334,-2.1415,-2.1536,-2.1425,-2.032,-1.9592,-1.8578,-1.7437,-1.61,-1.4123,-1.1996,-0.904,-0.5962,-0.3073,-0.1191,0.1127,0.3396,0.5259,0.7367,0.9914,1.2715,1.484,1.7458,2.0617,2.342,2.5885,2.7094,2.7827,-4.0527,-4.0489,-4.0489,-4.0339,-4.002,-3.9485,-3.9212,-3.9152,-3.9457,-3.9557,-3.9622,-3.9622,-3.9679,-3.9728,-3.9963,-4.0117,-4.0156,-4.0329,-4.023,-4.0137,-4.0068,-3.9543,-3.9032,-3.8626,-3.8028,-3.7219,-3.6674,-3.6562,-3.6537,-3.7699,-3.8556,-3.9192,-3.933,-3.8896,-3.8303,-3.7629,-3.7372,-3.7099,-3.6457,-3.5973,-3.546,-3.4692,-3.3838,-3.2648,-3.1116,-2.9884,-2.8327,-2.6099,-2.4837,-2.3807,-2.2499,-2.2478,-2.282,-2.3537,-2.4192,-2.4992,-2.6094,-2.6314,-2.6521,-2.6521,-2.6645,-2.6714,-2.6714,-2.7027,-2.7789,-2.8607,-2.9552,-3.0482,-3.1273,-3.1926,-3.2579,-3.2988,-3.3411,-3.3453,-3.3469,-3.3291,-3.2751,-3.221,-3.1351,-3.0303,-2.9229,-2.7629,-2.5847,-2.4257,-2.3263,-2.3157,-2.287,-2.276,-2.2777,-2.278,-2.2564,-2.1857,-2.1317,-2.1294,-2.031,-1.9174,-1.7442,-1.5239,-1.1548,-0.8366,-0.5298,-0.1977,0.053,0.2799,0.4863,0.6972,0.8899,1.0571,1.2195,1.5012,1.7875,2.1083,2.3819,2.5417,2.6234,-4.1046,-4.0508,-4.0489,-4.0457,-4.0375,-4.0177,-3.9878,-3.9486,-3.9557,-3.9712,-3.9962,-3.9943,-4.0004,-4.0248,-4.0336,-4.0383,-4.0332,-4.0264,-4.0176,-4.0096,-3.9958,-3.9397,-3.8876,-3.8377,-3.7757,-3.7124,-3.6663,-3.6621,-3.7294,-3.8458,-4.0091,-4.1074,-4.0574,-3.963,-3.8437,-3.7317,-3.6928,-3.6256,-3.5457,-3.4843,-3.4363,-3.3705,-3.3175,-3.2558,-3.1047,-3.0031,-2.8944,-2.6993,-2.5874,-2.5125,-2.4052,-2.3816,-2.3891,-2.4422,-2.5004,-2.5943,-2.6383,-2.6521,-2.6521,-2.6533,-2.6752,-2.7227,-2.7335,-2.7855,-2.8556,-2.949,-3.0466,-3.1432,-3.2314,-3.2886,-3.336,-3.384,-3.4283,-3.4471,-3.4539,-3.4399,-3.3816,-3.3194,-3.2226,-3.0367,-2.9281,-2.772,-2.5972,-2.5384,-2.4614,-2.4584,-2.4483,-2.4239,-2.4008,-2.3975,-2.3742,-2.3032,-2.3076,-2.3135,-2.2938,-2.2049,-2.0296,-1.818,-1.4309,-1.0395,-0.6686,-0.342,-0.0332,0.1671,0.2941,0.4982,0.7212,0.8573,0.9423,1.2174,1.5056,1.8504,2.1484,2.317,2.4591,-4.1604,-4.0604,-4.087,-4.0831,-4.0527,-4.0489,-4.0266,-3.9984,-3.9945,-4.0082,-4.0232,-4.025,-4.0336,-4.0457,-4.0473,-4.0489,-4.0473,-4.0372,-4.0232,-4.0061,-3.9901,-3.9402,-3.8869,-3.837,-3.7576,-3.7055,-3.6921,-3.7184,-3.8089,-3.9897,-4.1649,-4.2155,-4.1675,-4.0528,-3.9227,-3.8087,-3.7113,-3.6026,-3.4855,-3.3922,-3.3375,-3.299,-3.2957,-3.2702,-3.1111,-3.0494,-3.0008,-2.8015,-2.6771,-2.6418,-2.5552,-2.5164,-2.5454,-2.6154,-2.6127,-2.6859,-2.6816,-2.6841,-2.6841,-2.6829,-2.7306,-2.7865,-2.8385,-2.8889,-2.9484,-3.0271,-3.1275,-3.221,-3.2939,-3.3617,-3.4071,-3.4511,-3.4938,-3.5323,-3.544,-3.5522,-3.5002,-3.4438,-3.2744,-3.0633,-2.9007,-2.7446,-2.6443,-2.6068,-2.5673,-2.5287,-2.505,-2.4993,-2.4811,-2.4781,-2.4657,-2.4262,-2.4614,-2.4998,-2.4723,-2.4114,-2.2418,-1.9949,-1.6356,-1.243,-0.8398,-0.4928,-0.2049,-0.0534,0.0472,0.2166,0.3612,0.5183,0.6569,0.9319,1.1988,1.5205,1.8427,2.1106,2.2336,-4.2239,-4.0816,-4.1482,-4.127,-4.0546,-4.0508,-4.0508,-4.0508,-4.0476,-4.0527,-4.0492,-4.0489,-4.0473,-4.0489,-4.0489,-4.0508,-4.0527,-4.0495,-4.0396,-4.0139,-4.0139,-3.969,-3.9152,-3.8706,-3.8025,-3.7195,-3.718,-3.8213,-3.9154,-4.0905,-4.2529,-4.2989,-4.2762,-4.1801,-4.0365,-3.9176,-3.805,-3.6697,-3.4996,-3.3619,-3.3193,-3.2867,-3.2617,-3.257,-3.1675,-3.0799,-3.0255,-2.8879,-2.7259,-2.7184,-2.701,-2.6621,-2.7163,-2.7728,-2.7598,-2.7381,-2.7168,-2.7155,-2.7284,-2.7341,-2.8045,-2.873,-2.9481,-3.0115,-3.0776,-3.1116,-3.1987,-3.2795,-3.3531,-3.4186,-3.4688,-3.5186,-3.5654,-3.5959,-3.6086,-3.6032,-3.5621,-3.4711,-3.309,-3.116,-2.9706,-2.8258,-2.758,-2.7291,-2.7238,-2.6357,-2.6144,-2.6197,-2.5918,-2.5863,-2.5563,-2.5479,-2.5852,-2.6116,-2.5744,-2.5067,-2.3987,-2.1519,-1.8127,-1.4673,-1.0793,-0.7278,-0.3825,-0.3228,-0.2951,-0.1989,-0.069,0.0848,0.2879,0.5912,0.8735,1.1857,1.4795,1.7215,1.9975,-4.3431,-4.2431,-4.1989,-4.1296,-4.0566,-4.062,-4.0677,-4.0658,-4.0716,-4.0693,-4.0543,-4.0523,-4.0508,-4.0527,-4.0527,-4.0566,-4.0639,-4.0641,-4.0646,-4.0511,-4.0434,-4.0177,-3.9566,-3.941,-3.8734,-3.8394,-3.8681,-3.9617,-4.1161,-4.2577,-4.3724,-4.4568,-4.4263,-4.3293,-4.165,-4.048,-3.919,-3.7776,-3.6399,-3.4911,-3.4328,-3.4207,-3.4117,-3.3461,-3.262,-3.1625,-3.0902,-3.0008,-2.9026,-2.8612,-2.8362,-2.8126,-2.8061,-2.8147,-2.7846,-2.7419,-2.7406,-2.7373,-2.7799,-2.8177,-2.9019,-3.0092,-3.097,-3.157,-3.1974,-3.2152,-3.2625,-3.3355,-3.4037,-3.4704,-3.5283,-3.5776,-3.6249,-3.6481,-3.6746,-3.6486,-3.6168,-3.4763,-3.3333,-3.1971,-3.0481,-2.956,-2.8851,-2.8541,-2.859,-2.856,-2.856,-2.8418,-2.772,-2.7384,-2.6625,-2.6515,-2.6872,-2.7011,-2.666,-2.5983,-2.4816,-2.2985,-1.9901,-1.6497,-1.3046,-0.9633,-0.6449,-0.6763,-0.6557,-0.6004,-0.5193,-0.384,-0.1387,0.1751,0.4854,0.7744,0.8851,1.0789,1.5032,-4.4182,-4.3104,-4.2585,-4.2124,-4.172,-4.1755,-4.1828,-4.1767,-4.1506,-4.1311,-4.1139,-4.0844,-4.0639,-4.0639,-4.0639,-4.0658,-4.0761,-4.0726,-4.0738,-4.0703,-4.0752,-4.0746,-4.0451,-4.0365,-3.9846,-3.9608,-4.012,-4.1232,-4.3054,-4.4141,-4.5046,-4.5484,-4.5318,-4.4478,-4.2906,-4.1845,-4.0636,-3.9191,-3.8204,-3.7241,-3.6083,-3.5549,-3.5161,-3.4448,-3.3396,-3.2401,-3.1554,-3.0777,-2.9821,-2.9402,-2.9251,-2.9163,-2.8825,-2.8383,-2.8188,-2.7915,-2.7754,-2.7667,-2.8439,-2.9302,-3.0201,-3.1425,-3.2165,-3.262,-3.3051,-3.3257,-3.3489,-3.4217,-3.4723,-3.5299,-3.5526,-3.5924,-3.6481,-3.6803,-3.7135,-3.7197,-3.6242,-3.4925,-3.3846,-3.2935,-3.1516,-3.0193,-2.9515,-2.8784,-2.8765,-2.8496,-2.8826,-2.8826,-2.8462,-2.8367,-2.7765,-2.7327,-2.7458,-2.7524,-2.7238,-2.6541,-2.5621,-2.353,-2.1543,-1.792,-1.4347,-1.1545,-0.9384,-1.0055,-1.0516,-1.0697,-0.9736,-0.8107,-0.5882,-0.2821,0.0298,0.3373,0.4027,0.434,0.6615,-4.4662,-4.3335,-4.3239,-4.3162,-4.3104,-4.3159,-4.3166,-4.3023,-4.2441,-4.2105,-4.2002,-4.1325,-4.0998,-4.0829,-4.081,-4.0838,-4.0848,-4.0842,-4.0848,-4.11,-4.1054,-4.1496,-4.1802,-4.1794,-4.1523,-4.1589,-4.2007,-4.3062,-4.4468,-4.5195,-4.5578,-4.5886,-4.5473,-4.4816,-4.4013,-4.3169,-4.1959,-4.0777,-3.9876,-3.9326,-3.8095,-3.6609,-3.5991,-3.5059,-3.3943,-3.2905,-3.2177,-3.1267,-3.0203,-2.9896,-2.9845,-2.9641,-2.9437,-2.8913,-2.8706,-2.8524,-2.8462,-2.8921,-2.9803,-3.061,-3.1723,-3.2709,-3.3154,-3.3627,-3.4106,-3.4503,-3.4743,-3.515,-3.5659,-3.5796,-3.5973,-3.6241,-3.6799,-3.7135,-3.747,-3.7649,-3.64,-3.5215,-3.446,-3.3743,-3.2606,-3.1246,-3.0441,-2.9643,-2.9261,-2.8865,-2.8521,-2.8213,-2.8164,-2.8365,-2.8207,-2.773,-2.7509,-2.756,-2.756,-2.7129,-2.627,-2.5134,-2.2963,-1.9211,-1.6088,-1.4406,-1.3476,-1.3735,-1.4196,-1.4396,-1.3528,-1.2012,-0.9597,-0.6919,-0.4157,-0.1507,-0.1716,-0.1685,-0.2473,-4.5009,-4.4085,-4.4066,-4.372,-4.3239,-4.3333,-4.3361,-4.3268,-4.2691,-4.2346,-4.2354,-4.2194,-4.1694,-4.081,-4.081,-4.0974,-4.1371,-4.1257,-4.1629,-4.2007,-4.1935,-4.2524,-4.296,-4.3018,-4.364,-4.371,-4.3778,-4.4672,-4.481,-4.536,-4.5794,-4.5715,-4.5398,-4.4738,-4.3862,-4.3014,-4.2056,-4.1136,-4.0463,-3.9766,-3.8945,-3.763,-3.6689,-3.5619,-3.4359,-3.3945,-3.3241,-3.1901,-3.1193,-3.0696,-3.0203,-2.9921,-2.9611,-2.9419,-2.9133,-2.9252,-2.9214,-3.0038,-3.086,-3.2041,-3.3159,-3.4053,-3.4564,-3.507,-3.5579,-3.6058,-3.6372,-3.6769,-3.6978,-3.6661,-3.6749,-3.6974,-3.739,-3.7469,-3.772,-3.7506,-3.6805,-3.5907,-3.5133,-3.4593,-3.3935,-3.2914,-3.2063,-3.1565,-3.1325,-3.0906,-3.0382,-2.9975,-2.9214,-2.8965,-2.8621,-2.8091,-2.7625,-2.756,-2.756,-2.7575,-2.6894,-2.6001,-2.4765,-2.1743,-1.9485,-1.8322,-1.7718,-1.7429,-1.7583,-1.7841,-1.6769,-1.553,-1.2931,-1.0338,-0.823,-0.6497,-0.6809,-0.7671,-0.8492]}]]